<?xml version="1.0" encoding="UTF-8" standalone="no" ?>
<gpx xmlns="http://www.topografix.com/GPX/1/1" xmlns:xsi="http://www.w3.org/2001/XMLSchema-instance" xsi:schemaLocation="http://www.topografix.com/GPX/1/1 http://www.topografix.com/GPX/1/1/gpx.xsd" version="1.1" creator="VisuGPX - https://www.visugpx.com">
  <metadata>
    <name>Essai parcours rouge</name>
  </metadata>
  <trk>
    <name><![CDATA[Grande Rue / Rue du Moulin Brisse Loop]]></name>
    <trkseg>
      <trkpt lat="47.56542" lon="6.5834">
        <ele>335.55</ele>
        <time>2000-01-01T00:00:00Z</time>
      </trkpt>
      <trkpt lat="47.56542" lon="6.5834">
        <ele>335.55</ele>
        <time>2000-01-01T00:00:00Z</time>
      </trkpt>
      <trkpt lat="47.56559" lon="6.58325">
        <ele>334.3632513125</ele>
        <time>2000-01-01T00:00:00Z</time>
      </trkpt>
      <trkpt lat="47.56566" lon="6.58321">
        <ele>333.93</ele>
        <time>2000-01-01T00:00:00Z</time>
      </trkpt>
      <trkpt lat="47.56591" lon="6.58308">
        <ele>334.18</ele>
        <time>2000-01-01T00:00:00Z</time>
      </trkpt>
      <trkpt lat="47.56617" lon="6.58294">
        <ele>332.63</ele>
        <time>2000-01-01T00:00:00Z</time>
      </trkpt>
      <trkpt lat="47.56642" lon="6.5828">
        <ele>331.31</ele>
        <time>2000-01-01T00:00:00Z</time>
      </trkpt>
      <trkpt lat="47.56658" lon="6.58271">
        <ele>330.44156432581</ele>
        <time>2000-01-01T00:00:00Z</time>
      </trkpt>
      <trkpt lat="47.56666" lon="6.58262">
        <ele>329.95</ele>
        <time>2000-01-01T00:00:00Z</time>
      </trkpt>
      <trkpt lat="47.56668" lon="6.5826">
        <ele>329.79951309205</ele>
        <time>2000-01-01T00:00:00Z</time>
      </trkpt>
      <trkpt lat="47.56677" lon="6.58244">
        <ele>329.01369121354</ele>
        <time>2000-01-01T00:00:00Z</time>
      </trkpt>
      <trkpt lat="47.56681" lon="6.5823">
        <ele>328.44</ele>
        <time>2000-01-01T00:00:00Z</time>
      </trkpt>
      <trkpt lat="47.56684" lon="6.58222">
        <ele>328.03689792006</ele>
        <time>2000-01-01T00:00:00Z</time>
      </trkpt>
      <trkpt lat="47.56688" lon="6.58192">
        <ele>326.67</ele>
        <time>2000-01-01T00:00:00Z</time>
      </trkpt>
      <trkpt lat="47.56692" lon="6.58152">
        <ele>325.2</ele>
        <time>2000-01-01T00:00:00Z</time>
      </trkpt>
      <trkpt lat="47.56693" lon="6.58145">
        <ele>325.01813175035</ele>
        <time>2000-01-01T00:00:00Z</time>
      </trkpt>
      <trkpt lat="47.56698" lon="6.58113">
        <ele>324.19</ele>
        <time>2000-01-01T00:00:00Z</time>
      </trkpt>
      <trkpt lat="47.56699" lon="6.58107">
        <ele>324.01943351969</ele>
        <time>2000-01-01T00:00:00Z</time>
      </trkpt>
      <trkpt lat="47.56703" lon="6.58087">
        <ele>323.44617581625</ele>
        <time>2000-01-01T00:00:00Z</time>
      </trkpt>
      <trkpt lat="47.56708" lon="6.58076">
        <ele>323.09</ele>
        <time>2000-01-01T00:00:00Z</time>
      </trkpt>
      <trkpt lat="47.56709" lon="6.58074">
        <ele>323.00636875537</ele>
        <time>2000-01-01T00:00:00Z</time>
      </trkpt>
      <trkpt lat="47.56719" lon="6.5806">
        <ele>322.39516215743</ele>
        <time>2000-01-01T00:00:00Z</time>
      </trkpt>
      <trkpt lat="47.56729" lon="6.58051">
        <ele>321.89</ele>
        <time>2000-01-01T00:00:00Z</time>
      </trkpt>
      <trkpt lat="47.56752" lon="6.5803">
        <ele>320.67</ele>
        <time>2000-01-01T00:00:00Z</time>
      </trkpt>
      <trkpt lat="47.56764" lon="6.58019">
        <ele>319.9960502089</ele>
        <time>2000-01-01T00:00:00Z</time>
      </trkpt>
      <trkpt lat="47.56775" lon="6.58009">
        <ele>319.41</ele>
        <time>2000-01-01T00:00:00Z</time>
      </trkpt>
      <trkpt lat="47.56789" lon="6.57996">
        <ele>318.74191406646</ele>
        <time>2000-01-01T00:00:00Z</time>
      </trkpt>
      <trkpt lat="47.56792" lon="6.57999">
        <ele>318.59853543784</ele>
        <time>2000-01-01T00:00:00Z</time>
      </trkpt>
      <trkpt lat="47.56799" lon="6.58002">
        <ele>318.31266389239</ele>
        <time>2000-01-01T00:00:00Z</time>
      </trkpt>
      <trkpt lat="47.56823" lon="6.5799">
        <ele>317.40295953236</ele>
        <time>2000-01-01T00:00:00Z</time>
      </trkpt>
      <trkpt lat="47.56824" lon="6.5799">
        <ele>317.37</ele>
        <time>2000-01-01T00:00:00Z</time>
      </trkpt>
      <trkpt lat="47.5685" lon="6.57978">
        <ele>315.86</ele>
        <time>2000-01-01T00:00:00Z</time>
      </trkpt>
      <trkpt lat="47.5686" lon="6.57973">
        <ele>315.15944471482</ele>
        <time>2000-01-01T00:00:00Z</time>
      </trkpt>
      <trkpt lat="47.56876" lon="6.57968">
        <ele>314.11</ele>
        <time>2000-01-01T00:00:00Z</time>
      </trkpt>
      <trkpt lat="47.56902" lon="6.5796">
        <ele>312.56</ele>
        <time>2000-01-01T00:00:00Z</time>
      </trkpt>
      <trkpt lat="47.56929" lon="6.57952">
        <ele>310.8</ele>
        <time>2000-01-01T00:00:00Z</time>
      </trkpt>
      <trkpt lat="47.56942" lon="6.57948">
        <ele>309.739885404</ele>
        <time>2000-01-01T00:00:00Z</time>
      </trkpt>
      <trkpt lat="47.56948" lon="6.57946">
        <ele>309.25714528336</ele>
        <time>2000-01-01T00:00:00Z</time>
      </trkpt>
      <trkpt lat="47.56955" lon="6.57943">
        <ele>308.68</ele>
        <time>2000-01-01T00:00:00Z</time>
      </trkpt>
      <trkpt lat="47.56976" lon="6.57932">
        <ele>306.74852425315</ele>
        <time>2000-01-01T00:00:00Z</time>
      </trkpt>
      <trkpt lat="47.5698" lon="6.57928">
        <ele>306.33</ele>
        <time>2000-01-01T00:00:00Z</time>
      </trkpt>
      <trkpt lat="47.57004" lon="6.57908">
        <ele>304.59</ele>
        <time>2000-01-01T00:00:00Z</time>
      </trkpt>
      <trkpt lat="47.57027" lon="6.57888">
        <ele>303.84</ele>
        <time>2000-01-01T00:00:00Z</time>
      </trkpt>
      <trkpt lat="47.5704" lon="6.57877">
        <ele>303.97747136509</ele>
        <time>2000-01-01T00:00:00Z</time>
      </trkpt>
      <trkpt lat="47.5707" lon="6.57853">
        <ele>304.2867265511</ele>
        <time>2000-01-01T00:00:00Z</time>
      </trkpt>
      <trkpt lat="47.57074" lon="6.57856">
        <ele>304.33</ele>
        <time>2000-01-01T00:00:00Z</time>
      </trkpt>
      <trkpt lat="47.57099" lon="6.57871">
        <ele>305.97</ele>
        <time>2000-01-01T00:00:00Z</time>
      </trkpt>
      <trkpt lat="47.57124" lon="6.57887">
        <ele>308.9</ele>
        <time>2000-01-01T00:00:00Z</time>
      </trkpt>
      <trkpt lat="47.57149" lon="6.57903">
        <ele>312.28</ele>
        <time>2000-01-01T00:00:00Z</time>
      </trkpt>
      <trkpt lat="47.57162" lon="6.57911">
        <ele>313.34602563386</ele>
        <time>2000-01-01T00:00:00Z</time>
      </trkpt>
      <trkpt lat="47.57163" lon="6.57917">
        <ele>313.65943525934</ele>
        <time>2000-01-01T00:00:00Z</time>
      </trkpt>
      <trkpt lat="47.57168" lon="6.57928">
        <ele>314.31</ele>
        <time>2000-01-01T00:00:00Z</time>
      </trkpt>
      <trkpt lat="47.57171" lon="6.57934">
        <ele>314.49151043323</ele>
        <time>2000-01-01T00:00:00Z</time>
      </trkpt>
      <trkpt lat="47.57174" lon="6.57938">
        <ele>314.62896660756</ele>
        <time>2000-01-01T00:00:00Z</time>
      </trkpt>
      <trkpt lat="47.57189" lon="6.57952">
        <ele>315.23</ele>
        <time>2000-01-01T00:00:00Z</time>
      </trkpt>
      <trkpt lat="47.57193" lon="6.57955">
        <ele>315.28053307951</ele>
        <time>2000-01-01T00:00:00Z</time>
      </trkpt>
      <trkpt lat="47.57208" lon="6.57965">
        <ele>315.46322965287</ele>
        <time>2000-01-01T00:00:00Z</time>
      </trkpt>
      <trkpt lat="47.57223" lon="6.57981">
        <ele>315.66850794793</ele>
        <time>2000-01-01T00:00:00Z</time>
      </trkpt>
      <trkpt lat="47.57227" lon="6.57982">
        <ele>315.713567226</ele>
        <time>2000-01-01T00:00:00Z</time>
      </trkpt>
      <trkpt lat="47.57236" lon="6.5799">
        <ele>315.83</ele>
        <time>2000-01-01T00:00:00Z</time>
      </trkpt>
      <trkpt lat="47.5725" lon="6.58003">
        <ele>316.21868531634</ele>
        <time>2000-01-01T00:00:00Z</time>
      </trkpt>
      <trkpt lat="47.5726" lon="6.58016">
        <ele>316.53142047656</ele>
        <time>2000-01-01T00:00:00Z</time>
      </trkpt>
      <trkpt lat="47.57278" lon="6.5803">
        <ele>317.00935843974</ele>
        <time>2000-01-01T00:00:00Z</time>
      </trkpt>
      <trkpt lat="47.57281" lon="6.5803">
        <ele>317.07989378878</ele>
        <time>2000-01-01T00:00:00Z</time>
      </trkpt>
      <trkpt lat="47.57293" lon="6.58037">
        <ele>318.40626278617</ele>
        <time>2000-01-01T00:00:00Z</time>
      </trkpt>
      <trkpt lat="47.57308" lon="6.58042">
        <ele>320.03</ele>
        <time>2000-01-01T00:00:00Z</time>
      </trkpt>
      <trkpt lat="47.57319" lon="6.58046">
        <ele>321.65036207024</ele>
        <time>2000-01-01T00:00:00Z</time>
      </trkpt>
      <trkpt lat="47.57334" lon="6.58046">
        <ele>323.76</ele>
        <time>2000-01-01T00:00:00Z</time>
      </trkpt>
      <trkpt lat="47.57339" lon="6.58046">
        <ele>324.35830171686</ele>
        <time>2000-01-01T00:00:00Z</time>
      </trkpt>
      <trkpt lat="47.57351" lon="6.58046">
        <ele>325.87786640167</ele>
        <time>2000-01-01T00:00:00Z</time>
      </trkpt>
      <trkpt lat="47.57354" lon="6.58043">
        <ele>326.33612663572</ele>
        <time>2000-01-01T00:00:00Z</time>
      </trkpt>
      <trkpt lat="47.57358" lon="6.58043">
        <ele>326.84264819729</ele>
        <time>2000-01-01T00:00:00Z</time>
      </trkpt>
      <trkpt lat="47.5736" lon="6.58041">
        <ele>327.18</ele>
        <time>2000-01-01T00:00:00Z</time>
      </trkpt>
      <trkpt lat="47.57364" lon="6.58039">
        <ele>327.52643837982</ele>
        <time>2000-01-01T00:00:00Z</time>
      </trkpt>
      <trkpt lat="47.57374" lon="6.58034">
        <ele>328.46036009487</ele>
        <time>2000-01-01T00:00:00Z</time>
      </trkpt>
      <trkpt lat="47.57377" lon="6.58032">
        <ele>328.75145499838</ele>
        <time>2000-01-01T00:00:00Z</time>
      </trkpt>
      <trkpt lat="47.57386" lon="6.5803">
        <ele>329.57</ele>
        <time>2000-01-01T00:00:00Z</time>
      </trkpt>
      <trkpt lat="47.5739" lon="6.58029">
        <ele>329.67849098972</ele>
        <time>2000-01-01T00:00:00Z</time>
      </trkpt>
      <trkpt lat="47.57406" lon="6.58023">
        <ele>330.13680656231</ele>
        <time>2000-01-01T00:00:00Z</time>
      </trkpt>
      <trkpt lat="47.57413" lon="6.58023">
        <ele>330.32</ele>
        <time>2000-01-01T00:00:00Z</time>
      </trkpt>
      <trkpt lat="47.57435" lon="6.58023">
        <ele>330.21216388832</ele>
        <time>2000-01-01T00:00:00Z</time>
      </trkpt>
      <trkpt lat="47.57439" lon="6.58025">
        <ele>330.19</ele>
        <time>2000-01-01T00:00:00Z</time>
      </trkpt>
      <trkpt lat="47.5745" lon="6.5803">
        <ele>330.30941601754</ele>
        <time>2000-01-01T00:00:00Z</time>
      </trkpt>
      <trkpt lat="47.57464" lon="6.58041">
        <ele>330.48</ele>
        <time>2000-01-01T00:00:00Z</time>
      </trkpt>
      <trkpt lat="47.57467" lon="6.58044">
        <ele>330.68436786622</ele>
        <time>2000-01-01T00:00:00Z</time>
      </trkpt>
      <trkpt lat="47.5747" lon="6.5805">
        <ele>330.97352070236</ele>
        <time>2000-01-01T00:00:00Z</time>
      </trkpt>
      <trkpt lat="47.57484" lon="6.58066">
        <ele>331.98807758158</ele>
        <time>2000-01-01T00:00:00Z</time>
      </trkpt>
      <trkpt lat="47.575" lon="6.58098">
        <ele>333.44311193413</ele>
        <time>2000-01-01T00:00:00Z</time>
      </trkpt>
      <trkpt lat="47.57538" lon="6.58158">
        <ele>334.26367258536</ele>
        <time>2000-01-01T00:00:00Z</time>
      </trkpt>
      <trkpt lat="47.57543" lon="6.5816">
        <ele>334.37489000688</ele>
        <time>2000-01-01T00:00:00Z</time>
      </trkpt>
      <trkpt lat="47.5756" lon="6.5818">
        <ele>334.83</ele>
        <time>2000-01-01T00:00:00Z</time>
      </trkpt>
      <trkpt lat="47.57571" lon="6.58193">
        <ele>335.15119596685</ele>
        <time>2000-01-01T00:00:00Z</time>
      </trkpt>
      <trkpt lat="47.57601" lon="6.58214">
        <ele>335.88210511822</ele>
        <time>2000-01-01T00:00:00Z</time>
      </trkpt>
      <trkpt lat="47.57607" lon="6.58218">
        <ele>336.02</ele>
        <time>2000-01-01T00:00:00Z</time>
      </trkpt>
      <trkpt lat="47.57622" lon="6.58227">
        <ele>337.64493895414</ele>
        <time>2000-01-01T00:00:00Z</time>
      </trkpt>
      <trkpt lat="47.57633" lon="6.5823">
        <ele>338.77077209669</ele>
        <time>2000-01-01T00:00:00Z</time>
      </trkpt>
      <trkpt lat="47.57659" lon="6.5823">
        <ele>342.31</ele>
        <time>2000-01-01T00:00:00Z</time>
      </trkpt>
      <trkpt lat="47.57687" lon="6.5823">
        <ele>346.47117153347</ele>
        <time>2000-01-01T00:00:00Z</time>
      </trkpt>
      <trkpt lat="47.57708" lon="6.58223">
        <ele>350.09739004517</ele>
        <time>2000-01-01T00:00:00Z</time>
      </trkpt>
      <trkpt lat="47.57711" lon="6.58223">
        <ele>350.60280081391</ele>
        <time>2000-01-01T00:00:00Z</time>
      </trkpt>
      <trkpt lat="47.57713" lon="6.58222">
        <ele>350.91</ele>
        <time>2000-01-01T00:00:00Z</time>
      </trkpt>
      <trkpt lat="47.57726" lon="6.58216">
        <ele>352.98959705899</ele>
        <time>2000-01-01T00:00:00Z</time>
      </trkpt>
      <trkpt lat="47.57739" lon="6.58213">
        <ele>354.95</ele>
        <time>2000-01-01T00:00:00Z</time>
      </trkpt>
      <trkpt lat="47.57752" lon="6.5821">
        <ele>356.57848450121</ele>
        <time>2000-01-01T00:00:00Z</time>
      </trkpt>
      <trkpt lat="47.57764" lon="6.5821">
        <ele>358.05806064168</ele>
        <time>2000-01-01T00:00:00Z</time>
      </trkpt>
      <trkpt lat="47.57766" lon="6.5821">
        <ele>358.28</ele>
        <time>2000-01-01T00:00:00Z</time>
      </trkpt>
      <trkpt lat="47.57768" lon="6.58209">
        <ele>358.56323012152</ele>
        <time>2000-01-01T00:00:00Z</time>
      </trkpt>
      <trkpt lat="47.57793" lon="6.58209">
        <ele>361.67</ele>
        <time>2000-01-01T00:00:00Z</time>
      </trkpt>
      <trkpt lat="47.57813" lon="6.58209">
        <ele>364.42153866463</ele>
        <time>2000-01-01T00:00:00Z</time>
      </trkpt>
      <trkpt lat="47.5782" lon="6.58212">
        <ele>365.34</ele>
        <time>2000-01-01T00:00:00Z</time>
      </trkpt>
      <trkpt lat="47.5783" lon="6.58216">
        <ele>366.50069495437</ele>
        <time>2000-01-01T00:00:00Z</time>
      </trkpt>
      <trkpt lat="47.5784" lon="6.58217">
        <ele>367.56947967446</ele>
        <time>2000-01-01T00:00:00Z</time>
      </trkpt>
      <trkpt lat="47.57846" lon="6.5822">
        <ele>368.22</ele>
        <time>2000-01-01T00:00:00Z</time>
      </trkpt>
      <trkpt lat="47.57853" lon="6.58223">
        <ele>368.34187725904</ele>
        <time>2000-01-01T00:00:00Z</time>
      </trkpt>
      <trkpt lat="47.5786" lon="6.58228">
        <ele>368.46789148723</ele>
        <time>2000-01-01T00:00:00Z</time>
      </trkpt>
      <trkpt lat="47.57868" lon="6.58231">
        <ele>368.60171891804</ele>
        <time>2000-01-01T00:00:00Z</time>
      </trkpt>
      <trkpt lat="47.57886" lon="6.58241">
        <ele>368.91346160222</ele>
        <time>2000-01-01T00:00:00Z</time>
      </trkpt>
      <trkpt lat="47.57905" lon="6.58257">
        <ele>369.26784168679</ele>
        <time>2000-01-01T00:00:00Z</time>
      </trkpt>
      <trkpt lat="47.57909" lon="6.58262">
        <ele>369.35269570966</ele>
        <time>2000-01-01T00:00:00Z</time>
      </trkpt>
      <trkpt lat="47.5792" lon="6.58271">
        <ele>369.55645633774</ele>
        <time>2000-01-01T00:00:00Z</time>
      </trkpt>
      <trkpt lat="47.57927" lon="6.58279">
        <ele>369.69979884948</ele>
        <time>2000-01-01T00:00:00Z</time>
      </trkpt>
      <trkpt lat="47.57929" lon="6.58284">
        <ele>369.76339180363</ele>
        <time>2000-01-01T00:00:00Z</time>
      </trkpt>
      <trkpt lat="47.57937" lon="6.58291">
        <ele>369.91404698346</ele>
        <time>2000-01-01T00:00:00Z</time>
      </trkpt>
      <trkpt lat="47.57946" lon="6.58305">
        <ele>370.12561528193</ele>
        <time>2000-01-01T00:00:00Z</time>
      </trkpt>
      <trkpt lat="47.57956" lon="6.58326">
        <ele>370.41</ele>
        <time>2000-01-01T00:00:00Z</time>
      </trkpt>
      <trkpt lat="47.57959" lon="6.58332">
        <ele>370.7398293271</ele>
        <time>2000-01-01T00:00:00Z</time>
      </trkpt>
      <trkpt lat="47.5797" lon="6.58361">
        <ele>372.25</ele>
        <time>2000-01-01T00:00:00Z</time>
      </trkpt>
      <trkpt lat="47.57974" lon="6.58371">
        <ele>372.65875874532</ele>
        <time>2000-01-01T00:00:00Z</time>
      </trkpt>
      <trkpt lat="47.57978" lon="6.58376">
        <ele>372.92223098073</ele>
        <time>2000-01-01T00:00:00Z</time>
      </trkpt>
      <trkpt lat="47.57986" lon="6.58393">
        <ele>373.61</ele>
        <time>2000-01-01T00:00:00Z</time>
      </trkpt>
      <trkpt lat="47.5799" lon="6.58401">
        <ele>374.06874542275</ele>
        <time>2000-01-01T00:00:00Z</time>
      </trkpt>
      <trkpt lat="47.57992" lon="6.58408">
        <ele>374.40292077425</ele>
        <time>2000-01-01T00:00:00Z</time>
      </trkpt>
      <trkpt lat="47.58002" lon="6.58424">
        <ele>375.37</ele>
        <time>2000-01-01T00:00:00Z</time>
      </trkpt>
      <trkpt lat="47.58011" lon="6.58439">
        <ele>376.3484311025</ele>
        <time>2000-01-01T00:00:00Z</time>
      </trkpt>
      <trkpt lat="47.58022" lon="6.58452">
        <ele>377.34</ele>
        <time>2000-01-01T00:00:00Z</time>
      </trkpt>
      <trkpt lat="47.58025" lon="6.58456">
        <ele>377.55008562629</ele>
        <time>2000-01-01T00:00:00Z</time>
      </trkpt>
      <trkpt lat="47.58043" lon="6.58475">
        <ele>378.6</ele>
        <time>2000-01-01T00:00:00Z</time>
      </trkpt>
      <trkpt lat="47.58057" lon="6.5849">
        <ele>379.19324687187</ele>
        <time>2000-01-01T00:00:00Z</time>
      </trkpt>
      <trkpt lat="47.58062" lon="6.58498">
        <ele>379.4520203323</ele>
        <time>2000-01-01T00:00:00Z</time>
      </trkpt>
      <trkpt lat="47.58064" lon="6.585">
        <ele>379.55</ele>
        <time>2000-01-01T00:00:00Z</time>
      </trkpt>
      <trkpt lat="47.58087" lon="6.58521">
        <ele>380.72</ele>
        <time>2000-01-01T00:00:00Z</time>
      </trkpt>
      <trkpt lat="47.58093" lon="6.58526">
        <ele>380.85974831067</ele>
        <time>2000-01-01T00:00:00Z</time>
      </trkpt>
      <trkpt lat="47.58125" lon="6.58567">
        <ele>381.76804960658</ele>
        <time>2000-01-01T00:00:00Z</time>
      </trkpt>
      <trkpt lat="47.5813" lon="6.5857">
        <ele>381.88</ele>
        <time>2000-01-01T00:00:00Z</time>
      </trkpt>
      <trkpt lat="47.58135" lon="6.58574">
        <ele>382.2609471379</ele>
        <time>2000-01-01T00:00:00Z</time>
      </trkpt>
      <trkpt lat="47.58146" lon="6.5859">
        <ele>383.26519207131</ele>
        <time>2000-01-01T00:00:00Z</time>
      </trkpt>
      <trkpt lat="47.58151" lon="6.58594">
        <ele>383.64</ele>
        <time>2000-01-01T00:00:00Z</time>
      </trkpt>
      <trkpt lat="47.58154" lon="6.58597">
        <ele>383.89544778469</ele>
        <time>2000-01-01T00:00:00Z</time>
      </trkpt>
      <trkpt lat="47.58161" lon="6.58608">
        <ele>384.63195826487</ele>
        <time>2000-01-01T00:00:00Z</time>
      </trkpt>
      <trkpt lat="47.58163" lon="6.58608">
        <ele>384.77636134164</ele>
        <time>2000-01-01T00:00:00Z</time>
      </trkpt>
      <trkpt lat="47.58164" lon="6.58611">
        <ele>384.93933584605</ele>
        <time>2000-01-01T00:00:00Z</time>
      </trkpt>
      <trkpt lat="47.58167" lon="6.58612">
        <ele>385.16134826924</ele>
        <time>2000-01-01T00:00:00Z</time>
      </trkpt>
      <trkpt lat="47.58169" lon="6.58615">
        <ele>385.36677426277</ele>
        <time>2000-01-01T00:00:00Z</time>
      </trkpt>
      <trkpt lat="47.58169" lon="6.58619">
        <ele>385.5615850865</ele>
        <time>2000-01-01T00:00:00Z</time>
      </trkpt>
      <trkpt lat="47.58196" lon="6.58615">
        <ele>388.65</ele>
        <time>2000-01-01T00:00:00Z</time>
      </trkpt>
      <trkpt lat="47.58223" lon="6.58611">
        <ele>392.67</ele>
        <time>2000-01-01T00:00:00Z</time>
      </trkpt>
      <trkpt lat="47.5825" lon="6.58607">
        <ele>396.79</ele>
        <time>2000-01-01T00:00:00Z</time>
      </trkpt>
      <trkpt lat="47.58277" lon="6.58603">
        <ele>401.13</ele>
        <time>2000-01-01T00:00:00Z</time>
      </trkpt>
      <trkpt lat="47.58304" lon="6.58599">
        <ele>405.11</ele>
        <time>2000-01-01T00:00:00Z</time>
      </trkpt>
      <trkpt lat="47.58331" lon="6.58595">
        <ele>408.9</ele>
        <time>2000-01-01T00:00:00Z</time>
      </trkpt>
      <trkpt lat="47.5834" lon="6.58594">
        <ele>410.03337193285</ele>
        <time>2000-01-01T00:00:00Z</time>
      </trkpt>
      <trkpt lat="47.58357" lon="6.5859">
        <ele>412.16</ele>
        <time>2000-01-01T00:00:00Z</time>
      </trkpt>
      <trkpt lat="47.58384" lon="6.58583">
        <ele>415.52</ele>
        <time>2000-01-01T00:00:00Z</time>
      </trkpt>
      <trkpt lat="47.58399" lon="6.58579">
        <ele>417.77643188556</ele>
        <time>2000-01-01T00:00:00Z</time>
      </trkpt>
      <trkpt lat="47.58411" lon="6.58579">
        <ele>419.52</ele>
        <time>2000-01-01T00:00:00Z</time>
      </trkpt>
      <trkpt lat="47.58421" lon="6.58579">
        <ele>420.92115089132</ele>
        <time>2000-01-01T00:00:00Z</time>
      </trkpt>
      <trkpt lat="47.58429" lon="6.58577">
        <ele>422.03260603894</ele>
        <time>2000-01-01T00:00:00Z</time>
      </trkpt>
      <trkpt lat="47.58437" lon="6.58572">
        <ele>423.22161792287</ele>
        <time>2000-01-01T00:00:00Z</time>
      </trkpt>
      <trkpt lat="47.58459" lon="6.58567">
        <ele>425.69390914723</ele>
        <time>2000-01-01T00:00:00Z</time>
      </trkpt>
      <trkpt lat="47.58464" lon="6.58565">
        <ele>426.22</ele>
        <time>2000-01-01T00:00:00Z</time>
      </trkpt>
      <trkpt lat="47.58479" lon="6.58557">
        <ele>427.85658895918</ele>
        <time>2000-01-01T00:00:00Z</time>
      </trkpt>
      <trkpt lat="47.5849" lon="6.58555">
        <ele>428.92</ele>
        <time>2000-01-01T00:00:00Z</time>
      </trkpt>
      <trkpt lat="47.58508" lon="6.5855">
        <ele>430.41220444741</ele>
        <time>2000-01-01T00:00:00Z</time>
      </trkpt>
      <trkpt lat="47.58516" lon="6.58545">
        <ele>431.10891615075</ele>
        <time>2000-01-01T00:00:00Z</time>
      </trkpt>
      <trkpt lat="47.5854" lon="6.58537">
        <ele>433.39506722893</ele>
        <time>2000-01-01T00:00:00Z</time>
      </trkpt>
      <trkpt lat="47.58542" lon="6.58536">
        <ele>433.58</ele>
        <time>2000-01-01T00:00:00Z</time>
      </trkpt>
      <trkpt lat="47.58548" lon="6.58532">
        <ele>434.36297586023</ele>
        <time>2000-01-01T00:00:00Z</time>
      </trkpt>
      <trkpt lat="47.58558" lon="6.5853">
        <ele>435.54360885503</ele>
        <time>2000-01-01T00:00:00Z</time>
      </trkpt>
      <trkpt lat="47.58568" lon="6.5853">
        <ele>436.7136440412</ele>
        <time>2000-01-01T00:00:00Z</time>
      </trkpt>
      <trkpt lat="47.58595" lon="6.58523">
        <ele>440.06</ele>
        <time>2000-01-01T00:00:00Z</time>
      </trkpt>
      <trkpt lat="47.58621" lon="6.58516">
        <ele>442.3</ele>
        <time>2000-01-01T00:00:00Z</time>
      </trkpt>
      <trkpt lat="47.58625" lon="6.58515">
        <ele>442.46759050643</ele>
        <time>2000-01-01T00:00:00Z</time>
      </trkpt>
      <trkpt lat="47.58635" lon="6.5851">
        <ele>442.952123744</ele>
        <time>2000-01-01T00:00:00Z</time>
      </trkpt>
      <trkpt lat="47.58648" lon="6.58507">
        <ele>443.54</ele>
        <time>2000-01-01T00:00:00Z</time>
      </trkpt>
      <trkpt lat="47.58655" lon="6.58505">
        <ele>443.74212866369</ele>
        <time>2000-01-01T00:00:00Z</time>
      </trkpt>
      <trkpt lat="47.58674" lon="6.58496">
        <ele>444.27</ele>
        <time>2000-01-01T00:00:00Z</time>
      </trkpt>
      <trkpt lat="47.58699" lon="6.58484">
        <ele>444.79</ele>
        <time>2000-01-01T00:00:00Z</time>
      </trkpt>
      <trkpt lat="47.58707" lon="6.5848">
        <ele>444.81708623315</ele>
        <time>2000-01-01T00:00:00Z</time>
      </trkpt>
      <trkpt lat="47.58733" lon="6.5847">
        <ele>444.9065958491</ele>
        <time>2000-01-01T00:00:00Z</time>
      </trkpt>
      <trkpt lat="47.58744" lon="6.58467">
        <ele>444.94386700048</ele>
        <time>2000-01-01T00:00:00Z</time>
      </trkpt>
      <trkpt lat="47.58752" lon="6.58464">
        <ele>444.97</ele>
        <time>2000-01-01T00:00:00Z</time>
      </trkpt>
      <trkpt lat="47.58778" lon="6.58453">
        <ele>444.81</ele>
        <time>2000-01-01T00:00:00Z</time>
      </trkpt>
      <trkpt lat="47.58795" lon="6.58445">
        <ele>444.57668314609</ele>
        <time>2000-01-01T00:00:00Z</time>
      </trkpt>
      <trkpt lat="47.58805" lon="6.58445">
        <ele>444.44894196279</ele>
        <time>2000-01-01T00:00:00Z</time>
      </trkpt>
      <trkpt lat="47.58815" lon="6.5844">
        <ele>444.31413278542</ele>
        <time>2000-01-01T00:00:00Z</time>
      </trkpt>
      <trkpt lat="47.5883" lon="6.58435">
        <ele>444.12</ele>
        <time>2000-01-01T00:00:00Z</time>
      </trkpt>
      <trkpt lat="47.58845" lon="6.5843">
        <ele>443.37144106304</ele>
        <time>2000-01-01T00:00:00Z</time>
      </trkpt>
      <trkpt lat="47.58853" lon="6.58425">
        <ele>442.95355250168</ele>
        <time>2000-01-01T00:00:00Z</time>
      </trkpt>
      <trkpt lat="47.58856" lon="6.58424">
        <ele>442.82</ele>
        <time>2000-01-01T00:00:00Z</time>
      </trkpt>
      <trkpt lat="47.58882" lon="6.58415">
        <ele>440.56</ele>
        <time>2000-01-01T00:00:00Z</time>
      </trkpt>
      <trkpt lat="47.58897" lon="6.5841">
        <ele>439.13765250921</ele>
        <time>2000-01-01T00:00:00Z</time>
      </trkpt>
      <trkpt lat="47.58907" lon="6.58405">
        <ele>438.1607761656</ele>
        <time>2000-01-01T00:00:00Z</time>
      </trkpt>
      <trkpt lat="47.58908" lon="6.58405">
        <ele>438.06</ele>
        <time>2000-01-01T00:00:00Z</time>
      </trkpt>
      <trkpt lat="47.58919" lon="6.58403">
        <ele>437.29927477466</ele>
        <time>2000-01-01T00:00:00Z</time>
      </trkpt>
      <trkpt lat="47.58927" lon="6.58398">
        <ele>436.6981594341</ele>
        <time>2000-01-01T00:00:00Z</time>
      </trkpt>
      <trkpt lat="47.58934" lon="6.58395">
        <ele>436.19</ele>
        <time>2000-01-01T00:00:00Z</time>
      </trkpt>
      <trkpt lat="47.58949" lon="6.5839">
        <ele>435.45859783096</ele>
        <time>2000-01-01T00:00:00Z</time>
      </trkpt>
      <trkpt lat="47.58961" lon="6.58387">
        <ele>434.9</ele>
        <time>2000-01-01T00:00:00Z</time>
      </trkpt>
      <trkpt lat="47.58987" lon="6.58381">
        <ele>434.4</ele>
        <time>2000-01-01T00:00:00Z</time>
      </trkpt>
      <trkpt lat="47.59016" lon="6.58375">
        <ele>434.57213905726</ele>
        <time>2000-01-01T00:00:00Z</time>
      </trkpt>
      <trkpt lat="47.59023" lon="6.58373">
        <ele>434.61437154453</ele>
        <time>2000-01-01T00:00:00Z</time>
      </trkpt>
      <trkpt lat="47.59029" lon="6.58368">
        <ele>434.65514613328</ele>
        <time>2000-01-01T00:00:00Z</time>
      </trkpt>
      <trkpt lat="47.5904" lon="6.58364">
        <ele>434.72</ele>
        <time>2000-01-01T00:00:00Z</time>
      </trkpt>
      <trkpt lat="47.59066" lon="6.58356">
        <ele>435.86</ele>
        <time>2000-01-01T00:00:00Z</time>
      </trkpt>
      <trkpt lat="47.5908" lon="6.58351">
        <ele>436.59689520671</ele>
        <time>2000-01-01T00:00:00Z</time>
      </trkpt>
      <trkpt lat="47.59092" lon="6.58345">
        <ele>437.25</ele>
        <time>2000-01-01T00:00:00Z</time>
      </trkpt>
      <trkpt lat="47.591" lon="6.58341">
        <ele>437.64889746565</ele>
        <time>2000-01-01T00:00:00Z</time>
      </trkpt>
      <trkpt lat="47.59118" lon="6.58335">
        <ele>438.53</ele>
        <time>2000-01-01T00:00:00Z</time>
      </trkpt>
      <trkpt lat="47.59128" lon="6.58331">
        <ele>438.83998293043</ele>
        <time>2000-01-01T00:00:00Z</time>
      </trkpt>
      <trkpt lat="47.59135" lon="6.58326">
        <ele>439.07588915361</ele>
        <time>2000-01-01T00:00:00Z</time>
      </trkpt>
      <trkpt lat="47.59143" lon="6.58326">
        <ele>439.31878253402</ele>
        <time>2000-01-01T00:00:00Z</time>
      </trkpt>
      <trkpt lat="47.59144" lon="6.58326">
        <ele>439.35</ele>
        <time>2000-01-01T00:00:00Z</time>
      </trkpt>
      <trkpt lat="47.5917" lon="6.58315">
        <ele>440.18</ele>
        <time>2000-01-01T00:00:00Z</time>
      </trkpt>
      <trkpt lat="47.59174" lon="6.58313">
        <ele>440.34405711563</ele>
        <time>2000-01-01T00:00:00Z</time>
      </trkpt>
      <trkpt lat="47.59182" lon="6.58313">
        <ele>440.65804124152</ele>
        <time>2000-01-01T00:00:00Z</time>
      </trkpt>
      <trkpt lat="47.59194" lon="6.58303">
        <ele>441.19830052812</ele>
        <time>2000-01-01T00:00:00Z</time>
      </trkpt>
      <trkpt lat="47.59195" lon="6.58303">
        <ele>441.24</ele>
        <time>2000-01-01T00:00:00Z</time>
      </trkpt>
      <trkpt lat="47.59209" lon="6.58301">
        <ele>441.89823871126</ele>
        <time>2000-01-01T00:00:00Z</time>
      </trkpt>
      <trkpt lat="47.59221" lon="6.58292">
        <ele>442.51</ele>
        <time>2000-01-01T00:00:00Z</time>
      </trkpt>
      <trkpt lat="47.59222" lon="6.58291">
        <ele>442.60931483497</ele>
        <time>2000-01-01T00:00:00Z</time>
      </trkpt>
      <trkpt lat="47.59242" lon="6.58286">
        <ele>443.84092204631</ele>
        <time>2000-01-01T00:00:00Z</time>
      </trkpt>
      <trkpt lat="47.59247" lon="6.58283">
        <ele>444.15</ele>
        <time>2000-01-01T00:00:00Z</time>
      </trkpt>
      <trkpt lat="47.59252" lon="6.58279">
        <ele>444.47485098271</ele>
        <time>2000-01-01T00:00:00Z</time>
      </trkpt>
      <trkpt lat="47.59269" lon="6.58276">
        <ele>445.40667119682</ele>
        <time>2000-01-01T00:00:00Z</time>
      </trkpt>
      <trkpt lat="47.59273" lon="6.58274">
        <ele>445.62</ele>
        <time>2000-01-01T00:00:00Z</time>
      </trkpt>
      <trkpt lat="47.59291" lon="6.58264">
        <ele>446.94999686363</ele>
        <time>2000-01-01T00:00:00Z</time>
      </trkpt>
      <trkpt lat="47.59298" lon="6.58259">
        <ele>447.46</ele>
        <time>2000-01-01T00:00:00Z</time>
      </trkpt>
      <trkpt lat="47.59304" lon="6.58254">
        <ele>447.84436920306</ele>
        <time>2000-01-01T00:00:00Z</time>
      </trkpt>
      <trkpt lat="47.59311" lon="6.58251">
        <ele>448.23556974063</ele>
        <time>2000-01-01T00:00:00Z</time>
      </trkpt>
      <trkpt lat="47.59322" lon="6.58243">
        <ele>448.91</ele>
        <time>2000-01-01T00:00:00Z</time>
      </trkpt>
      <trkpt lat="47.59341" lon="6.58229">
        <ele>448.79388718712</ele>
        <time>2000-01-01T00:00:00Z</time>
      </trkpt>
      <trkpt lat="47.59346" lon="6.58224">
        <ele>448.76</ele>
        <time>2000-01-01T00:00:00Z</time>
      </trkpt>
      <trkpt lat="47.59355" lon="6.58216">
        <ele>448.29329532598</ele>
        <time>2000-01-01T00:00:00Z</time>
      </trkpt>
      <trkpt lat="47.5936" lon="6.58209">
        <ele>447.98521867314</ele>
        <time>2000-01-01T00:00:00Z</time>
      </trkpt>
      <trkpt lat="47.59366" lon="6.58204">
        <ele>447.67686561201</ele>
        <time>2000-01-01T00:00:00Z</time>
      </trkpt>
      <trkpt lat="47.59368" lon="6.58201">
        <ele>447.55</ele>
        <time>2000-01-01T00:00:00Z</time>
      </trkpt>
      <trkpt lat="47.59375" lon="6.58191">
        <ele>447.1788279549</ele>
        <time>2000-01-01T00:00:00Z</time>
      </trkpt>
      <trkpt lat="47.59381" lon="6.58189">
        <ele>446.94429436802</ele>
        <time>2000-01-01T00:00:00Z</time>
      </trkpt>
      <trkpt lat="47.59391" lon="6.5818">
        <ele>446.52</ele>
        <time>2000-01-01T00:00:00Z</time>
      </trkpt>
      <trkpt lat="47.59405" lon="6.58167">
        <ele>445.58980564222</ele>
        <time>2000-01-01T00:00:00Z</time>
      </trkpt>
      <trkpt lat="47.59408" lon="6.58162">
        <ele>445.34415314141</ele>
        <time>2000-01-01T00:00:00Z</time>
      </trkpt>
      <trkpt lat="47.59413" lon="6.58158">
        <ele>445.05</ele>
        <time>2000-01-01T00:00:00Z</time>
      </trkpt>
      <trkpt lat="47.5942" lon="6.58152">
        <ele>444.40300055768</ele>
        <time>2000-01-01T00:00:00Z</time>
      </trkpt>
      <trkpt lat="47.59437" lon="6.58141">
        <ele>442.96</ele>
        <time>2000-01-01T00:00:00Z</time>
      </trkpt>
      <trkpt lat="47.59452" lon="6.58132">
        <ele>440.92387457517</ele>
        <time>2000-01-01T00:00:00Z</time>
      </trkpt>
      <trkpt lat="47.59461" lon="6.58123">
        <ele>439.54</ele>
        <time>2000-01-01T00:00:00Z</time>
      </trkpt>
      <trkpt lat="47.59465" lon="6.58119">
        <ele>438.68851384027</ele>
        <time>2000-01-01T00:00:00Z</time>
      </trkpt>
      <trkpt lat="47.59486" lon="6.5811">
        <ele>434.7</ele>
        <time>2000-01-01T00:00:00Z</time>
      </trkpt>
      <trkpt lat="47.59489" lon="6.58109">
        <ele>434.36843236073</ele>
        <time>2000-01-01T00:00:00Z</time>
      </trkpt>
      <trkpt lat="47.59496" lon="6.58104">
        <ele>433.40468165345</ele>
        <time>2000-01-01T00:00:00Z</time>
      </trkpt>
      <trkpt lat="47.59504" lon="6.58102">
        <ele>432.39836986865</ele>
        <time>2000-01-01T00:00:00Z</time>
      </trkpt>
      <trkpt lat="47.59512" lon="6.58097">
        <ele>431.35</ele>
        <time>2000-01-01T00:00:00Z</time>
      </trkpt>
      <trkpt lat="47.59531" lon="6.58085">
        <ele>431.14898050707</ele>
        <time>2000-01-01T00:00:00Z</time>
      </trkpt>
      <trkpt lat="47.59537" lon="6.58082">
        <ele>431.09</ele>
        <time>2000-01-01T00:00:00Z</time>
      </trkpt>
      <trkpt lat="47.59542" lon="6.5808">
        <ele>431.51219278599</ele>
        <time>2000-01-01T00:00:00Z</time>
      </trkpt>
      <trkpt lat="47.59549" lon="6.58072">
        <ele>432.20591659536</ele>
        <time>2000-01-01T00:00:00Z</time>
      </trkpt>
      <trkpt lat="47.59554" lon="6.58072">
        <ele>432.59839675274</ele>
        <time>2000-01-01T00:00:00Z</time>
      </trkpt>
      <trkpt lat="47.59559" lon="6.5807">
        <ele>433.00490498082</ele>
        <time>2000-01-01T00:00:00Z</time>
      </trkpt>
      <trkpt lat="47.59561" lon="6.58068">
        <ele>433.21</ele>
        <time>2000-01-01T00:00:00Z</time>
      </trkpt>
      <trkpt lat="47.59569" lon="6.5806">
        <ele>434.65486178292</ele>
        <time>2000-01-01T00:00:00Z</time>
      </trkpt>
      <trkpt lat="47.59585" lon="6.58048">
        <ele>437.34</ele>
        <time>2000-01-01T00:00:00Z</time>
      </trkpt>
      <trkpt lat="47.59586" lon="6.58047">
        <ele>437.61521123823</ele>
        <time>2000-01-01T00:00:00Z</time>
      </trkpt>
      <trkpt lat="47.59596" lon="6.58035">
        <ele>439.87292610863</ele>
        <time>2000-01-01T00:00:00Z</time>
      </trkpt>
      <trkpt lat="47.59606" lon="6.58025">
        <ele>442.08</ele>
        <time>2000-01-01T00:00:00Z</time>
      </trkpt>
      <trkpt lat="47.59611" lon="6.5802">
        <ele>442.92356744384</ele>
        <time>2000-01-01T00:00:00Z</time>
      </trkpt>
      <trkpt lat="47.5963" lon="6.58004">
        <ele>446.21</ele>
        <time>2000-01-01T00:00:00Z</time>
      </trkpt>
      <trkpt lat="47.59635" lon="6.58">
        <ele>446.76674015711</ele>
        <time>2000-01-01T00:00:00Z</time>
      </trkpt>
      <trkpt lat="47.59641" lon="6.57988">
        <ele>447.69551177865</ele>
        <time>2000-01-01T00:00:00Z</time>
      </trkpt>
      <trkpt lat="47.5965" lon="6.57979">
        <ele>448.7</ele>
        <time>2000-01-01T00:00:00Z</time>
      </trkpt>
      <trkpt lat="47.59653" lon="6.57975">
        <ele>448.79324599348</ele>
        <time>2000-01-01T00:00:00Z</time>
      </trkpt>
      <trkpt lat="47.59656" lon="6.57968">
        <ele>448.9247490677</ele>
        <time>2000-01-01T00:00:00Z</time>
      </trkpt>
      <trkpt lat="47.59668" lon="6.57953">
        <ele>449.29375453882</ele>
        <time>2000-01-01T00:00:00Z</time>
      </trkpt>
      <trkpt lat="47.59668" lon="6.57948">
        <ele>449.37302982611</ele>
        <time>2000-01-01T00:00:00Z</time>
      </trkpt>
      <trkpt lat="47.59684" lon="6.57919">
        <ele>449.97</ele>
        <time>2000-01-01T00:00:00Z</time>
      </trkpt>
      <trkpt lat="47.59685" lon="6.57918">
        <ele>450.00600445955</ele>
        <time>2000-01-01T00:00:00Z</time>
      </trkpt>
      <trkpt lat="47.59685" lon="6.57908">
        <ele>450.24070848457</ele>
        <time>2000-01-01T00:00:00Z</time>
      </trkpt>
      <trkpt lat="47.59688" lon="6.57901">
        <ele>450.43537360471</ele>
        <time>2000-01-01T00:00:00Z</time>
      </trkpt>
      <trkpt lat="47.59692" lon="6.57881">
        <ele>450.91</ele>
        <time>2000-01-01T00:00:00Z</time>
      </trkpt>
      <trkpt lat="47.59693" lon="6.57873">
        <ele>450.85760969894</ele>
        <time>2000-01-01T00:00:00Z</time>
      </trkpt>
      <trkpt lat="47.59697" lon="6.57866">
        <ele>450.80262764557</ele>
        <time>2000-01-01T00:00:00Z</time>
      </trkpt>
      <trkpt lat="47.59701" lon="6.57845">
        <ele>450.67</ele>
        <time>2000-01-01T00:00:00Z</time>
      </trkpt>
      <trkpt lat="47.59703" lon="6.57831">
        <ele>450.09053318826</ele>
        <time>2000-01-01T00:00:00Z</time>
      </trkpt>
      <trkpt lat="47.5971" lon="6.57816">
        <ele>449.33446429888</ele>
        <time>2000-01-01T00:00:00Z</time>
      </trkpt>
      <trkpt lat="47.59711" lon="6.57808">
        <ele>449.01</ele>
        <time>2000-01-01T00:00:00Z</time>
      </trkpt>
      <trkpt lat="47.59713" lon="6.57786">
        <ele>447.43700886196</ele>
        <time>2000-01-01T00:00:00Z</time>
      </trkpt>
      <trkpt lat="47.59717" lon="6.57781">
        <ele>446.89464089774</ele>
        <time>2000-01-01T00:00:00Z</time>
      </trkpt>
      <trkpt lat="47.59717" lon="6.57771">
        <ele>446.20426241039</ele>
        <time>2000-01-01T00:00:00Z</time>
      </trkpt>
      <trkpt lat="47.59725" lon="6.57754">
        <ele>445.62972718092</ele>
        <time>2000-01-01T00:00:00Z</time>
      </trkpt>
      <trkpt lat="47.59727" lon="6.57734">
        <ele>445.06936890236</ele>
        <time>2000-01-01T00:00:00Z</time>
      </trkpt>
      <trkpt lat="47.59737" lon="6.57694">
        <ele>443.88704413877</ele>
        <time>2000-01-01T00:00:00Z</time>
      </trkpt>
      <trkpt lat="47.59739" lon="6.57672">
        <ele>443.27180345534</ele>
        <time>2000-01-01T00:00:00Z</time>
      </trkpt>
      <trkpt lat="47.59745" lon="6.57683">
        <ele>442.88</ele>
        <time>2000-01-01T00:00:00Z</time>
      </trkpt>
      <trkpt lat="47.59762" lon="6.57714">
        <ele>439.56</ele>
        <time>2000-01-01T00:00:00Z</time>
      </trkpt>
      <trkpt lat="47.59779" lon="6.57745">
        <ele>436.52</ele>
        <time>2000-01-01T00:00:00Z</time>
      </trkpt>
      <trkpt lat="47.59785" lon="6.57755">
        <ele>435.4359904629</ele>
        <time>2000-01-01T00:00:00Z</time>
      </trkpt>
      <trkpt lat="47.59794" lon="6.57778">
        <ele>433.23</ele>
        <time>2000-01-01T00:00:00Z</time>
      </trkpt>
      <trkpt lat="47.59796" lon="6.57784">
        <ele>432.82136573623</ele>
        <time>2000-01-01T00:00:00Z</time>
      </trkpt>
      <trkpt lat="47.59803" lon="6.57806">
        <ele>431.27256415803</ele>
        <time>2000-01-01T00:00:00Z</time>
      </trkpt>
      <trkpt lat="47.59803" lon="6.57815">
        <ele>430.68</ele>
        <time>2000-01-01T00:00:00Z</time>
      </trkpt>
      <trkpt lat="47.59803" lon="6.5784">
        <ele>429.82918555577</ele>
        <time>2000-01-01T00:00:00Z</time>
      </trkpt>
      <trkpt lat="47.59798" lon="6.57853">
        <ele>429.3</ele>
        <time>2000-01-01T00:00:00Z</time>
      </trkpt>
      <trkpt lat="47.59786" lon="6.5788">
        <ele>428.76198408226</ele>
        <time>2000-01-01T00:00:00Z</time>
      </trkpt>
      <trkpt lat="47.59782" lon="6.57898">
        <ele>428.44257432663</ele>
        <time>2000-01-01T00:00:00Z</time>
      </trkpt>
      <trkpt lat="47.5978" lon="6.5792">
        <ele>428.06844449841</ele>
        <time>2000-01-01T00:00:00Z</time>
      </trkpt>
      <trkpt lat="47.5978" lon="6.57927">
        <ele>427.95</ele>
        <time>2000-01-01T00:00:00Z</time>
      </trkpt>
      <trkpt lat="47.5978" lon="6.57967">
        <ele>425.27529169373</ele>
        <time>2000-01-01T00:00:00Z</time>
      </trkpt>
      <trkpt lat="47.59785" lon="6.57996">
        <ele>424.6587788413</ele>
        <time>2000-01-01T00:00:00Z</time>
      </trkpt>
      <trkpt lat="47.59802" lon="6.58039">
        <ele>423.63</ele>
        <time>2000-01-01T00:00:00Z</time>
      </trkpt>
      <trkpt lat="47.59803" lon="6.58041">
        <ele>423.64888933282</ele>
        <time>2000-01-01T00:00:00Z</time>
      </trkpt>
      <trkpt lat="47.59813" lon="6.58079">
        <ele>424.02063093272</ele>
        <time>2000-01-01T00:00:00Z</time>
      </trkpt>
      <trkpt lat="47.5982" lon="6.58116">
        <ele>424.42534747415</ele>
        <time>2000-01-01T00:00:00Z</time>
      </trkpt>
      <trkpt lat="47.59825" lon="6.5815">
        <ele>426.33683890599</ele>
        <time>2000-01-01T00:00:00Z</time>
      </trkpt>
      <trkpt lat="47.59825" lon="6.58154">
        <ele>426.56</ele>
        <time>2000-01-01T00:00:00Z</time>
      </trkpt>
      <trkpt lat="47.59827" lon="6.58173">
        <ele>427.35278025984</ele>
        <time>2000-01-01T00:00:00Z</time>
      </trkpt>
      <trkpt lat="47.59828" lon="6.58194">
        <ele>428.22</ele>
        <time>2000-01-01T00:00:00Z</time>
      </trkpt>
      <trkpt lat="47.59828" lon="6.58208">
        <ele>428.88924972319</ele>
        <time>2000-01-01T00:00:00Z</time>
      </trkpt>
      <trkpt lat="47.5983" lon="6.58234">
        <ele>430.12</ele>
        <time>2000-01-01T00:00:00Z</time>
      </trkpt>
      <trkpt lat="47.59834" lon="6.58271">
        <ele>430.60922637318</ele>
        <time>2000-01-01T00:00:00Z</time>
      </trkpt>
      <trkpt lat="47.59835" lon="6.58273">
        <ele>430.64</ele>
        <time>2000-01-01T00:00:00Z</time>
      </trkpt>
      <trkpt lat="47.59842" lon="6.58309">
        <ele>429.60241649165</ele>
        <time>2000-01-01T00:00:00Z</time>
      </trkpt>
      <trkpt lat="47.59843" lon="6.58311">
        <ele>429.53</ele>
        <time>2000-01-01T00:00:00Z</time>
      </trkpt>
      <trkpt lat="47.59853" lon="6.58342">
        <ele>429.46596008236</ele>
        <time>2000-01-01T00:00:00Z</time>
      </trkpt>
      <trkpt lat="47.59864" lon="6.58385">
        <ele>429.38085443434</ele>
        <time>2000-01-01T00:00:00Z</time>
      </trkpt>
      <trkpt lat="47.59871" lon="6.58423">
        <ele>429.78</ele>
        <time>2000-01-01T00:00:00Z</time>
      </trkpt>
      <trkpt lat="47.59873" lon="6.58432">
        <ele>429.96205088962</ele>
        <time>2000-01-01T00:00:00Z</time>
      </trkpt>
      <trkpt lat="47.59873" lon="6.58463">
        <ele>430.6</ele>
        <time>2000-01-01T00:00:00Z</time>
      </trkpt>
      <trkpt lat="47.59873" lon="6.58484">
        <ele>430.93301076531</ele>
        <time>2000-01-01T00:00:00Z</time>
      </trkpt>
      <trkpt lat="47.59866" lon="6.585">
        <ele>431.24</ele>
        <time>2000-01-01T00:00:00Z</time>
      </trkpt>
      <trkpt lat="47.59855" lon="6.58525">
        <ele>430.34607782901</ele>
        <time>2000-01-01T00:00:00Z</time>
      </trkpt>
      <trkpt lat="47.59844" lon="6.58541">
        <ele>429.65862250163</ele>
        <time>2000-01-01T00:00:00Z</time>
      </trkpt>
      <trkpt lat="47.59834" lon="6.58551">
        <ele>429.12049231868</ele>
        <time>2000-01-01T00:00:00Z</time>
      </trkpt>
      <trkpt lat="47.59829" lon="6.58557">
        <ele>428.83</ele>
        <time>2000-01-01T00:00:00Z</time>
      </trkpt>
      <trkpt lat="47.59823" lon="6.58565">
        <ele>426.99105898378</ele>
        <time>2000-01-01T00:00:00Z</time>
      </trkpt>
      <trkpt lat="47.5982" lon="6.58571">
        <ele>425.83105320895</ele>
        <time>2000-01-01T00:00:00Z</time>
      </trkpt>
      <trkpt lat="47.59809" lon="6.58585">
        <ele>422.44452290261</ele>
        <time>2000-01-01T00:00:00Z</time>
      </trkpt>
      <trkpt lat="47.59786" lon="6.58604">
        <ele>413.84</ele>
        <time>2000-01-01T00:00:00Z</time>
      </trkpt>
      <trkpt lat="47.59785" lon="6.58605">
        <ele>413.44771464311</ele>
        <time>2000-01-01T00:00:00Z</time>
      </trkpt>
      <trkpt lat="47.5978" lon="6.58608">
        <ele>411.39668112677</ele>
        <time>2000-01-01T00:00:00Z</time>
      </trkpt>
      <trkpt lat="47.5977" lon="6.58617">
        <ele>406.94855604782</ele>
        <time>2000-01-01T00:00:00Z</time>
      </trkpt>
      <trkpt lat="47.59762" lon="6.58623">
        <ele>403.57</ele>
        <time>2000-01-01T00:00:00Z</time>
      </trkpt>
      <trkpt lat="47.5975" lon="6.58631">
        <ele>398.80806988931</ele>
        <time>2000-01-01T00:00:00Z</time>
      </trkpt>
      <trkpt lat="47.59737" lon="6.58639">
        <ele>393.85</ele>
        <time>2000-01-01T00:00:00Z</time>
      </trkpt>
      <trkpt lat="47.59712" lon="6.58654">
        <ele>385.18</ele>
        <time>2000-01-01T00:00:00Z</time>
      </trkpt>
      <trkpt lat="47.59687" lon="6.58669">
        <ele>377.39</ele>
        <time>2000-01-01T00:00:00Z</time>
      </trkpt>
      <trkpt lat="47.59681" lon="6.58673">
        <ele>375.41758814921</ele>
        <time>2000-01-01T00:00:00Z</time>
      </trkpt>
      <trkpt lat="47.59661" lon="6.58681">
        <ele>369.40638693812</ele>
        <time>2000-01-01T00:00:00Z</time>
      </trkpt>
      <trkpt lat="47.59648" lon="6.58688">
        <ele>365.44790297218</ele>
        <time>2000-01-01T00:00:00Z</time>
      </trkpt>
      <trkpt lat="47.59636" lon="6.58693">
        <ele>361.82</ele>
        <time>2000-01-01T00:00:00Z</time>
      </trkpt>
      <trkpt lat="47.59633" lon="6.58694">
        <ele>361.15376832357</ele>
        <time>2000-01-01T00:00:00Z</time>
      </trkpt>
      <trkpt lat="47.59609" lon="6.58694">
        <ele>355.53</ele>
        <time>2000-01-01T00:00:00Z</time>
      </trkpt>
      <trkpt lat="47.59605" lon="6.58694">
        <ele>354.93653762909</ele>
        <time>2000-01-01T00:00:00Z</time>
      </trkpt>
      <trkpt lat="47.59596" lon="6.587">
        <ele>353.41661934894</ele>
        <time>2000-01-01T00:00:00Z</time>
      </trkpt>
      <trkpt lat="47.59588" lon="6.58716">
        <ele>351.37</ele>
        <time>2000-01-01T00:00:00Z</time>
      </trkpt>
      <trkpt lat="47.59587" lon="6.58717">
        <ele>351.26082164223</ele>
        <time>2000-01-01T00:00:00Z</time>
      </trkpt>
      <trkpt lat="47.59581" lon="6.58754">
        <ele>349.08</ele>
        <time>2000-01-01T00:00:00Z</time>
      </trkpt>
      <trkpt lat="47.59574" lon="6.58791">
        <ele>349.01300642958</ele>
        <time>2000-01-01T00:00:00Z</time>
      </trkpt>
      <trkpt lat="47.59568" lon="6.58813">
        <ele>348.97152848588</ele>
        <time>2000-01-01T00:00:00Z</time>
      </trkpt>
      <trkpt lat="47.59561" lon="6.58828">
        <ele>348.94</ele>
        <time>2000-01-01T00:00:00Z</time>
      </trkpt>
      <trkpt lat="47.59558" lon="6.58834">
        <ele>349.07979221753</ele>
        <time>2000-01-01T00:00:00Z</time>
      </trkpt>
      <trkpt lat="47.59549" lon="6.58844">
        <ele>349.38376800151</ele>
        <time>2000-01-01T00:00:00Z</time>
      </trkpt>
      <trkpt lat="47.59539" lon="6.58849">
        <ele>349.67</ele>
        <time>2000-01-01T00:00:00Z</time>
      </trkpt>
      <trkpt lat="47.59534" lon="6.58852">
        <ele>349.82652060985</ele>
        <time>2000-01-01T00:00:00Z</time>
      </trkpt>
      <trkpt lat="47.59512" lon="6.58852">
        <ele>350.46</ele>
        <time>2000-01-01T00:00:00Z</time>
      </trkpt>
      <trkpt lat="47.59496" lon="6.58852">
        <ele>351.14985012888</ele>
        <time>2000-01-01T00:00:00Z</time>
      </trkpt>
      <trkpt lat="47.59486" lon="6.58859">
        <ele>351.6</ele>
        <time>2000-01-01T00:00:00Z</time>
      </trkpt>
      <trkpt lat="47.59484" lon="6.5886">
        <ele>351.70705259125</ele>
        <time>2000-01-01T00:00:00Z</time>
      </trkpt>
      <trkpt lat="47.59476" lon="6.58867">
        <ele>352.10601758336</ele>
        <time>2000-01-01T00:00:00Z</time>
      </trkpt>
      <trkpt lat="47.59469" lon="6.58882">
        <ele>352.63437085607</ele>
        <time>2000-01-01T00:00:00Z</time>
      </trkpt>
      <trkpt lat="47.59469" lon="6.58886">
        <ele>352.76</ele>
        <time>2000-01-01T00:00:00Z</time>
      </trkpt>
      <trkpt lat="47.59468" lon="6.58901">
        <ele>353.15696812002</ele>
        <time>2000-01-01T00:00:00Z</time>
      </trkpt>
      <trkpt lat="47.59478" lon="6.5892">
        <ele>353.80691900379</ele>
        <time>2000-01-01T00:00:00Z</time>
      </trkpt>
      <trkpt lat="47.59486" lon="6.58932">
        <ele>354.18772531005</ele>
        <time>2000-01-01T00:00:00Z</time>
      </trkpt>
      <trkpt lat="47.59499" lon="6.58947">
        <ele>354.73</ele>
        <time>2000-01-01T00:00:00Z</time>
      </trkpt>
      <trkpt lat="47.59526" lon="6.58979">
        <ele>355.62624626286</ele>
        <time>2000-01-01T00:00:00Z</time>
      </trkpt>
      <trkpt lat="47.59528" lon="6.58984">
        <ele>355.72785587131</ele>
        <time>2000-01-01T00:00:00Z</time>
      </trkpt>
      <trkpt lat="47.59534" lon="6.5899">
        <ele>355.91542336975</ele>
        <time>2000-01-01T00:00:00Z</time>
      </trkpt>
      <trkpt lat="47.59538" lon="6.59">
        <ele>356.13</ele>
        <time>2000-01-01T00:00:00Z</time>
      </trkpt>
      <trkpt lat="47.59539" lon="6.59002">
        <ele>356.25422989634</ele>
        <time>2000-01-01T00:00:00Z</time>
      </trkpt>
      <trkpt lat="47.5954" lon="6.59012">
        <ele>356.94081893926</ele>
        <time>2000-01-01T00:00:00Z</time>
      </trkpt>
      <trkpt lat="47.59534" lon="6.59017">
        <ele>357.63397070168</ele>
        <time>2000-01-01T00:00:00Z</time>
      </trkpt>
      <trkpt lat="47.59528" lon="6.59019">
        <ele>358.25332066201</ele>
        <time>2000-01-01T00:00:00Z</time>
      </trkpt>
      <trkpt lat="47.59522" lon="6.59019">
        <ele>358.85</ele>
        <time>2000-01-01T00:00:00Z</time>
      </trkpt>
      <trkpt lat="47.59498" lon="6.59019">
        <ele>362.95055727501</ele>
        <time>2000-01-01T00:00:00Z</time>
      </trkpt>
      <trkpt lat="47.59495" lon="6.59021">
        <ele>363.45</ele>
        <time>2000-01-01T00:00:00Z</time>
      </trkpt>
      <trkpt lat="47.59487" lon="6.59026">
        <ele>365.04621554946</ele>
        <time>2000-01-01T00:00:00Z</time>
      </trkpt>
      <trkpt lat="47.59482" lon="6.59035">
        <ele>366.4350585501</ele>
        <time>2000-01-01T00:00:00Z</time>
      </trkpt>
      <trkpt lat="47.59481" lon="6.5905">
        <ele>368.22</ele>
        <time>2000-01-01T00:00:00Z</time>
      </trkpt>
      <trkpt lat="47.59481" lon="6.59058">
        <ele>369.03119440346</ele>
        <time>2000-01-01T00:00:00Z</time>
      </trkpt>
      <trkpt lat="47.59488" lon="6.5908">
        <ele>371.47902879587</ele>
        <time>2000-01-01T00:00:00Z</time>
      </trkpt>
      <trkpt lat="47.59488" lon="6.59088">
        <ele>372.25</ele>
        <time>2000-01-01T00:00:00Z</time>
      </trkpt>
      <trkpt lat="47.59488" lon="6.59104">
        <ele>374.48153512453</ele>
        <time>2000-01-01T00:00:00Z</time>
      </trkpt>
      <trkpt lat="47.59479" lon="6.59113">
        <ele>376.68010039867</ele>
        <time>2000-01-01T00:00:00Z</time>
      </trkpt>
      <trkpt lat="47.59474" lon="6.59115">
        <ele>377.72</ele>
        <time>2000-01-01T00:00:00Z</time>
      </trkpt>
      <trkpt lat="47.59465" lon="6.59118">
        <ele>379.46286185918</ele>
        <time>2000-01-01T00:00:00Z</time>
      </trkpt>
      <trkpt lat="47.59448" lon="6.59127">
        <ele>382.8</ele>
        <time>2000-01-01T00:00:00Z</time>
      </trkpt>
      <trkpt lat="47.59445" lon="6.59129">
        <ele>383.03170338854</ele>
        <time>2000-01-01T00:00:00Z</time>
      </trkpt>
      <trkpt lat="47.59436" lon="6.5913">
        <ele>383.61427667168</ele>
        <time>2000-01-01T00:00:00Z</time>
      </trkpt>
      <trkpt lat="47.59433" lon="6.59132">
        <ele>383.82659544854</ele>
        <time>2000-01-01T00:00:00Z</time>
      </trkpt>
      <trkpt lat="47.5943" lon="6.59144">
        <ele>384.38370091935</ele>
        <time>2000-01-01T00:00:00Z</time>
      </trkpt>
      <trkpt lat="47.59407" lon="6.59131">
        <ele>385.97253271595</ele>
        <time>2000-01-01T00:00:00Z</time>
      </trkpt>
      <trkpt lat="47.59376" lon="6.59119">
        <ele>388.03</ele>
        <time>2000-01-01T00:00:00Z</time>
      </trkpt>
      <trkpt lat="47.5937" lon="6.59116">
        <ele>389.45117994453</ele>
        <time>2000-01-01T00:00:00Z</time>
      </trkpt>
      <trkpt lat="47.5935" lon="6.5911">
        <ele>393.95</ele>
        <time>2000-01-01T00:00:00Z</time>
      </trkpt>
      <trkpt lat="47.59329" lon="6.59103">
        <ele>396.66815739153</ele>
        <time>2000-01-01T00:00:00Z</time>
      </trkpt>
      <trkpt lat="47.59324" lon="6.59099">
        <ele>397.38</ele>
        <time>2000-01-01T00:00:00Z</time>
      </trkpt>
      <trkpt lat="47.593" lon="6.59082">
        <ele>398.05</ele>
        <time>2000-01-01T00:00:00Z</time>
      </trkpt>
      <trkpt lat="47.59283" lon="6.5907">
        <ele>397.50236612841</ele>
        <time>2000-01-01T00:00:00Z</time>
      </trkpt>
      <trkpt lat="47.59275" lon="6.59064">
        <ele>397.25</ele>
        <time>2000-01-01T00:00:00Z</time>
      </trkpt>
      <trkpt lat="47.59251" lon="6.59046">
        <ele>397.1</ele>
        <time>2000-01-01T00:00:00Z</time>
      </trkpt>
      <trkpt lat="47.59227" lon="6.59029">
        <ele>398.41</ele>
        <time>2000-01-01T00:00:00Z</time>
      </trkpt>
      <trkpt lat="47.59203" lon="6.59011">
        <ele>400.72</ele>
        <time>2000-01-01T00:00:00Z</time>
      </trkpt>
      <trkpt lat="47.59179" lon="6.58993">
        <ele>403.61</ele>
        <time>2000-01-01T00:00:00Z</time>
      </trkpt>
      <trkpt lat="47.59155" lon="6.58975">
        <ele>406.65</ele>
        <time>2000-01-01T00:00:00Z</time>
      </trkpt>
      <trkpt lat="47.5914" lon="6.58964">
        <ele>408.740073941</ele>
        <time>2000-01-01T00:00:00Z</time>
      </trkpt>
      <trkpt lat="47.5913" lon="6.58958">
        <ele>410.11</ele>
        <time>2000-01-01T00:00:00Z</time>
      </trkpt>
      <trkpt lat="47.59056" lon="6.58911">
        <ele>413.8</ele>
        <time>2000-01-01T00:00:00Z</time>
      </trkpt>
      <trkpt lat="47.59031" lon="6.58895">
        <ele>418.98</ele>
        <time>2000-01-01T00:00:00Z</time>
      </trkpt>
      <trkpt lat="47.59006" lon="6.58879">
        <ele>425.92</ele>
        <time>2000-01-01T00:00:00Z</time>
      </trkpt>
      <trkpt lat="47.58998" lon="6.58874">
        <ele>428.0066513942</ele>
        <time>2000-01-01T00:00:00Z</time>
      </trkpt>
      <trkpt lat="47.58984" lon="6.58872">
        <ele>431.38124380649</ele>
        <time>2000-01-01T00:00:00Z</time>
      </trkpt>
      <trkpt lat="47.58982" lon="6.58877">
        <ele>432.4</ele>
        <time>2000-01-01T00:00:00Z</time>
      </trkpt>
      <trkpt lat="47.58979" lon="6.58884">
        <ele>432.84757634432</ele>
        <time>2000-01-01T00:00:00Z</time>
      </trkpt>
      <trkpt lat="47.5898" lon="6.58907">
        <ele>434.16845320705</ele>
        <time>2000-01-01T00:00:00Z</time>
      </trkpt>
      <trkpt lat="47.58984" lon="6.58928">
        <ele>435.41904993676</ele>
        <time>2000-01-01T00:00:00Z</time>
      </trkpt>
      <trkpt lat="47.58984" lon="6.58955">
        <ele>436.99</ele>
        <time>2000-01-01T00:00:00Z</time>
      </trkpt>
      <trkpt lat="47.58984" lon="6.58967">
        <ele>438.28069116998</ele>
        <time>2000-01-01T00:00:00Z</time>
      </trkpt>
      <trkpt lat="47.58976" lon="6.58993">
        <ele>441.45</ele>
        <time>2000-01-01T00:00:00Z</time>
      </trkpt>
      <trkpt lat="47.58974" lon="6.59001">
        <ele>442.13148581363</ele>
        <time>2000-01-01T00:00:00Z</time>
      </trkpt>
      <trkpt lat="47.58956" lon="6.59018">
        <ele>444.61</ele>
        <time>2000-01-01T00:00:00Z</time>
      </trkpt>
      <trkpt lat="47.58955" lon="6.59019">
        <ele>444.69484347556</ele>
        <time>2000-01-01T00:00:00Z</time>
      </trkpt>
      <trkpt lat="47.5893" lon="6.59026">
        <ele>446.29</ele>
        <time>2000-01-01T00:00:00Z</time>
      </trkpt>
      <trkpt lat="47.58928" lon="6.59026">
        <ele>446.36845994407</ele>
        <time>2000-01-01T00:00:00Z</time>
      </trkpt>
      <trkpt lat="47.58904" lon="6.59015">
        <ele>447.49</ele>
        <time>2000-01-01T00:00:00Z</time>
      </trkpt>
      <trkpt lat="47.58892" lon="6.5901">
        <ele>447.54254702807</ele>
        <time>2000-01-01T00:00:00Z</time>
      </trkpt>
      <trkpt lat="47.58852" lon="6.58993">
        <ele>447.72</ele>
        <time>2000-01-01T00:00:00Z</time>
      </trkpt>
      <trkpt lat="47.58849" lon="6.58992">
        <ele>447.61092189277</ele>
        <time>2000-01-01T00:00:00Z</time>
      </trkpt>
      <trkpt lat="47.58827" lon="6.58978">
        <ele>446.74</ele>
        <time>2000-01-01T00:00:00Z</time>
      </trkpt>
      <trkpt lat="47.58818" lon="6.58973">
        <ele>446.58983622588</ele>
        <time>2000-01-01T00:00:00Z</time>
      </trkpt>
      <trkpt lat="47.5879" lon="6.58962">
        <ele>446.13401705169</ele>
        <time>2000-01-01T00:00:00Z</time>
      </trkpt>
      <trkpt lat="47.58777" lon="6.58954">
        <ele>445.91252529117</ele>
        <time>2000-01-01T00:00:00Z</time>
      </trkpt>
      <trkpt lat="47.58776" lon="6.58956">
        <ele>445.89</ele>
        <time>2000-01-01T00:00:00Z</time>
      </trkpt>
      <trkpt lat="47.58745" lon="6.59021">
        <ele>445.57</ele>
        <time>2000-01-01T00:00:00Z</time>
      </trkpt>
      <trkpt lat="47.58714" lon="6.59087">
        <ele>445.59</ele>
        <time>2000-01-01T00:00:00Z</time>
      </trkpt>
      <trkpt lat="47.58698" lon="6.59119">
        <ele>446.14</ele>
        <time>2000-01-01T00:00:00Z</time>
      </trkpt>
      <trkpt lat="47.58683" lon="6.59152">
        <ele>446.31</ele>
        <time>2000-01-01T00:00:00Z</time>
      </trkpt>
      <trkpt lat="47.58667" lon="6.59185">
        <ele>445.95</ele>
        <time>2000-01-01T00:00:00Z</time>
      </trkpt>
      <trkpt lat="47.58652" lon="6.59218">
        <ele>445.47</ele>
        <time>2000-01-01T00:00:00Z</time>
      </trkpt>
      <trkpt lat="47.58651" lon="6.59219">
        <ele>445.46053639332</ele>
        <time>2000-01-01T00:00:00Z</time>
      </trkpt>
      <trkpt lat="47.5869" lon="6.5924">
        <ele>445.13022874894</ele>
        <time>2000-01-01T00:00:00Z</time>
      </trkpt>
      <trkpt lat="47.587" lon="6.59247">
        <ele>445.04</ele>
        <time>2000-01-01T00:00:00Z</time>
      </trkpt>
      <trkpt lat="47.58701" lon="6.59248">
        <ele>445.03456265629</ele>
        <time>2000-01-01T00:00:00Z</time>
      </trkpt>
      <trkpt lat="47.58712" lon="6.59259">
        <ele>444.95595907119</ele>
        <time>2000-01-01T00:00:00Z</time>
      </trkpt>
      <trkpt lat="47.58719" lon="6.59261">
        <ele>444.9137264961</ele>
        <time>2000-01-01T00:00:00Z</time>
      </trkpt>
      <trkpt lat="47.58737" lon="6.59261">
        <ele>444.80709037787</ele>
        <time>2000-01-01T00:00:00Z</time>
      </trkpt>
      <trkpt lat="47.58744" lon="6.59258">
        <ele>444.76392306141</ele>
        <time>2000-01-01T00:00:00Z</time>
      </trkpt>
      <trkpt lat="47.58751" lon="6.59257">
        <ele>444.72</ele>
        <time>2000-01-01T00:00:00Z</time>
      </trkpt>
      <trkpt lat="47.58773" lon="6.59252">
        <ele>443.78080438145</ele>
        <time>2000-01-01T00:00:00Z</time>
      </trkpt>
      <trkpt lat="47.58778" lon="6.5925">
        <ele>443.56</ele>
        <time>2000-01-01T00:00:00Z</time>
      </trkpt>
      <trkpt lat="47.588" lon="6.59241">
        <ele>441.68941319411</ele>
        <time>2000-01-01T00:00:00Z</time>
      </trkpt>
      <trkpt lat="47.58804" lon="6.5924">
        <ele>441.35</ele>
        <time>2000-01-01T00:00:00Z</time>
      </trkpt>
      <trkpt lat="47.58841" lon="6.59233">
        <ele>439.15274036127</ele>
        <time>2000-01-01T00:00:00Z</time>
      </trkpt>
      <trkpt lat="47.58858" lon="6.59233">
        <ele>438.16</ele>
        <time>2000-01-01T00:00:00Z</time>
      </trkpt>
      <trkpt lat="47.58873" lon="6.59233">
        <ele>435.1003372359</ele>
        <time>2000-01-01T00:00:00Z</time>
      </trkpt>
      <trkpt lat="47.58882" lon="6.59239">
        <ele>433.11270561855</ele>
        <time>2000-01-01T00:00:00Z</time>
      </trkpt>
      <trkpt lat="47.58883" lon="6.59241">
        <ele>432.72</ele>
        <time>2000-01-01T00:00:00Z</time>
      </trkpt>
      <trkpt lat="47.58889" lon="6.5925">
        <ele>431.2139768986</ele>
        <time>2000-01-01T00:00:00Z</time>
      </trkpt>
      <trkpt lat="47.58894" lon="6.59263">
        <ele>429.37154827764</ele>
        <time>2000-01-01T00:00:00Z</time>
      </trkpt>
      <trkpt lat="47.58894" lon="6.59276">
        <ele>427.79</ele>
        <time>2000-01-01T00:00:00Z</time>
      </trkpt>
      <trkpt lat="47.58894" lon="6.5929">
        <ele>427.16792641856</ele>
        <time>2000-01-01T00:00:00Z</time>
      </trkpt>
      <trkpt lat="47.58888" lon="6.59314">
        <ele>426.04296122004</ele>
        <time>2000-01-01T00:00:00Z</time>
      </trkpt>
      <trkpt lat="47.58875" lon="6.59346">
        <ele>424.40108155289</ele>
        <time>2000-01-01T00:00:00Z</time>
      </trkpt>
      <trkpt lat="47.58874" lon="6.59349">
        <ele>424.27</ele>
        <time>2000-01-01T00:00:00Z</time>
      </trkpt>
      <trkpt lat="47.58871" lon="6.59362">
        <ele>423.61066316</ele>
        <time>2000-01-01T00:00:00Z</time>
      </trkpt>
      <trkpt lat="47.58867" lon="6.59394">
        <ele>422.08680217864</ele>
        <time>2000-01-01T00:00:00Z</time>
      </trkpt>
      <trkpt lat="47.58871" lon="6.59403">
        <ele>421.58212192509</ele>
        <time>2000-01-01T00:00:00Z</time>
      </trkpt>
      <trkpt lat="47.58875" lon="6.59405">
        <ele>421.28905885622</ele>
        <time>2000-01-01T00:00:00Z</time>
      </trkpt>
      <trkpt lat="47.58882" lon="6.59405">
        <ele>420.80308696324</ele>
        <time>2000-01-01T00:00:00Z</time>
      </trkpt>
      <trkpt lat="47.58885" lon="6.59401">
        <ele>420.52</ele>
        <time>2000-01-01T00:00:00Z</time>
      </trkpt>
      <trkpt lat="47.58899" lon="6.59381">
        <ele>417.00818241663</ele>
        <time>2000-01-01T00:00:00Z</time>
      </trkpt>
      <trkpt lat="47.58904" lon="6.59372">
        <ele>415.63</ele>
        <time>2000-01-01T00:00:00Z</time>
      </trkpt>
      <trkpt lat="47.58916" lon="6.5935">
        <ele>412.48715810626</ele>
        <time>2000-01-01T00:00:00Z</time>
      </trkpt>
      <trkpt lat="47.58922" lon="6.59343">
        <ele>411.24</ele>
        <time>2000-01-01T00:00:00Z</time>
      </trkpt>
      <trkpt lat="47.5893" lon="6.59332">
        <ele>409.59571234525</ele>
        <time>2000-01-01T00:00:00Z</time>
      </trkpt>
      <trkpt lat="47.58943" lon="6.59318">
        <ele>407.15</ele>
        <time>2000-01-01T00:00:00Z</time>
      </trkpt>
      <trkpt lat="47.58965" lon="6.59295">
        <ele>404.26</ele>
        <time>2000-01-01T00:00:00Z</time>
      </trkpt>
      <trkpt lat="47.58968" lon="6.59292">
        <ele>403.98067025272</ele>
        <time>2000-01-01T00:00:00Z</time>
      </trkpt>
      <trkpt lat="47.58987" lon="6.59277">
        <ele>402.2352193238</ele>
        <time>2000-01-01T00:00:00Z</time>
      </trkpt>
      <trkpt lat="47.58989" lon="6.59276">
        <ele>402.07</ele>
        <time>2000-01-01T00:00:00Z</time>
      </trkpt>
      <trkpt lat="47.58994" lon="6.59275">
        <ele>401.760842806</ele>
        <time>2000-01-01T00:00:00Z</time>
      </trkpt>
      <trkpt lat="47.59016" lon="6.59276">
        <ele>400.43</ele>
        <time>2000-01-01T00:00:00Z</time>
      </trkpt>
      <trkpt lat="47.5902" lon="6.59276">
        <ele>400.22847642218</ele>
        <time>2000-01-01T00:00:00Z</time>
      </trkpt>
      <trkpt lat="47.59038" lon="6.59286">
        <ele>399.28188615915</ele>
        <time>2000-01-01T00:00:00Z</time>
      </trkpt>
      <trkpt lat="47.59041" lon="6.59289">
        <ele>399.1</ele>
        <time>2000-01-01T00:00:00Z</time>
      </trkpt>
      <trkpt lat="47.59056" lon="6.59301">
        <ele>398.13323991024</ele>
        <time>2000-01-01T00:00:00Z</time>
      </trkpt>
      <trkpt lat="47.59064" lon="6.5931">
        <ele>397.56</ele>
        <time>2000-01-01T00:00:00Z</time>
      </trkpt>
      <trkpt lat="47.59075" lon="6.59323">
        <ele>396.76905133008</ele>
        <time>2000-01-01T00:00:00Z</time>
      </trkpt>
      <trkpt lat="47.59084" lon="6.59337">
        <ele>396.04</ele>
        <time>2000-01-01T00:00:00Z</time>
      </trkpt>
      <trkpt lat="47.59103" lon="6.59366">
        <ele>393.82</ele>
        <time>2000-01-01T00:00:00Z</time>
      </trkpt>
      <trkpt lat="47.59111" lon="6.59378">
        <ele>392.6257544584</ele>
        <time>2000-01-01T00:00:00Z</time>
      </trkpt>
      <trkpt lat="47.59121" lon="6.59389">
        <ele>391.35792785636</ele>
        <time>2000-01-01T00:00:00Z</time>
      </trkpt>
      <trkpt lat="47.59123" lon="6.59392">
        <ele>391.07</ele>
        <time>2000-01-01T00:00:00Z</time>
      </trkpt>
      <trkpt lat="47.59126" lon="6.59397">
        <ele>390.4027040895</ele>
        <time>2000-01-01T00:00:00Z</time>
      </trkpt>
      <trkpt lat="47.59126" lon="6.59403">
        <ele>389.80639229497</ele>
        <time>2000-01-01T00:00:00Z</time>
      </trkpt>
      <trkpt lat="47.59129" lon="6.5943">
        <ele>387.09</ele>
        <time>2000-01-01T00:00:00Z</time>
      </trkpt>
      <trkpt lat="47.59138" lon="6.59509">
        <ele>381.26</ele>
        <time>2000-01-01T00:00:00Z</time>
      </trkpt>
      <trkpt lat="47.59138" lon="6.59514">
        <ele>380.71517798225</ele>
        <time>2000-01-01T00:00:00Z</time>
      </trkpt>
      <trkpt lat="47.59151" lon="6.59543">
        <ele>376.89</ele>
        <time>2000-01-01T00:00:00Z</time>
      </trkpt>
      <trkpt lat="47.59163" lon="6.5957">
        <ele>374.32466069189</ele>
        <time>2000-01-01T00:00:00Z</time>
      </trkpt>
      <trkpt lat="47.59165" lon="6.59577">
        <ele>373.69</ele>
        <time>2000-01-01T00:00:00Z</time>
      </trkpt>
      <trkpt lat="47.5917" lon="6.59591">
        <ele>372.6345407119</ele>
        <time>2000-01-01T00:00:00Z</time>
      </trkpt>
      <trkpt lat="47.5918" lon="6.59611">
        <ele>370.96</ele>
        <time>2000-01-01T00:00:00Z</time>
      </trkpt>
      <trkpt lat="47.59206" lon="6.59663">
        <ele>369.38399907377</ele>
        <time>2000-01-01T00:00:00Z</time>
      </trkpt>
      <trkpt lat="47.5921" lon="6.59676">
        <ele>369.03789304367</ele>
        <time>2000-01-01T00:00:00Z</time>
      </trkpt>
      <trkpt lat="47.59225" lon="6.5971">
        <ele>366.34</ele>
        <time>2000-01-01T00:00:00Z</time>
      </trkpt>
      <trkpt lat="47.59236" lon="6.59734">
        <ele>364.39433208843</ele>
        <time>2000-01-01T00:00:00Z</time>
      </trkpt>
      <trkpt lat="47.59239" lon="6.59744">
        <ele>363.64</ele>
        <time>2000-01-01T00:00:00Z</time>
      </trkpt>
      <trkpt lat="47.59241" lon="6.59751">
        <ele>363.33684192779</ele>
        <time>2000-01-01T00:00:00Z</time>
      </trkpt>
      <trkpt lat="47.59242" lon="6.59764">
        <ele>362.79774896923</ele>
        <time>2000-01-01T00:00:00Z</time>
      </trkpt>
      <trkpt lat="47.59243" lon="6.59784">
        <ele>361.99</ele>
        <time>2000-01-01T00:00:00Z</time>
      </trkpt>
      <trkpt lat="47.59243" lon="6.59793">
        <ele>361.73560678755</ele>
        <time>2000-01-01T00:00:00Z</time>
      </trkpt>
      <trkpt lat="47.59225" lon="6.59807">
        <ele>360.91</ele>
        <time>2000-01-01T00:00:00Z</time>
      </trkpt>
      <trkpt lat="47.59216" lon="6.59813">
        <ele>361.01591949651</ele>
        <time>2000-01-01T00:00:00Z</time>
      </trkpt>
      <trkpt lat="47.59205" lon="6.59818">
        <ele>361.14371887376</ele>
        <time>2000-01-01T00:00:00Z</time>
      </trkpt>
      <trkpt lat="47.59199" lon="6.5982">
        <ele>361.21</ele>
        <time>2000-01-01T00:00:00Z</time>
      </trkpt>
      <trkpt lat="47.59184" lon="6.59824">
        <ele>362.63159354088</ele>
        <time>2000-01-01T00:00:00Z</time>
      </trkpt>
      <trkpt lat="47.59173" lon="6.59829">
        <ele>363.7</ele>
        <time>2000-01-01T00:00:00Z</time>
      </trkpt>
      <trkpt lat="47.59147" lon="6.5984">
        <ele>367.35</ele>
        <time>2000-01-01T00:00:00Z</time>
      </trkpt>
      <trkpt lat="47.59136" lon="6.59844">
        <ele>368.84712452092</ele>
        <time>2000-01-01T00:00:00Z</time>
      </trkpt>
      <trkpt lat="47.59121" lon="6.59848">
        <ele>370.94</ele>
        <time>2000-01-01T00:00:00Z</time>
      </trkpt>
      <trkpt lat="47.59096" lon="6.59855">
        <ele>374.04242304575</ele>
        <time>2000-01-01T00:00:00Z</time>
      </trkpt>
      <trkpt lat="47.59094" lon="6.59857">
        <ele>374.3</ele>
        <time>2000-01-01T00:00:00Z</time>
      </trkpt>
      <trkpt lat="47.59091" lon="6.5986">
        <ele>374.61967665909</ele>
        <time>2000-01-01T00:00:00Z</time>
      </trkpt>
      <trkpt lat="47.59089" lon="6.5986">
        <ele>374.78111189363</ele>
        <time>2000-01-01T00:00:00Z</time>
      </trkpt>
      <trkpt lat="47.5908" lon="6.59888">
        <ele>376.48</ele>
        <time>2000-01-01T00:00:00Z</time>
      </trkpt>
      <trkpt lat="47.59057" lon="6.59962">
        <ele>378.26317976961</ele>
        <time>2000-01-01T00:00:00Z</time>
      </trkpt>
      <trkpt lat="47.59056" lon="6.59975">
        <ele>378.84476701356</ele>
        <time>2000-01-01T00:00:00Z</time>
      </trkpt>
      <trkpt lat="47.59056" lon="6.60001">
        <ele>379.99</ele>
        <time>2000-01-01T00:00:00Z</time>
      </trkpt>
      <trkpt lat="47.59056" lon="6.60024">
        <ele>380.34973323858</ele>
        <time>2000-01-01T00:00:00Z</time>
      </trkpt>
      <trkpt lat="47.5906" lon="6.6004">
        <ele>380.61</ele>
        <time>2000-01-01T00:00:00Z</time>
      </trkpt>
      <trkpt lat="47.59064" lon="6.6006">
        <ele>380.38350511157</ele>
        <time>2000-01-01T00:00:00Z</time>
      </trkpt>
      <trkpt lat="47.59072" lon="6.60075">
        <ele>380.18</ele>
        <time>2000-01-01T00:00:00Z</time>
      </trkpt>
      <trkpt lat="47.59079" lon="6.60088">
        <ele>380.04570406029</ele>
        <time>2000-01-01T00:00:00Z</time>
      </trkpt>
      <trkpt lat="47.59084" lon="6.60094">
        <ele>379.96949133923</ele>
        <time>2000-01-01T00:00:00Z</time>
      </trkpt>
      <trkpt lat="47.5909" lon="6.60099">
        <ele>379.88794238989</ele>
        <time>2000-01-01T00:00:00Z</time>
      </trkpt>
      <trkpt lat="47.59092" lon="6.60099">
        <ele>379.86</ele>
        <time>2000-01-01T00:00:00Z</time>
      </trkpt>
      <trkpt lat="47.59114" lon="6.60103">
        <ele>380.05769305481</ele>
        <time>2000-01-01T00:00:00Z</time>
      </trkpt>
      <trkpt lat="47.59116" lon="6.60105">
        <ele>380.07957647346</ele>
        <time>2000-01-01T00:00:00Z</time>
      </trkpt>
      <trkpt lat="47.59118" lon="6.60149">
        <ele>380.35</ele>
        <time>2000-01-01T00:00:00Z</time>
      </trkpt>
      <trkpt lat="47.5912" lon="6.60189">
        <ele>380.9</ele>
        <time>2000-01-01T00:00:00Z</time>
      </trkpt>
      <trkpt lat="47.59121" lon="6.60211">
        <ele>380.46028337566</ele>
        <time>2000-01-01T00:00:00Z</time>
      </trkpt>
      <trkpt lat="47.59124" lon="6.60229">
        <ele>380.1</ele>
        <time>2000-01-01T00:00:00Z</time>
      </trkpt>
      <trkpt lat="47.59125" lon="6.60234">
        <ele>379.69452718892</ele>
        <time>2000-01-01T00:00:00Z</time>
      </trkpt>
      <trkpt lat="47.5913" lon="6.60251">
        <ele>378.37925879731</ele>
        <time>2000-01-01T00:00:00Z</time>
      </trkpt>
      <trkpt lat="47.59131" lon="6.60254">
        <ele>378.14193629732</ele>
        <time>2000-01-01T00:00:00Z</time>
      </trkpt>
      <trkpt lat="47.59139" lon="6.60251">
        <ele>377.26</ele>
        <time>2000-01-01T00:00:00Z</time>
      </trkpt>
      <trkpt lat="47.59166" lon="6.60243">
        <ele>373.57</ele>
        <time>2000-01-01T00:00:00Z</time>
      </trkpt>
      <trkpt lat="47.59192" lon="6.60235">
        <ele>369.32</ele>
        <time>2000-01-01T00:00:00Z</time>
      </trkpt>
      <trkpt lat="47.59205" lon="6.60231">
        <ele>366.89474938395</ele>
        <time>2000-01-01T00:00:00Z</time>
      </trkpt>
      <trkpt lat="47.59218" lon="6.60226">
        <ele>364.36</ele>
        <time>2000-01-01T00:00:00Z</time>
      </trkpt>
      <trkpt lat="47.59244" lon="6.60215">
        <ele>359.36</ele>
        <time>2000-01-01T00:00:00Z</time>
      </trkpt>
      <trkpt lat="47.59246" lon="6.60214">
        <ele>359.0414323043</ele>
        <time>2000-01-01T00:00:00Z</time>
      </trkpt>
      <trkpt lat="47.59269" lon="6.6021">
        <ele>354.85709921194</ele>
        <time>2000-01-01T00:00:00Z</time>
      </trkpt>
      <trkpt lat="47.59271" lon="6.6021">
        <ele>354.48</ele>
        <time>2000-01-01T00:00:00Z</time>
      </trkpt>
      <trkpt lat="47.59291" lon="6.6021">
        <ele>351.066268451</ele>
        <time>2000-01-01T00:00:00Z</time>
      </trkpt>
      <trkpt lat="47.59298" lon="6.60209">
        <ele>349.85</ele>
        <time>2000-01-01T00:00:00Z</time>
      </trkpt>
      <trkpt lat="47.59302" lon="6.60208">
        <ele>349.18115398866</ele>
        <time>2000-01-01T00:00:00Z</time>
      </trkpt>
      <trkpt lat="47.59325" lon="6.60207">
        <ele>345.32</ele>
        <time>2000-01-01T00:00:00Z</time>
      </trkpt>
      <trkpt lat="47.59344" lon="6.60206">
        <ele>342.31579937166</ele>
        <time>2000-01-01T00:00:00Z</time>
      </trkpt>
      <trkpt lat="47.59352" lon="6.60205">
        <ele>341.05</ele>
        <time>2000-01-01T00:00:00Z</time>
      </trkpt>
      <trkpt lat="47.59374" lon="6.60202">
        <ele>337.66821458286</ele>
        <time>2000-01-01T00:00:00Z</time>
      </trkpt>
      <trkpt lat="47.59379" lon="6.60202">
        <ele>336.92</ele>
        <time>2000-01-01T00:00:00Z</time>
      </trkpt>
      <trkpt lat="47.59389" lon="6.60202">
        <ele>335.66258487977</ele>
        <time>2000-01-01T00:00:00Z</time>
      </trkpt>
      <trkpt lat="47.59398" lon="6.602">
        <ele>334.53040216889</ele>
        <time>2000-01-01T00:00:00Z</time>
      </trkpt>
      <trkpt lat="47.59405" lon="6.60196">
        <ele>333.56</ele>
        <time>2000-01-01T00:00:00Z</time>
      </trkpt>
      <trkpt lat="47.5941" lon="6.60194">
        <ele>333.17641706828</ele>
        <time>2000-01-01T00:00:00Z</time>
      </trkpt>
      <trkpt lat="47.5942" lon="6.60189">
        <ele>332.34412675326</ele>
        <time>2000-01-01T00:00:00Z</time>
      </trkpt>
      <trkpt lat="47.5943" lon="6.60181">
        <ele>331.43</ele>
        <time>2000-01-01T00:00:00Z</time>
      </trkpt>
      <trkpt lat="47.59433" lon="6.60179">
        <ele>331.34631524828</ele>
        <time>2000-01-01T00:00:00Z</time>
      </trkpt>
      <trkpt lat="47.59438" lon="6.60178">
        <ele>331.20807699137</ele>
        <time>2000-01-01T00:00:00Z</time>
      </trkpt>
      <trkpt lat="47.5944" lon="6.60176">
        <ele>331.14198141436</ele>
        <time>2000-01-01T00:00:00Z</time>
      </trkpt>
      <trkpt lat="47.59457" lon="6.60176">
        <ele>330.69</ele>
        <time>2000-01-01T00:00:00Z</time>
      </trkpt>
      <trkpt lat="47.59464" lon="6.60176">
        <ele>330.79002550446</ele>
        <time>2000-01-01T00:00:00Z</time>
      </trkpt>
      <trkpt lat="47.59468" lon="6.60179">
        <ele>330.8497753258</ele>
        <time>2000-01-01T00:00:00Z</time>
      </trkpt>
      <trkpt lat="47.59468" lon="6.60183">
        <ele>330.88573147605</ele>
        <time>2000-01-01T00:00:00Z</time>
      </trkpt>
      <trkpt lat="47.59457" lon="6.60191">
        <ele>331.05</ele>
        <time>2000-01-01T00:00:00Z</time>
      </trkpt>
      <trkpt lat="47.59433" lon="6.60209">
        <ele>332.3</ele>
        <time>2000-01-01T00:00:00Z</time>
      </trkpt>
      <trkpt lat="47.59409" lon="6.60227">
        <ele>335.16</ele>
        <time>2000-01-01T00:00:00Z</time>
      </trkpt>
      <trkpt lat="47.59393" lon="6.60238">
        <ele>337.90010480438</ele>
        <time>2000-01-01T00:00:00Z</time>
      </trkpt>
      <trkpt lat="47.59387" lon="6.60246">
        <ele>339.17581502059</ele>
        <time>2000-01-01T00:00:00Z</time>
      </trkpt>
      <trkpt lat="47.59386" lon="6.60247">
        <ele>339.43</ele>
        <time>2000-01-01T00:00:00Z</time>
      </trkpt>
      <trkpt lat="47.59377" lon="6.60257">
        <ele>341.52980022479</ele>
        <time>2000-01-01T00:00:00Z</time>
      </trkpt>
      <trkpt lat="47.59363" lon="6.60269">
        <ele>344.66</ele>
        <time>2000-01-01T00:00:00Z</time>
      </trkpt>
      <trkpt lat="47.5934" lon="6.60289">
        <ele>350.19</ele>
        <time>2000-01-01T00:00:00Z</time>
      </trkpt>
      <trkpt lat="47.59327" lon="6.603">
        <ele>352.33491108254</ele>
        <time>2000-01-01T00:00:00Z</time>
      </trkpt>
      <trkpt lat="47.59317" lon="6.60312">
        <ele>354.15</ele>
        <time>2000-01-01T00:00:00Z</time>
      </trkpt>
      <trkpt lat="47.59307" lon="6.60324">
        <ele>355.58837301773</ele>
        <time>2000-01-01T00:00:00Z</time>
      </trkpt>
      <trkpt lat="47.59295" lon="6.60334">
        <ele>357.06</ele>
        <time>2000-01-01T00:00:00Z</time>
      </trkpt>
      <trkpt lat="47.59274" lon="6.60353">
        <ele>359.31911539165</ele>
        <time>2000-01-01T00:00:00Z</time>
      </trkpt>
      <trkpt lat="47.59272" lon="6.60354">
        <ele>359.53</ele>
        <time>2000-01-01T00:00:00Z</time>
      </trkpt>
      <trkpt lat="47.5925" lon="6.60365">
        <ele>361.58432332994</ele>
        <time>2000-01-01T00:00:00Z</time>
      </trkpt>
      <trkpt lat="47.59246" lon="6.60368">
        <ele>361.94</ele>
        <time>2000-01-01T00:00:00Z</time>
      </trkpt>
      <trkpt lat="47.59234" lon="6.60377">
        <ele>363.3650128739</ele>
        <time>2000-01-01T00:00:00Z</time>
      </trkpt>
      <trkpt lat="47.59221" lon="6.60382">
        <ele>364.7</ele>
        <time>2000-01-01T00:00:00Z</time>
      </trkpt>
      <trkpt lat="47.59209" lon="6.60387">
        <ele>366.29144763794</ele>
        <time>2000-01-01T00:00:00Z</time>
      </trkpt>
      <trkpt lat="47.59196" lon="6.60395">
        <ele>368.03730332948</ele>
        <time>2000-01-01T00:00:00Z</time>
      </trkpt>
      <trkpt lat="47.59169" lon="6.60399">
        <ele>372.02</ele>
        <time>2000-01-01T00:00:00Z</time>
      </trkpt>
      <trkpt lat="47.59161" lon="6.604">
        <ele>373.38546107122</ele>
        <time>2000-01-01T00:00:00Z</time>
      </trkpt>
      <trkpt lat="47.59143" lon="6.60407">
        <ele>376.6</ele>
        <time>2000-01-01T00:00:00Z</time>
      </trkpt>
      <trkpt lat="47.59139" lon="6.60408">
        <ele>377.18026569216</ele>
        <time>2000-01-01T00:00:00Z</time>
      </trkpt>
      <trkpt lat="47.59131" lon="6.60412">
        <ele>378.50568549024</ele>
        <time>2000-01-01T00:00:00Z</time>
      </trkpt>
      <trkpt lat="47.59125" lon="6.60418">
        <ele>379.64183597619</ele>
        <time>2000-01-01T00:00:00Z</time>
      </trkpt>
      <trkpt lat="47.59124" lon="6.60421">
        <ele>379.99614876742</ele>
        <time>2000-01-01T00:00:00Z</time>
      </trkpt>
      <trkpt lat="47.59122" lon="6.60422">
        <ele>380.32750379451</ele>
        <time>2000-01-01T00:00:00Z</time>
      </trkpt>
      <trkpt lat="47.5912" lon="6.60426">
        <ele>380.84</ele>
        <time>2000-01-01T00:00:00Z</time>
      </trkpt>
      <trkpt lat="47.59115" lon="6.60433">
        <ele>381.17639391871</ele>
        <time>2000-01-01T00:00:00Z</time>
      </trkpt>
      <trkpt lat="47.59105" lon="6.60453">
        <ele>381.99083169898</ele>
        <time>2000-01-01T00:00:00Z</time>
      </trkpt>
      <trkpt lat="47.59104" lon="6.60458">
        <ele>382.15</ele>
        <time>2000-01-01T00:00:00Z</time>
      </trkpt>
      <trkpt lat="47.59099" lon="6.60497">
        <ele>381.91</ele>
        <time>2000-01-01T00:00:00Z</time>
      </trkpt>
      <trkpt lat="47.59097" lon="6.60513">
        <ele>381.71117000093</ele>
        <time>2000-01-01T00:00:00Z</time>
      </trkpt>
      <trkpt lat="47.5909" lon="6.60535">
        <ele>381.41801764432</ele>
        <time>2000-01-01T00:00:00Z</time>
      </trkpt>
      <trkpt lat="47.59082" lon="6.6055">
        <ele>381.34638666325</ele>
        <time>2000-01-01T00:00:00Z</time>
      </trkpt>
      <trkpt lat="47.59073" lon="6.60557">
        <ele>381.28994150633</ele>
        <time>2000-01-01T00:00:00Z</time>
      </trkpt>
      <trkpt lat="47.59066" lon="6.60566">
        <ele>381.23848334908</ele>
        <time>2000-01-01T00:00:00Z</time>
      </trkpt>
      <trkpt lat="47.59063" lon="6.60571">
        <ele>381.21341585297</ele>
        <time>2000-01-01T00:00:00Z</time>
      </trkpt>
      <trkpt lat="47.59061" lon="6.60583">
        <ele>381.16711499487</ele>
        <time>2000-01-01T00:00:00Z</time>
      </trkpt>
      <trkpt lat="47.59057" lon="6.60589">
        <ele>381.13551371693</ele>
        <time>2000-01-01T00:00:00Z</time>
      </trkpt>
      <trkpt lat="47.59055" lon="6.60592">
        <ele>381.12</ele>
        <time>2000-01-01T00:00:00Z</time>
      </trkpt>
      <trkpt lat="47.59047" lon="6.606">
        <ele>381.18436891389</ele>
        <time>2000-01-01T00:00:00Z</time>
      </trkpt>
      <trkpt lat="47.59032" lon="6.60608">
        <ele>381.29061075812</ele>
        <time>2000-01-01T00:00:00Z</time>
      </trkpt>
      <trkpt lat="47.59031" lon="6.60609">
        <ele>381.3</ele>
        <time>2000-01-01T00:00:00Z</time>
      </trkpt>
      <trkpt lat="47.59022" lon="6.60616">
        <ele>381.61327358422</ele>
        <time>2000-01-01T00:00:00Z</time>
      </trkpt>
      <trkpt lat="47.59016" lon="6.60622">
        <ele>381.84104108455</ele>
        <time>2000-01-01T00:00:00Z</time>
      </trkpt>
      <trkpt lat="47.5901" lon="6.60634">
        <ele>382.16785536229</ele>
        <time>2000-01-01T00:00:00Z</time>
      </trkpt>
      <trkpt lat="47.5899" lon="6.6066">
        <ele>384.02</ele>
        <time>2000-01-01T00:00:00Z</time>
      </trkpt>
      <trkpt lat="47.58988" lon="6.60663">
        <ele>384.28067508522</ele>
        <time>2000-01-01T00:00:00Z</time>
      </trkpt>
      <trkpt lat="47.58982" lon="6.60669">
        <ele>384.98273633571</ele>
        <time>2000-01-01T00:00:00Z</time>
      </trkpt>
      <trkpt lat="47.5897" lon="6.60674">
        <ele>386.19193837159</ele>
        <time>2000-01-01T00:00:00Z</time>
      </trkpt>
      <trkpt lat="47.58965" lon="6.60675">
        <ele>386.64</ele>
        <time>2000-01-01T00:00:00Z</time>
      </trkpt>
      <trkpt lat="47.58949" lon="6.60678">
        <ele>388.36845946866</ele>
        <time>2000-01-01T00:00:00Z</time>
      </trkpt>
      <trkpt lat="47.58939" lon="6.60678">
        <ele>389.46</ele>
        <time>2000-01-01T00:00:00Z</time>
      </trkpt>
      <trkpt lat="47.58916" lon="6.60678">
        <ele>392.44023984717</ele>
        <time>2000-01-01T00:00:00Z</time>
      </trkpt>
      <trkpt lat="47.58912" lon="6.60676">
        <ele>393.03</ele>
        <time>2000-01-01T00:00:00Z</time>
      </trkpt>
      <trkpt lat="47.58887" lon="6.60661">
        <ele>397.16</ele>
        <time>2000-01-01T00:00:00Z</time>
      </trkpt>
      <trkpt lat="47.58879" lon="6.60657">
        <ele>398.27334963791</ele>
        <time>2000-01-01T00:00:00Z</time>
      </trkpt>
      <trkpt lat="47.58867" lon="6.60648">
        <ele>400.11069905703</ele>
        <time>2000-01-01T00:00:00Z</time>
      </trkpt>
      <trkpt lat="47.58861" lon="6.60647">
        <ele>400.9346988589</ele>
        <time>2000-01-01T00:00:00Z</time>
      </trkpt>
      <trkpt lat="47.58853" lon="6.60643">
        <ele>402.07569142985</ele>
        <time>2000-01-01T00:00:00Z</time>
      </trkpt>
      <trkpt lat="47.58842" lon="6.60641">
        <ele>403.5734383341</ele>
        <time>2000-01-01T00:00:00Z</time>
      </trkpt>
      <trkpt lat="47.58839" lon="6.60639">
        <ele>404.01797657115</ele>
        <time>2000-01-01T00:00:00Z</time>
      </trkpt>
      <trkpt lat="47.58835" lon="6.60639">
        <ele>404.5</ele>
        <time>2000-01-01T00:00:00Z</time>
      </trkpt>
      <trkpt lat="47.58809" lon="6.60635">
        <ele>408.52</ele>
        <time>2000-01-01T00:00:00Z</time>
      </trkpt>
      <trkpt lat="47.58797" lon="6.60634">
        <ele>410.50616854275</ele>
        <time>2000-01-01T00:00:00Z</time>
      </trkpt>
      <trkpt lat="47.58782" lon="6.60634">
        <ele>413.16</ele>
        <time>2000-01-01T00:00:00Z</time>
      </trkpt>
      <trkpt lat="47.58755" lon="6.60634">
        <ele>417.08</ele>
        <time>2000-01-01T00:00:00Z</time>
      </trkpt>
      <trkpt lat="47.58742" lon="6.60634">
        <ele>417.56308750047</ele>
        <time>2000-01-01T00:00:00Z</time>
      </trkpt>
      <trkpt lat="47.58728" lon="6.60641">
        <ele>418.12</ele>
        <time>2000-01-01T00:00:00Z</time>
      </trkpt>
      <trkpt lat="47.58703" lon="6.60654">
        <ele>417.73</ele>
        <time>2000-01-01T00:00:00Z</time>
      </trkpt>
      <trkpt lat="47.58672" lon="6.6067">
        <ele>417.42803657713</ele>
        <time>2000-01-01T00:00:00Z</time>
      </trkpt>
      <trkpt lat="47.58651" lon="6.6067">
        <ele>417.23</ele>
        <time>2000-01-01T00:00:00Z</time>
      </trkpt>
      <trkpt lat="47.58627" lon="6.6067">
        <ele>418.58476671017</ele>
        <time>2000-01-01T00:00:00Z</time>
      </trkpt>
      <trkpt lat="47.58624" lon="6.60673">
        <ele>418.78</ele>
        <time>2000-01-01T00:00:00Z</time>
      </trkpt>
      <trkpt lat="47.58623" lon="6.60674">
        <ele>418.91382858719</ele>
        <time>2000-01-01T00:00:00Z</time>
      </trkpt>
      <trkpt lat="47.58603" lon="6.60697">
        <ele>421.32</ele>
        <time>2000-01-01T00:00:00Z</time>
      </trkpt>
      <trkpt lat="47.58598" lon="6.60703">
        <ele>421.97208933135</ele>
        <time>2000-01-01T00:00:00Z</time>
      </trkpt>
      <trkpt lat="47.58587" lon="6.60709">
        <ele>423.21327157031</ele>
        <time>2000-01-01T00:00:00Z</time>
      </trkpt>
      <trkpt lat="47.58578" lon="6.6071">
        <ele>424.18</ele>
        <time>2000-01-01T00:00:00Z</time>
      </trkpt>
      <trkpt lat="47.58572" lon="6.60711">
        <ele>424.89816040973</ele>
        <time>2000-01-01T00:00:00Z</time>
      </trkpt>
      <trkpt lat="47.58551" lon="6.60712">
        <ele>427.45</ele>
        <time>2000-01-01T00:00:00Z</time>
      </trkpt>
      <trkpt lat="47.58539" lon="6.60712">
        <ele>428.67364279982</ele>
        <time>2000-01-01T00:00:00Z</time>
      </trkpt>
      <trkpt lat="47.58524" lon="6.60716">
        <ele>430.22</ele>
        <time>2000-01-01T00:00:00Z</time>
      </trkpt>
      <trkpt lat="47.58523" lon="6.60716">
        <ele>430.32420960616</ele>
        <time>2000-01-01T00:00:00Z</time>
      </trkpt>
      <trkpt lat="47.58508" lon="6.60723">
        <ele>431.75074675363</ele>
        <time>2000-01-01T00:00:00Z</time>
      </trkpt>
      <trkpt lat="47.58498" lon="6.60725">
        <ele>432.67</ele>
        <time>2000-01-01T00:00:00Z</time>
      </trkpt>
      <trkpt lat="47.58489" lon="6.60726">
        <ele>433.3744232403</ele>
        <time>2000-01-01T00:00:00Z</time>
      </trkpt>
      <trkpt lat="47.5848" lon="6.6073">
        <ele>434.11194830141</ele>
        <time>2000-01-01T00:00:00Z</time>
      </trkpt>
      <trkpt lat="47.58475" lon="6.6073">
        <ele>434.5044284588</ele>
        <time>2000-01-01T00:00:00Z</time>
      </trkpt>
      <trkpt lat="47.58473" lon="6.60732">
        <ele>434.6937942711</ele>
        <time>2000-01-01T00:00:00Z</time>
      </trkpt>
      <trkpt lat="47.58472" lon="6.60732">
        <ele>434.79</ele>
        <time>2000-01-01T00:00:00Z</time>
      </trkpt>
      <trkpt lat="47.58458" lon="6.60735">
        <ele>434.87240754578</ele>
        <time>2000-01-01T00:00:00Z</time>
      </trkpt>
      <trkpt lat="47.58444" lon="6.60741">
        <ele>434.9587425469</ele>
        <time>2000-01-01T00:00:00Z</time>
      </trkpt>
      <trkpt lat="47.58437" lon="6.60741">
        <ele>435.00021214843</ele>
        <time>2000-01-01T00:00:00Z</time>
      </trkpt>
      <trkpt lat="47.58424" lon="6.60745">
        <ele>435.07886826244</ele>
        <time>2000-01-01T00:00:00Z</time>
      </trkpt>
      <trkpt lat="47.5842" lon="6.60745">
        <ele>435.1025651776</ele>
        <time>2000-01-01T00:00:00Z</time>
      </trkpt>
      <trkpt lat="47.58419" lon="6.60744">
        <ele>435.11</ele>
        <time>2000-01-01T00:00:00Z</time>
      </trkpt>
      <trkpt lat="47.58402" lon="6.60712">
        <ele>434.17</ele>
        <time>2000-01-01T00:00:00Z</time>
      </trkpt>
      <trkpt lat="47.58385" lon="6.60681">
        <ele>433.37</ele>
        <time>2000-01-01T00:00:00Z</time>
      </trkpt>
      <trkpt lat="47.58351" lon="6.60619">
        <ele>432.24</ele>
        <time>2000-01-01T00:00:00Z</time>
      </trkpt>
      <trkpt lat="47.58343" lon="6.60604">
        <ele>431.30507382424</ele>
        <time>2000-01-01T00:00:00Z</time>
      </trkpt>
      <trkpt lat="47.58338" lon="6.60589">
        <ele>430.49858088545</ele>
        <time>2000-01-01T00:00:00Z</time>
      </trkpt>
      <trkpt lat="47.58336" lon="6.60586">
        <ele>430.31</ele>
        <time>2000-01-01T00:00:00Z</time>
      </trkpt>
      <trkpt lat="47.58329" lon="6.60571">
        <ele>429.27538728916</ele>
        <time>2000-01-01T00:00:00Z</time>
      </trkpt>
      <trkpt lat="47.58328" lon="6.60564">
        <ele>428.87509294583</ele>
        <time>2000-01-01T00:00:00Z</time>
      </trkpt>
      <trkpt lat="47.58323" lon="6.60552">
        <ele>428.07</ele>
        <time>2000-01-01T00:00:00Z</time>
      </trkpt>
      <trkpt lat="47.58313" lon="6.60526">
        <ele>426.4119454757</ele>
        <time>2000-01-01T00:00:00Z</time>
      </trkpt>
      <trkpt lat="47.5831" lon="6.60526">
        <ele>426.16312786647</ele>
        <time>2000-01-01T00:00:00Z</time>
      </trkpt>
      <trkpt lat="47.58307" lon="6.60523">
        <ele>425.83</ele>
        <time>2000-01-01T00:00:00Z</time>
      </trkpt>
      <trkpt lat="47.58285" lon="6.605">
        <ele>423.31609696135</ele>
        <time>2000-01-01T00:00:00Z</time>
      </trkpt>
      <trkpt lat="47.58267" lon="6.60474">
        <ele>420.77885926401</ele>
        <time>2000-01-01T00:00:00Z</time>
      </trkpt>
      <trkpt lat="47.58266" lon="6.60471">
        <ele>420.54</ele>
        <time>2000-01-01T00:00:00Z</time>
      </trkpt>
      <trkpt lat="47.58263" lon="6.60465">
        <ele>420.13846460819</ele>
        <time>2000-01-01T00:00:00Z</time>
      </trkpt>
      <trkpt lat="47.58247" lon="6.60442">
        <ele>418.33</ele>
        <time>2000-01-01T00:00:00Z</time>
      </trkpt>
      <trkpt lat="47.58238" lon="6.60429">
        <ele>417.32434909027</ele>
        <time>2000-01-01T00:00:00Z</time>
      </trkpt>
      <trkpt lat="47.58228" lon="6.60414">
        <ele>416.2</ele>
        <time>2000-01-01T00:00:00Z</time>
      </trkpt>
      <trkpt lat="47.58226" lon="6.6041">
        <ele>415.94457418377</ele>
        <time>2000-01-01T00:00:00Z</time>
      </trkpt>
      <trkpt lat="47.58221" lon="6.60398">
        <ele>415.2083199456</ele>
        <time>2000-01-01T00:00:00Z</time>
      </trkpt>
      <trkpt lat="47.58212" lon="6.60381">
        <ele>414.11</ele>
        <time>2000-01-01T00:00:00Z</time>
      </trkpt>
      <trkpt lat="47.5821" lon="6.60377">
        <ele>413.61955147249</ele>
        <time>2000-01-01T00:00:00Z</time>
      </trkpt>
      <trkpt lat="47.58199" lon="6.60353">
        <ele>411.05413150438</ele>
        <time>2000-01-01T00:00:00Z</time>
      </trkpt>
      <trkpt lat="47.58196" lon="6.60349">
        <ele>410.57</ele>
        <time>2000-01-01T00:00:00Z</time>
      </trkpt>
      <trkpt lat="47.58193" lon="6.60344">
        <ele>409.80447942578</ele>
        <time>2000-01-01T00:00:00Z</time>
      </trkpt>
      <trkpt lat="47.58183" lon="6.6032">
        <ele>406.79603825092</ele>
        <time>2000-01-01T00:00:00Z</time>
      </trkpt>
      <trkpt lat="47.58181" lon="6.60316">
        <ele>406.3</ele>
        <time>2000-01-01T00:00:00Z</time>
      </trkpt>
      <trkpt lat="47.58164" lon="6.60285">
        <ele>403.37</ele>
        <time>2000-01-01T00:00:00Z</time>
      </trkpt>
      <trkpt lat="47.58131" lon="6.60222">
        <ele>402.36</ele>
        <time>2000-01-01T00:00:00Z</time>
      </trkpt>
      <trkpt lat="47.58124" lon="6.60209">
        <ele>402.55844453564</ele>
        <time>2000-01-01T00:00:00Z</time>
      </trkpt>
      <trkpt lat="47.58113" lon="6.60193">
        <ele>402.84</ele>
        <time>2000-01-01T00:00:00Z</time>
      </trkpt>
      <trkpt lat="47.58111" lon="6.6019">
        <ele>402.88646600941</ele>
        <time>2000-01-01T00:00:00Z</time>
      </trkpt>
      <trkpt lat="47.58098" lon="6.60174">
        <ele>403.21178213766</ele>
        <time>2000-01-01T00:00:00Z</time>
      </trkpt>
      <trkpt lat="47.58093" lon="6.60165">
        <ele>403.36</ele>
        <time>2000-01-01T00:00:00Z</time>
      </trkpt>
      <trkpt lat="47.58089" lon="6.60157">
        <ele>403.31669876108</ele>
        <time>2000-01-01T00:00:00Z</time>
      </trkpt>
      <trkpt lat="47.58084" lon="6.60151">
        <ele>403.27620770666</ele>
        <time>2000-01-01T00:00:00Z</time>
      </trkpt>
      <trkpt lat="47.58066" lon="6.6012">
        <ele>403.10253528493</ele>
        <time>2000-01-01T00:00:00Z</time>
      </trkpt>
      <trkpt lat="47.58061" lon="6.60117">
        <ele>403.06858282024</ele>
        <time>2000-01-01T00:00:00Z</time>
      </trkpt>
      <trkpt lat="47.58056" lon="6.60109">
        <ele>403.02</ele>
        <time>2000-01-01T00:00:00Z</time>
      </trkpt>
      <trkpt lat="47.5805" lon="6.60099">
        <ele>402.67669027156</ele>
        <time>2000-01-01T00:00:00Z</time>
      </trkpt>
      <trkpt lat="47.58045" lon="6.60096">
        <ele>402.46298937245</ele>
        <time>2000-01-01T00:00:00Z</time>
      </trkpt>
      <trkpt lat="47.58041" lon="6.60091">
        <ele>402.25569981898</ele>
        <time>2000-01-01T00:00:00Z</time>
      </trkpt>
      <trkpt lat="47.58036" lon="6.60082">
        <ele>401.95</ele>
        <time>2000-01-01T00:00:00Z</time>
      </trkpt>
      <trkpt lat="47.58022" lon="6.60058">
        <ele>400.92864936729</ele>
        <time>2000-01-01T00:00:00Z</time>
      </trkpt>
      <trkpt lat="47.58019" lon="6.60054">
        <ele>400.73741984522</ele>
        <time>2000-01-01T00:00:00Z</time>
      </trkpt>
      <trkpt lat="47.58018" lon="6.60052">
        <ele>400.67</ele>
        <time>2000-01-01T00:00:00Z</time>
      </trkpt>
      <trkpt lat="47.58014" lon="6.60044">
        <ele>400.40402899987</ele>
        <time>2000-01-01T00:00:00Z</time>
      </trkpt>
      <trkpt lat="47.58011" lon="6.6004">
        <ele>400.25014888867</ele>
        <time>2000-01-01T00:00:00Z</time>
      </trkpt>
      <trkpt lat="47.58004" lon="6.60019">
        <ele>399.64754667399</ele>
        <time>2000-01-01T00:00:00Z</time>
      </trkpt>
      <trkpt lat="47.57984" lon="6.59992">
        <ele>398.93</ele>
        <time>2000-01-01T00:00:00Z</time>
      </trkpt>
      <trkpt lat="47.57964" lon="6.59965">
        <ele>398.14</ele>
        <time>2000-01-01T00:00:00Z</time>
      </trkpt>
      <trkpt lat="47.57944" lon="6.59938">
        <ele>396.96</ele>
        <time>2000-01-01T00:00:00Z</time>
      </trkpt>
      <trkpt lat="47.57924" lon="6.59911">
        <ele>395.71</ele>
        <time>2000-01-01T00:00:00Z</time>
      </trkpt>
      <trkpt lat="47.57884" lon="6.59857">
        <ele>395.3</ele>
        <time>2000-01-01T00:00:00Z</time>
      </trkpt>
      <trkpt lat="47.5787" lon="6.59838">
        <ele>395.18368372054</ele>
        <time>2000-01-01T00:00:00Z</time>
      </trkpt>
      <trkpt lat="47.57842" lon="6.59807">
        <ele>394.97</ele>
        <time>2000-01-01T00:00:00Z</time>
      </trkpt>
      <trkpt lat="47.57821" lon="6.59782">
        <ele>394.33</ele>
        <time>2000-01-01T00:00:00Z</time>
      </trkpt>
      <trkpt lat="47.57799" lon="6.59758">
        <ele>393.26</ele>
        <time>2000-01-01T00:00:00Z</time>
      </trkpt>
      <trkpt lat="47.57778" lon="6.59734">
        <ele>391.25</ele>
        <time>2000-01-01T00:00:00Z</time>
      </trkpt>
      <trkpt lat="47.57763" lon="6.59717">
        <ele>389.48200137006</ele>
        <time>2000-01-01T00:00:00Z</time>
      </trkpt>
      <trkpt lat="47.57755" lon="6.59716">
        <ele>388.68</ele>
        <time>2000-01-01T00:00:00Z</time>
      </trkpt>
      <trkpt lat="47.57728" lon="6.59712">
        <ele>386.35</ele>
        <time>2000-01-01T00:00:00Z</time>
      </trkpt>
      <trkpt lat="47.57701" lon="6.59708">
        <ele>384.38</ele>
        <time>2000-01-01T00:00:00Z</time>
      </trkpt>
      <trkpt lat="47.57674" lon="6.59704">
        <ele>382.4</ele>
        <time>2000-01-01T00:00:00Z</time>
      </trkpt>
      <trkpt lat="47.57647" lon="6.597">
        <ele>380.77</ele>
        <time>2000-01-01T00:00:00Z</time>
      </trkpt>
      <trkpt lat="47.5762" lon="6.59696">
        <ele>378.98</ele>
        <time>2000-01-01T00:00:00Z</time>
      </trkpt>
      <trkpt lat="47.57593" lon="6.59692">
        <ele>376.87</ele>
        <time>2000-01-01T00:00:00Z</time>
      </trkpt>
      <trkpt lat="47.57567" lon="6.59688">
        <ele>374.62</ele>
        <time>2000-01-01T00:00:00Z</time>
      </trkpt>
      <trkpt lat="47.5754" lon="6.59684">
        <ele>371.74</ele>
        <time>2000-01-01T00:00:00Z</time>
      </trkpt>
      <trkpt lat="47.57513" lon="6.5968">
        <ele>367.79</ele>
        <time>2000-01-01T00:00:00Z</time>
      </trkpt>
      <trkpt lat="47.57508" lon="6.59679">
        <ele>366.98875296604</ele>
        <time>2000-01-01T00:00:00Z</time>
      </trkpt>
      <trkpt lat="47.57486" lon="6.59672">
        <ele>363.27</ele>
        <time>2000-01-01T00:00:00Z</time>
      </trkpt>
      <trkpt lat="47.5746" lon="6.59663">
        <ele>358.11</ele>
        <time>2000-01-01T00:00:00Z</time>
      </trkpt>
      <trkpt lat="47.57434" lon="6.59654">
        <ele>352.99</ele>
        <time>2000-01-01T00:00:00Z</time>
      </trkpt>
      <trkpt lat="47.57425" lon="6.59651">
        <ele>351.02889547291</ele>
        <time>2000-01-01T00:00:00Z</time>
      </trkpt>
      <trkpt lat="47.57407" lon="6.59648">
        <ele>347.03</ele>
        <time>2000-01-01T00:00:00Z</time>
      </trkpt>
      <trkpt lat="47.57381" lon="6.59644">
        <ele>340.71180741615</ele>
        <time>2000-01-01T00:00:00Z</time>
      </trkpt>
      <trkpt lat="47.57354" lon="6.59637">
        <ele>335.2</ele>
        <time>2000-01-01T00:00:00Z</time>
      </trkpt>
      <trkpt lat="47.57333" lon="6.59632">
        <ele>331.95857864052</ele>
        <time>2000-01-01T00:00:00Z</time>
      </trkpt>
      <trkpt lat="47.57328" lon="6.59627">
        <ele>330.99</ele>
        <time>2000-01-01T00:00:00Z</time>
      </trkpt>
      <trkpt lat="47.57306" lon="6.59603">
        <ele>328.12</ele>
        <time>2000-01-01T00:00:00Z</time>
      </trkpt>
      <trkpt lat="47.57288" lon="6.59583">
        <ele>326.56244655924</ele>
        <time>2000-01-01T00:00:00Z</time>
      </trkpt>
      <trkpt lat="47.57285" lon="6.59578">
        <ele>326.26</ele>
        <time>2000-01-01T00:00:00Z</time>
      </trkpt>
      <trkpt lat="47.57269" lon="6.59546">
        <ele>325.12</ele>
        <time>2000-01-01T00:00:00Z</time>
      </trkpt>
      <trkpt lat="47.57268" lon="6.59545">
        <ele>325.09148864522</ele>
        <time>2000-01-01T00:00:00Z</time>
      </trkpt>
      <trkpt lat="47.57254" lon="6.59513">
        <ele>324.43</ele>
        <time>2000-01-01T00:00:00Z</time>
      </trkpt>
      <trkpt lat="47.5724" lon="6.59479">
        <ele>323.77</ele>
        <time>2000-01-01T00:00:00Z</time>
      </trkpt>
      <trkpt lat="47.5723" lon="6.59456">
        <ele>323.33968294637</ele>
        <time>2000-01-01T00:00:00Z</time>
      </trkpt>
      <trkpt lat="47.57225" lon="6.59446">
        <ele>323.13</ele>
        <time>2000-01-01T00:00:00Z</time>
      </trkpt>
      <trkpt lat="47.57195" lon="6.59391">
        <ele>322.39506631078</ele>
        <time>2000-01-01T00:00:00Z</time>
      </trkpt>
      <trkpt lat="47.57191" lon="6.59383">
        <ele>322.29</ele>
        <time>2000-01-01T00:00:00Z</time>
      </trkpt>
      <trkpt lat="47.57182" lon="6.59366">
        <ele>321.44482986601</ele>
        <time>2000-01-01T00:00:00Z</time>
      </trkpt>
      <trkpt lat="47.57171" lon="6.59356">
        <ele>320.72</ele>
        <time>2000-01-01T00:00:00Z</time>
      </trkpt>
      <trkpt lat="47.57148" lon="6.59335">
        <ele>318.44095767261</ele>
        <time>2000-01-01T00:00:00Z</time>
      </trkpt>
      <trkpt lat="47.57123" lon="6.59322">
        <ele>316.09</ele>
        <time>2000-01-01T00:00:00Z</time>
      </trkpt>
      <trkpt lat="47.57098" lon="6.59309">
        <ele>314.36</ele>
        <time>2000-01-01T00:00:00Z</time>
      </trkpt>
      <trkpt lat="47.57079" lon="6.59299">
        <ele>313.89611615633</ele>
        <time>2000-01-01T00:00:00Z</time>
      </trkpt>
      <trkpt lat="47.57072" lon="6.59297">
        <ele>313.72</ele>
        <time>2000-01-01T00:00:00Z</time>
      </trkpt>
      <trkpt lat="47.57059" lon="6.59294">
        <ele>313.81991948939</ele>
        <time>2000-01-01T00:00:00Z</time>
      </trkpt>
      <trkpt lat="47.57045" lon="6.59294">
        <ele>313.93</ele>
        <time>2000-01-01T00:00:00Z</time>
      </trkpt>
      <trkpt lat="47.57035" lon="6.59294">
        <ele>314.24706402748</ele>
        <time>2000-01-01T00:00:00Z</time>
      </trkpt>
      <trkpt lat="47.57018" lon="6.59297">
        <ele>314.8</ele>
        <time>2000-01-01T00:00:00Z</time>
      </trkpt>
      <trkpt lat="47.56968" lon="6.59304">
        <ele>315.84034479369</ele>
        <time>2000-01-01T00:00:00Z</time>
      </trkpt>
      <trkpt lat="47.56964" lon="6.59303">
        <ele>315.92</ele>
        <time>2000-01-01T00:00:00Z</time>
      </trkpt>
      <trkpt lat="47.56938" lon="6.59295">
        <ele>317.83</ele>
        <time>2000-01-01T00:00:00Z</time>
      </trkpt>
      <trkpt lat="47.56911" lon="6.59288">
        <ele>320.02</ele>
        <time>2000-01-01T00:00:00Z</time>
      </trkpt>
      <trkpt lat="47.56885" lon="6.5928">
        <ele>321.87</ele>
        <time>2000-01-01T00:00:00Z</time>
      </trkpt>
      <trkpt lat="47.56868" lon="6.59275">
        <ele>323.05555016843</ele>
        <time>2000-01-01T00:00:00Z</time>
      </trkpt>
      <trkpt lat="47.56858" lon="6.59273">
        <ele>323.75</ele>
        <time>2000-01-01T00:00:00Z</time>
      </trkpt>
      <trkpt lat="47.56832" lon="6.59266">
        <ele>326.1</ele>
        <time>2000-01-01T00:00:00Z</time>
      </trkpt>
      <trkpt lat="47.56805" lon="6.5926">
        <ele>329.11</ele>
        <time>2000-01-01T00:00:00Z</time>
      </trkpt>
      <trkpt lat="47.56798" lon="6.59258">
        <ele>329.83224415542</ele>
        <time>2000-01-01T00:00:00Z</time>
      </trkpt>
      <trkpt lat="47.5678" lon="6.59245">
        <ele>331.92</ele>
        <time>2000-01-01T00:00:00Z</time>
      </trkpt>
      <trkpt lat="47.56756" lon="6.59227">
        <ele>333.93</ele>
        <time>2000-01-01T00:00:00Z</time>
      </trkpt>
      <trkpt lat="47.56732" lon="6.59209">
        <ele>335.1</ele>
        <time>2000-01-01T00:00:00Z</time>
      </trkpt>
      <trkpt lat="47.56708" lon="6.59191">
        <ele>335.28</ele>
        <time>2000-01-01T00:00:00Z</time>
      </trkpt>
      <trkpt lat="47.56699" lon="6.59184">
        <ele>335.21234361768</ele>
        <time>2000-01-01T00:00:00Z</time>
      </trkpt>
      <trkpt lat="47.56697" lon="6.59172">
        <ele>335.15470024781</ele>
        <time>2000-01-01T00:00:00Z</time>
      </trkpt>
      <trkpt lat="47.56668" lon="6.5909">
        <ele>334.72</ele>
        <time>2000-01-01T00:00:00Z</time>
      </trkpt>
      <trkpt lat="47.56655" lon="6.59054">
        <ele>334.03</ele>
        <time>2000-01-01T00:00:00Z</time>
      </trkpt>
      <trkpt lat="47.56645" lon="6.59026">
        <ele>333.78332395893</ele>
        <time>2000-01-01T00:00:00Z</time>
      </trkpt>
      <trkpt lat="47.56642" lon="6.59019">
        <ele>333.72</ele>
        <time>2000-01-01T00:00:00Z</time>
      </trkpt>
      <trkpt lat="47.56615" lon="6.5895">
        <ele>333.64</ele>
        <time>2000-01-01T00:00:00Z</time>
      </trkpt>
      <trkpt lat="47.56612" lon="6.58943">
        <ele>333.70481528045</ele>
        <time>2000-01-01T00:00:00Z</time>
      </trkpt>
      <trkpt lat="47.566" lon="6.58916">
        <ele>333.96</ele>
        <time>2000-01-01T00:00:00Z</time>
      </trkpt>
      <trkpt lat="47.56586" lon="6.58882">
        <ele>334.65</ele>
        <time>2000-01-01T00:00:00Z</time>
      </trkpt>
      <trkpt lat="47.56585" lon="6.5888">
        <ele>334.66611506558</ele>
        <time>2000-01-01T00:00:00Z</time>
      </trkpt>
      <trkpt lat="47.5657" lon="6.58817">
        <ele>335.06669115679</ele>
        <time>2000-01-01T00:00:00Z</time>
      </trkpt>
      <trkpt lat="47.56567" lon="6.58785">
        <ele>335.26040669421</ele>
        <time>2000-01-01T00:00:00Z</time>
      </trkpt>
      <trkpt lat="47.56566" lon="6.58767">
        <ele>335.37</ele>
        <time>2000-01-01T00:00:00Z</time>
      </trkpt>
      <trkpt lat="47.56565" lon="6.58751">
        <ele>335.70265546255</ele>
        <time>2000-01-01T00:00:00Z</time>
      </trkpt>
      <trkpt lat="47.56568" lon="6.58727">
        <ele>336.21</ele>
        <time>2000-01-01T00:00:00Z</time>
      </trkpt>
      <trkpt lat="47.56569" lon="6.58714">
        <ele>336.23657547207</ele>
        <time>2000-01-01T00:00:00Z</time>
      </trkpt>
      <trkpt lat="47.56581" lon="6.58672">
        <ele>336.32773510238</ele>
        <time>2000-01-01T00:00:00Z</time>
      </trkpt>
      <trkpt lat="47.56585" lon="6.58652">
        <ele>336.37</ele>
        <time>2000-01-01T00:00:00Z</time>
      </trkpt>
      <trkpt lat="47.56586" lon="6.58646">
        <ele>336.37294243902</ele>
        <time>2000-01-01T00:00:00Z</time>
      </trkpt>
      <trkpt lat="47.56587" lon="6.58612">
        <ele>336.39</ele>
        <time>2000-01-01T00:00:00Z</time>
      </trkpt>
      <trkpt lat="47.56588" lon="6.58581">
        <ele>336.32818211367</ele>
        <time>2000-01-01T00:00:00Z</time>
      </trkpt>
      <trkpt lat="47.56588" lon="6.58572">
        <ele>336.31</ele>
        <time>2000-01-01T00:00:00Z</time>
      </trkpt>
      <trkpt lat="47.56586" lon="6.58532">
        <ele>336.13</ele>
        <time>2000-01-01T00:00:00Z</time>
      </trkpt>
      <trkpt lat="47.56585" lon="6.58522">
        <ele>336.17892890425</ele>
        <time>2000-01-01T00:00:00Z</time>
      </trkpt>
      <trkpt lat="47.56578" lon="6.58476">
        <ele>336.40865782687</ele>
        <time>2000-01-01T00:00:00Z</time>
      </trkpt>
      <trkpt lat="47.56569" lon="6.58457">
        <ele>336.52</ele>
        <time>2000-01-01T00:00:00Z</time>
      </trkpt>
      <trkpt lat="47.56561" lon="6.58439">
        <ele>336.84841526655</ele>
        <time>2000-01-01T00:00:00Z</time>
      </trkpt>
      <trkpt lat="47.56554" lon="6.58425">
        <ele>337.12</ele>
        <time>2000-01-01T00:00:00Z</time>
      </trkpt>
      <trkpt lat="47.56537" lon="6.58393">
        <ele>339.52</ele>
        <time>2000-01-01T00:00:00Z</time>
      </trkpt>
      <trkpt lat="47.56521" lon="6.58361">
        <ele>339.52</ele>
        <time>2000-01-01T00:00:00Z</time>
      </trkpt>
      <trkpt lat="47.5652" lon="6.58359">
        <ele>339.29291488458</ele>
        <time>2000-01-01T00:00:00Z</time>
      </trkpt>
      <trkpt lat="47.56542" lon="6.5834">
        <ele>335.55</ele>
        <time>2000-01-01T00:00:00Z</time>
      </trkpt>
    </trkseg>
  </trk>
  <trk>
    <name><![CDATA[Essai parcours rouge_2]]></name>
    <trkseg>
      <trkpt lat="47.62849" lon="6.54607">
        <ele>309</ele>
        <time>2020-12-10T18:39:43+01:00</time>
      </trkpt>
      <trkpt lat="47.62849" lon="6.54607">
        <ele>309</ele>
        <time>2020-12-10T18:39:43+01:00</time>
      </trkpt>
      <trkpt lat="47.62852" lon="6.54745">
        <ele>311</ele>
        <time>2020-12-10T18:39:43+01:00</time>
      </trkpt>
      <trkpt lat="47.62881" lon="6.54929">
        <ele>312</ele>
        <time>2020-12-10T18:39:43+01:00</time>
      </trkpt>
      <trkpt lat="47.6287" lon="6.55062">
        <ele>311</ele>
        <time>2020-12-10T18:39:43+01:00</time>
      </trkpt>
      <trkpt lat="47.62896" lon="6.55071">
        <ele>310</ele>
        <time>2020-12-10T18:39:43+01:00</time>
      </trkpt>
      <trkpt lat="47.6298" lon="6.55247">
        <ele>298</ele>
        <time>2020-12-10T18:39:43+01:00</time>
      </trkpt>
      <trkpt lat="47.62936" lon="6.55371">
        <ele>292</ele>
        <time>2020-12-10T18:39:43+01:00</time>
      </trkpt>
      <trkpt lat="47.62988" lon="6.55517">
        <ele>295</ele>
        <time>2020-12-10T18:39:43+01:00</time>
      </trkpt>
      <trkpt lat="47.63049" lon="6.55573">
        <ele>297</ele>
        <time>2020-12-10T18:39:43+01:00</time>
      </trkpt>
      <trkpt lat="47.63052" lon="6.55612">
        <ele>297</ele>
        <time>2020-12-10T18:39:43+01:00</time>
      </trkpt>
      <trkpt lat="47.6311" lon="6.55727">
        <ele>303</ele>
        <time>2020-12-10T18:39:44+01:00</time>
      </trkpt>
      <trkpt lat="47.63182" lon="6.56062">
        <ele>308</ele>
        <time>2020-12-10T18:39:44+01:00</time>
      </trkpt>
      <trkpt lat="47.63194" lon="6.56221">
        <ele>299</ele>
        <time>2020-12-10T18:39:44+01:00</time>
      </trkpt>
      <trkpt lat="47.63257" lon="6.56255">
        <ele>297</ele>
        <time>2020-12-10T18:39:44+01:00</time>
      </trkpt>
      <trkpt lat="47.63373" lon="6.56251">
        <ele>311</ele>
        <time>2020-12-10T18:39:45+01:00</time>
      </trkpt>
      <trkpt lat="47.63463" lon="6.56427">
        <ele>297</ele>
        <time>2020-12-10T18:39:45+01:00</time>
      </trkpt>
      <trkpt lat="47.63538" lon="6.56457">
        <ele>299</ele>
        <time>2020-12-10T18:39:45+01:00</time>
      </trkpt>
      <trkpt lat="47.63471" lon="6.56543">
        <ele>297</ele>
        <time>2020-12-10T18:39:46+01:00</time>
      </trkpt>
      <trkpt lat="47.63538" lon="6.56642">
        <ele>307</ele>
        <time>2020-12-10T18:39:46+01:00</time>
      </trkpt>
      <trkpt lat="47.63665" lon="6.56599">
        <ele>323</ele>
        <time>2020-12-10T18:39:46+01:00</time>
      </trkpt>
      <trkpt lat="47.63795" lon="6.5644">
        <ele>321</ele>
        <time>2020-12-10T18:39:47+01:00</time>
      </trkpt>
      <trkpt lat="47.63986" lon="6.56466">
        <ele>311</ele>
        <time>2020-12-10T18:39:47+01:00</time>
      </trkpt>
      <trkpt lat="47.64119" lon="6.56345">
        <ele>303</ele>
        <time>2020-12-10T18:39:48+01:00</time>
      </trkpt>
      <trkpt lat="47.6455" lon="6.5771">
        <ele>306</ele>
        <time>2020-12-10T18:39:48+01:00</time>
      </trkpt>
      <trkpt lat="47.64599" lon="6.57753">
        <ele>306</ele>
        <time>2020-12-10T18:39:49+01:00</time>
      </trkpt>
      <trkpt lat="47.64504" lon="6.57792">
        <ele>301</ele>
        <time>2020-12-10T18:39:50+01:00</time>
      </trkpt>
      <trkpt lat="47.64452" lon="6.5777">
        <ele>300</ele>
        <time>2020-12-10T18:39:51+01:00</time>
      </trkpt>
      <trkpt lat="47.64301" lon="6.57959">
        <ele>307</ele>
        <time>2020-12-10T18:39:51+01:00</time>
      </trkpt>
      <trkpt lat="47.64293" lon="6.58015">
        <ele>312</ele>
        <time>2020-12-10T18:39:52+01:00</time>
      </trkpt>
      <trkpt lat="47.64113" lon="6.58272">
        <ele>327</ele>
        <time>2020-12-10T18:39:53+01:00</time>
      </trkpt>
      <trkpt lat="47.64113" lon="6.59071">
        <ele>339</ele>
        <time>2020-12-10T18:39:54+01:00</time>
      </trkpt>
      <trkpt lat="47.64041" lon="6.59062">
        <ele>337</ele>
        <time>2020-12-10T18:39:55+01:00</time>
      </trkpt>
      <trkpt lat="47.63836" lon="6.60139">
        <ele>347</ele>
        <time>2020-12-10T18:39:56+01:00</time>
      </trkpt>
      <trkpt lat="47.63766" lon="6.61199">
        <ele>353</ele>
        <time>2020-12-10T18:39:57+01:00</time>
      </trkpt>
      <trkpt lat="47.63769" lon="6.61448">
        <ele>359</ele>
        <time>2020-12-10T18:39:59+01:00</time>
      </trkpt>
      <trkpt lat="47.63778" lon="6.61469">
        <ele>360</ele>
        <time>2020-12-10T18:40:00+01:00</time>
      </trkpt>
      <trkpt lat="47.63642" lon="6.61714">
        <ele>351</ele>
        <time>2020-12-10T18:40:01+01:00</time>
      </trkpt>
      <trkpt lat="47.63581" lon="6.6165">
        <ele>344</ele>
        <time>2020-12-10T18:40:02+01:00</time>
      </trkpt>
      <trkpt lat="47.63575" lon="6.61744">
        <ele>338</ele>
        <time>2020-12-10T18:40:04+01:00</time>
      </trkpt>
      <trkpt lat="47.63552" lon="6.61723">
        <ele>337</ele>
        <time>2020-12-10T18:40:05+01:00</time>
      </trkpt>
      <trkpt lat="47.63535" lon="6.61607">
        <ele>330</ele>
        <time>2020-12-10T18:40:07+01:00</time>
      </trkpt>
      <trkpt lat="47.63497" lon="6.61564">
        <ele>320</ele>
        <time>2020-12-10T18:40:08+01:00</time>
      </trkpt>
      <trkpt lat="47.63468" lon="6.61637">
        <ele>320</ele>
        <time>2020-12-10T18:40:09+01:00</time>
      </trkpt>
      <trkpt lat="47.63442" lon="6.61637">
        <ele>322</ele>
        <time>2020-12-10T18:40:11+01:00</time>
      </trkpt>
      <trkpt lat="47.63382" lon="6.61422">
        <ele>321</ele>
        <time>2020-12-10T18:40:12+01:00</time>
      </trkpt>
      <trkpt lat="47.63225" lon="6.61594">
        <ele>359</ele>
        <time>2020-12-10T18:40:14+01:00</time>
      </trkpt>
      <trkpt lat="47.62994" lon="6.61791">
        <ele>372</ele>
        <time>2020-12-10T18:40:15+01:00</time>
      </trkpt>
      <trkpt lat="47.62832" lon="6.61826">
        <ele>372</ele>
        <time>2020-12-10T18:40:17+01:00</time>
      </trkpt>
      <trkpt lat="47.62531" lon="6.61542">
        <ele>387</ele>
        <time>2020-12-10T18:40:18+01:00</time>
      </trkpt>
      <trkpt lat="47.62554" lon="6.61714">
        <ele>392</ele>
        <time>2020-12-10T18:40:20+01:00</time>
      </trkpt>
      <trkpt lat="47.62537" lon="6.61877">
        <ele>397</ele>
        <time>2020-12-10T18:40:22+01:00</time>
      </trkpt>
      <trkpt lat="47.62554" lon="6.62315">
        <ele>427</ele>
        <time>2020-12-10T18:40:24+01:00</time>
      </trkpt>
      <trkpt lat="47.62615" lon="6.6274">
        <ele>440</ele>
        <time>2020-12-10T18:40:25+01:00</time>
      </trkpt>
      <trkpt lat="47.62586" lon="6.62766">
        <ele>439</ele>
        <time>2020-12-10T18:40:27+01:00</time>
      </trkpt>
      <trkpt lat="47.62607" lon="6.62894">
        <ele>439</ele>
        <time>2020-12-10T18:40:29+01:00</time>
      </trkpt>
      <trkpt lat="47.62476" lon="6.62997">
        <ele>438</ele>
        <time>2020-12-10T18:40:31+01:00</time>
      </trkpt>
      <trkpt lat="47.62413" lon="6.62989">
        <ele>436</ele>
        <time>2020-12-10T18:40:33+01:00</time>
      </trkpt>
      <trkpt lat="47.6228" lon="6.62916">
        <ele>420</ele>
        <time>2020-12-10T18:40:35+01:00</time>
      </trkpt>
      <trkpt lat="47.62262" lon="6.6304">
        <ele>413</ele>
        <time>2020-12-10T18:40:37+01:00</time>
      </trkpt>
      <trkpt lat="47.62358" lon="6.63332">
        <ele>417</ele>
        <time>2020-12-10T18:40:39+01:00</time>
      </trkpt>
      <trkpt lat="47.62393" lon="6.63564">
        <ele>408</ele>
        <time>2020-12-10T18:40:40+01:00</time>
      </trkpt>
      <trkpt lat="47.62381" lon="6.63607">
        <ele>403</ele>
        <time>2020-12-10T18:40:42+01:00</time>
      </trkpt>
      <trkpt lat="47.62352" lon="6.63487">
        <ele>394</ele>
        <time>2020-12-10T18:40:45+01:00</time>
      </trkpt>
      <trkpt lat="47.62251" lon="6.63199">
        <ele>390</ele>
        <time>2020-12-10T18:40:47+01:00</time>
      </trkpt>
      <trkpt lat="47.62199" lon="6.63002">
        <ele>383</ele>
        <time>2020-12-10T18:40:49+01:00</time>
      </trkpt>
      <trkpt lat="47.62219" lon="6.62774">
        <ele>368</ele>
        <time>2020-12-10T18:40:51+01:00</time>
      </trkpt>
      <trkpt lat="47.6232" lon="6.62744">
        <ele>364</ele>
        <time>2020-12-10T18:40:53+01:00</time>
      </trkpt>
      <trkpt lat="47.62271" lon="6.6271">
        <ele>354</ele>
        <time>2020-12-10T18:40:55+01:00</time>
      </trkpt>
      <trkpt lat="47.621" lon="6.6271">
        <ele>329</ele>
        <time>2020-12-10T18:40:57+01:00</time>
      </trkpt>
      <trkpt lat="47.62126" lon="6.62637">
        <ele>329</ele>
        <time>2020-12-10T18:40:59+01:00</time>
      </trkpt>
      <trkpt lat="47.62002" lon="6.62306">
        <ele>330</ele>
        <time>2020-12-10T18:41:02+01:00</time>
      </trkpt>
      <trkpt lat="47.61814" lon="6.62015">
        <ele>329</ele>
        <time>2020-12-10T18:41:04+01:00</time>
      </trkpt>
      <trkpt lat="47.61776" lon="6.61929">
        <ele>329</ele>
        <time>2020-12-10T18:41:06+01:00</time>
      </trkpt>
      <trkpt lat="47.61768" lon="6.6183">
        <ele>328</ele>
        <time>2020-12-10T18:41:09+01:00</time>
      </trkpt>
      <trkpt lat="47.61743" lon="6.6198">
        <ele>321</ele>
      </trkpt>
      <trkpt lat="47.61659" lon="6.61976">
        <ele>319</ele>
      </trkpt>
      <trkpt lat="47.6159" lon="6.61826">
        <ele>320</ele>
      </trkpt>
      <trkpt lat="47.61532" lon="6.61869">
        <ele>325</ele>
      </trkpt>
      <trkpt lat="47.61477" lon="6.61839">
        <ele>336</ele>
      </trkpt>
      <trkpt lat="47.61457" lon="6.61881">
        <ele>333</ele>
      </trkpt>
      <trkpt lat="47.61405" lon="6.61907">
        <ele>337</ele>
      </trkpt>
      <trkpt lat="47.6135" lon="6.62032">
        <ele>345</ele>
      </trkpt>
      <trkpt lat="47.61329" lon="6.61817">
        <ele>358</ele>
      </trkpt>
      <trkpt lat="47.61457" lon="6.61693">
        <ele>363</ele>
      </trkpt>
      <trkpt lat="47.61483" lon="6.61577">
        <ele>372</ele>
      </trkpt>
      <trkpt lat="47.61413" lon="6.61478">
        <ele>403</ele>
      </trkpt>
      <trkpt lat="47.61292" lon="6.60706">
        <ele>403</ele>
      </trkpt>
      <trkpt lat="47.6128" lon="6.60414">
        <ele>413</ele>
      </trkpt>
      <trkpt lat="47.61101" lon="6.6047">
        <ele>416</ele>
      </trkpt>
      <trkpt lat="47.61101" lon="6.60534">
        <ele>419</ele>
      </trkpt>
      <trkpt lat="47.61075" lon="6.60783">
        <ele>428</ele>
      </trkpt>
      <trkpt lat="47.61112" lon="6.60937">
        <ele>432</ele>
      </trkpt>
      <trkpt lat="47.61002" lon="6.60894">
        <ele>427</ele>
      </trkpt>
      <trkpt lat="47.61005" lon="6.60993">
        <ele>430</ele>
      </trkpt>
      <trkpt lat="47.61075" lon="6.61263">
        <ele>439</ele>
      </trkpt>
      <trkpt lat="47.6111" lon="6.61654">
        <ele>439</ele>
      </trkpt>
      <trkpt lat="47.60835" lon="6.61907">
        <ele>434</ele>
      </trkpt>
      <trkpt lat="47.60765" lon="6.62032">
        <ele>431</ele>
        <time>2020-12-10T18:41:11+01:00</time>
      </trkpt>
      <trkpt lat="47.60673" lon="6.62045">
        <ele>431</ele>
        <time>2020-12-10T18:41:13+01:00</time>
      </trkpt>
      <trkpt lat="47.60508" lon="6.61963">
        <ele>430</ele>
        <time>2020-12-10T18:41:16+01:00</time>
      </trkpt>
      <trkpt lat="47.60392" lon="6.62019">
        <ele>425</ele>
        <time>2020-12-10T18:41:18+01:00</time>
      </trkpt>
      <trkpt lat="47.60215" lon="6.6183">
        <ele>410</ele>
        <time>2020-12-10T18:41:21+01:00</time>
      </trkpt>
      <trkpt lat="47.60204" lon="6.61736">
        <ele>406</ele>
        <time>2020-12-10T18:41:23+01:00</time>
      </trkpt>
      <trkpt lat="47.60134" lon="6.61718">
        <ele>401</ele>
        <time>2020-12-10T18:41:26+01:00</time>
      </trkpt>
      <trkpt lat="47.60077" lon="6.6162">
        <ele>396</ele>
        <time>2020-12-10T18:41:28+01:00</time>
      </trkpt>
      <trkpt lat="47.59975" lon="6.61718">
        <ele>391</ele>
        <time>2020-12-10T18:41:31+01:00</time>
      </trkpt>
      <trkpt lat="47.59888" lon="6.6171">
        <ele>400</ele>
        <time>2020-12-10T18:41:34+01:00</time>
      </trkpt>
      <trkpt lat="47.597" lon="6.61916">
        <ele>418</ele>
        <time>2020-12-10T18:41:36+01:00</time>
      </trkpt>
      <trkpt lat="47.59744" lon="6.6204">
        <ele>408</ele>
        <time>2020-12-10T18:41:39+01:00</time>
      </trkpt>
      <trkpt lat="47.59877" lon="6.62109">
        <ele>390</ele>
        <time>2020-12-10T18:41:42+01:00</time>
      </trkpt>
      <trkpt lat="47.60022" lon="6.62225">
        <ele>369</ele>
        <time>2020-12-10T18:41:45+01:00</time>
      </trkpt>
      <trkpt lat="47.60062" lon="6.62401">
        <ele>360</ele>
        <time>2020-12-10T18:41:47+01:00</time>
      </trkpt>
      <trkpt lat="47.60003" lon="6.62482">
        <ele>360</ele>
        <time>2020-12-10T18:41:50+01:00</time>
      </trkpt>
      <trkpt lat="47.60066" lon="6.62503">
        <ele>362.9</ele>
      </trkpt>
      <trkpt lat="47.60066" lon="6.62503">
        <ele>362.9</ele>
      </trkpt>
      <trkpt lat="47.6005" lon="6.62655">
        <ele>359.4</ele>
      </trkpt>
      <trkpt lat="47.6005" lon="6.62655">
        <ele>359.4</ele>
      </trkpt>
      <trkpt lat="47.59969" lon="6.62807">
        <ele>363.2</ele>
      </trkpt>
      <trkpt lat="47.59969" lon="6.62807">
        <ele>363.2</ele>
      </trkpt>
      <trkpt lat="47.60007" lon="6.62871">
        <ele>358.4</ele>
      </trkpt>
      <trkpt lat="47.60007" lon="6.62871">
        <ele>358.4</ele>
      </trkpt>
      <trkpt lat="47.60125" lon="6.62759">
        <ele>347.6</ele>
      </trkpt>
      <trkpt lat="47.60125" lon="6.62759">
        <ele>347.6</ele>
      </trkpt>
      <trkpt lat="47.60196" lon="6.62847">
        <ele>356.8</ele>
      </trkpt>
      <trkpt lat="47.60196" lon="6.62847">
        <ele>356.8</ele>
      </trkpt>
      <trkpt lat="47.60287" lon="6.62975">
        <ele>350.3</ele>
      </trkpt>
      <trkpt lat="47.60287" lon="6.62975">
        <ele>350.3</ele>
      </trkpt>
      <trkpt lat="47.60352" lon="6.63007">
        <ele>342.2</ele>
      </trkpt>
      <trkpt lat="47.60352" lon="6.63007">
        <ele>342.2</ele>
      </trkpt>
    </trkseg>
  </trk>
  <trk>
    <name><![CDATA[Essai parcours rouge_3]]></name>
    <trkseg>
      <trkpt lat="47.589" lon="6.62371">
        <ele>430</ele>
        <time>2020-12-10T18:42:17+01:00</time>
      </trkpt>
      <trkpt lat="47.58923" lon="6.62268">
        <ele>437</ele>
        <time>2020-12-10T18:42:20+01:00</time>
      </trkpt>
      <trkpt lat="47.58871" lon="6.62186">
        <ele>439</ele>
        <time>2020-12-10T18:42:23+01:00</time>
      </trkpt>
      <trkpt lat="47.58865" lon="6.62118">
        <ele>443</ele>
        <time>2020-12-10T18:42:26+01:00</time>
      </trkpt>
      <trkpt lat="47.58796" lon="6.6207">
        <ele>444</ele>
        <time>2020-12-10T18:42:29+01:00</time>
      </trkpt>
      <trkpt lat="47.5879" lon="6.61899">
        <ele>460</ele>
        <time>2020-12-10T18:42:32+01:00</time>
      </trkpt>
      <trkpt lat="47.58767" lon="6.61658">
        <ele>452</ele>
        <time>2020-12-10T18:42:35+01:00</time>
      </trkpt>
      <trkpt lat="47.58666" lon="6.61401">
        <ele>437</ele>
        <time>2020-12-10T18:42:38+01:00</time>
      </trkpt>
      <trkpt lat="47.58486" lon="6.61092">
        <ele>427</ele>
        <time>2020-12-10T18:42:42+01:00</time>
      </trkpt>
      <trkpt lat="47.58415" lon="6.60753">
        <ele>426</ele>
        <time>2020-12-10T18:42:45+01:00</time>
      </trkpt>
      <trkpt lat="47.58554" lon="6.60714">
        <ele>426</ele>
        <time>2020-12-10T18:42:48+01:00</time>
      </trkpt>
      <trkpt lat="47.58609" lon="6.60667">
        <ele>418</ele>
        <time>2020-12-10T18:42:52+01:00</time>
      </trkpt>
      <trkpt lat="47.58728" lon="6.60646">
        <ele>405</ele>
        <time>2020-12-10T18:42:55+01:00</time>
      </trkpt>
      <trkpt lat="47.58815" lon="6.6062">
        <ele>402</ele>
        <time>2020-12-10T18:42:58+01:00</time>
      </trkpt>
      <trkpt lat="47.58945" lon="6.60688">
        <ele>375</ele>
        <time>2020-12-10T18:43:02+01:00</time>
      </trkpt>
      <trkpt lat="47.59006" lon="6.60633">
        <ele>371</ele>
        <time>2020-12-10T18:43:05+01:00</time>
      </trkpt>
      <trkpt lat="47.59084" lon="6.60543">
        <ele>370</ele>
        <time>2020-12-10T18:43:09+01:00</time>
      </trkpt>
      <trkpt lat="47.59104" lon="6.6044">
        <ele>363</ele>
        <time>2020-12-10T18:43:12+01:00</time>
      </trkpt>
      <trkpt lat="47.59156" lon="6.60371">
        <ele>360</ele>
        <time>2020-12-10T18:43:15+01:00</time>
      </trkpt>
      <trkpt lat="47.59232" lon="6.60388">
        <ele>356</ele>
        <time>2020-12-10T18:43:19+01:00</time>
      </trkpt>
      <trkpt lat="47.59304" lon="6.60328">
        <ele>345</ele>
        <time>2020-12-10T18:43:23+01:00</time>
      </trkpt>
      <trkpt lat="47.59347" lon="6.60276">
        <ele>338</ele>
        <time>2020-12-10T18:43:26+01:00</time>
      </trkpt>
      <trkpt lat="47.59394" lon="6.60225">
        <ele>330</ele>
        <time>2020-12-10T18:43:30+01:00</time>
      </trkpt>
      <trkpt lat="47.59421" lon="6.60203">
        <ele>330</ele>
        <time>2020-12-10T18:43:33+01:00</time>
      </trkpt>
      <trkpt lat="47.59405" lon="6.59993">
        <ele>351</ele>
      </trkpt>
      <trkpt lat="47.59381" lon="6.5977">
        <ele>385</ele>
        <time>2020-12-10T18:43:37+01:00</time>
      </trkpt>
      <trkpt lat="47.59214" lon="6.59513">
        <ele>399</ele>
        <time>2020-12-10T18:43:41+01:00</time>
      </trkpt>
      <trkpt lat="47.59337" lon="6.59478">
        <ele>439</ele>
        <time>2020-12-10T18:43:45+01:00</time>
      </trkpt>
      <trkpt lat="47.59297" lon="6.59079">
        <ele>390</ele>
        <time>2020-12-10T18:43:49+01:00</time>
      </trkpt>
      <trkpt lat="47.59276" lon="6.59062">
        <ele>391</ele>
        <time>2020-12-10T18:43:52+01:00</time>
      </trkpt>
      <trkpt lat="47.59201" lon="6.58834">
        <ele>376</ele>
        <time>2020-12-10T18:43:56+01:00</time>
      </trkpt>
      <trkpt lat="47.59305" lon="6.5877">
        <ele>385</ele>
        <time>2020-12-10T18:44:00+01:00</time>
      </trkpt>
      <trkpt lat="47.59383" lon="6.58762">
        <ele>379</ele>
        <time>2020-12-10T18:44:04+01:00</time>
      </trkpt>
      <trkpt lat="47.59421" lon="6.5874">
        <ele>372</ele>
        <time>2020-12-10T18:44:08+01:00</time>
      </trkpt>
      <trkpt lat="47.5969" lon="6.58676">
        <ele>379</ele>
        <time>2020-12-10T18:44:12+01:00</time>
      </trkpt>
      <trkpt lat="47.59855" lon="6.58538">
        <ele>420</ele>
        <time>2020-12-10T18:44:16+01:00</time>
      </trkpt>
      <trkpt lat="47.59884" lon="6.58453">
        <ele>415</ele>
        <time>2020-12-10T18:44:20+01:00</time>
      </trkpt>
      <trkpt lat="47.59832" lon="6.58268">
        <ele>431</ele>
        <time>2020-12-10T18:44:24+01:00</time>
      </trkpt>
      <trkpt lat="47.5982" lon="6.58092">
        <ele>416</ele>
        <time>2020-12-10T18:44:28+01:00</time>
      </trkpt>
      <trkpt lat="47.59774" lon="6.57933">
        <ele>420</ele>
        <time>2020-12-10T18:44:33+01:00</time>
      </trkpt>
      <trkpt lat="47.59803" lon="6.57847">
        <ele>402</ele>
        <time>2020-12-10T18:44:37+01:00</time>
      </trkpt>
      <trkpt lat="47.59757" lon="6.57663">
        <ele>441</ele>
        <time>2020-12-10T18:44:41+01:00</time>
      </trkpt>
      <trkpt lat="47.59789" lon="6.57641">
        <ele>439</ele>
        <time>2020-12-10T18:44:45+01:00</time>
      </trkpt>
      <trkpt lat="47.59886" lon="6.57538">
        <ele>432</ele>
        <time>2020-12-10T18:44:49+01:00</time>
      </trkpt>
      <trkpt lat="47.59915" lon="6.57483">
        <ele>426</ele>
        <time>2020-12-10T18:44:53+01:00</time>
      </trkpt>
      <trkpt lat="47.59894" lon="6.57247">
        <ele>404</ele>
        <time>2020-12-10T18:44:58+01:00</time>
      </trkpt>
      <trkpt lat="47.5988" lon="6.57131">
        <ele>391</ele>
        <time>2020-12-10T18:45:02+01:00</time>
      </trkpt>
      <trkpt lat="47.59828" lon="6.56959">
        <ele>388</ele>
        <time>2020-12-10T18:45:06+01:00</time>
      </trkpt>
      <trkpt lat="47.59793" lon="6.56835">
        <ele>389</ele>
        <time>2020-12-10T18:45:11+01:00</time>
      </trkpt>
      <trkpt lat="47.59747" lon="6.56667">
        <ele>389</ele>
        <time>2020-12-10T18:45:15+01:00</time>
      </trkpt>
      <trkpt lat="47.59697" lon="6.56483">
        <ele>384</ele>
        <time>2020-12-10T18:45:19+01:00</time>
      </trkpt>
      <trkpt lat="47.59683" lon="6.56371">
        <ele>375</ele>
        <time>2020-12-10T18:45:24+01:00</time>
      </trkpt>
      <trkpt lat="47.59657" lon="6.56277">
        <ele>368</ele>
        <time>2020-12-10T18:45:28+01:00</time>
      </trkpt>
      <trkpt lat="47.59648" lon="6.56199">
        <ele>363</ele>
        <time>2020-12-10T18:45:33+01:00</time>
      </trkpt>
      <trkpt lat="47.59608" lon="6.56118">
        <ele>360</ele>
        <time>2020-12-10T18:45:37+01:00</time>
      </trkpt>
      <trkpt lat="47.59614" lon="6.56011">
        <ele>354</ele>
        <time>2020-12-10T18:45:42+01:00</time>
      </trkpt>
      <trkpt lat="47.59637" lon="6.55933">
        <ele>353</ele>
        <time>2020-12-10T18:45:46+01:00</time>
      </trkpt>
      <trkpt lat="47.59657" lon="6.55843">
        <ele>350</ele>
        <time>2020-12-10T18:45:51+01:00</time>
      </trkpt>
      <trkpt lat="47.59718" lon="6.55779">
        <ele>349</ele>
        <time>2020-12-10T18:45:55+01:00</time>
      </trkpt>
      <trkpt lat="47.59755" lon="6.55732">
        <ele>349</ele>
        <time>2020-12-10T18:46:00+01:00</time>
      </trkpt>
      <trkpt lat="47.59807" lon="6.55702">
        <ele>350</ele>
        <time>2020-12-10T18:46:04+01:00</time>
      </trkpt>
      <trkpt lat="47.59842" lon="6.55646">
        <ele>352</ele>
        <time>2020-12-10T18:46:09+01:00</time>
      </trkpt>
      <trkpt lat="47.59891" lon="6.55599">
        <ele>351</ele>
        <time>2020-12-10T18:46:14+01:00</time>
      </trkpt>
      <trkpt lat="47.59972" lon="6.55461">
        <ele>354</ele>
        <time>2020-12-10T18:46:18+01:00</time>
      </trkpt>
      <trkpt lat="47.60049" lon="6.55358">
        <ele>360</ele>
        <time>2020-12-10T18:46:23+01:00</time>
      </trkpt>
      <trkpt lat="47.60252" lon="6.55238">
        <ele>365</ele>
        <time>2020-12-10T18:46:28+01:00</time>
      </trkpt>
      <trkpt lat="47.60451" lon="6.55054">
        <ele>363</ele>
        <time>2020-12-10T18:46:33+01:00</time>
      </trkpt>
      <trkpt lat="47.60541" lon="6.54985">
        <ele>365</ele>
        <time>2020-12-10T18:46:37+01:00</time>
      </trkpt>
      <trkpt lat="47.60657" lon="6.54809">
        <ele>362</ele>
        <time>2020-12-10T18:46:42+01:00</time>
      </trkpt>
      <trkpt lat="47.60767" lon="6.54758">
        <ele>349</ele>
        <time>2020-12-10T18:46:47+01:00</time>
      </trkpt>
      <trkpt lat="47.60796" lon="6.5471">
        <ele>341</ele>
        <time>2020-12-10T18:46:52+01:00</time>
      </trkpt>
      <trkpt lat="47.60917" lon="6.54818">
        <ele>322</ele>
        <time>2020-12-10T18:46:57+01:00</time>
      </trkpt>
      <trkpt lat="47.60992" lon="6.54946">
        <ele>311</ele>
        <time>2020-12-10T18:47:02+01:00</time>
      </trkpt>
      <trkpt lat="47.61068" lon="6.54951">
        <ele>301</ele>
        <time>2020-12-10T18:47:07+01:00</time>
      </trkpt>
      <trkpt lat="47.61169" lon="6.54886">
        <ele>294</ele>
        <time>2020-12-10T18:47:12+01:00</time>
      </trkpt>
      <trkpt lat="47.6125" lon="6.54942">
        <ele>289</ele>
        <time>2020-12-10T18:47:17+01:00</time>
      </trkpt>
      <trkpt lat="47.61423" lon="6.54942">
        <ele>291</ele>
        <time>2020-12-10T18:47:22+01:00</time>
      </trkpt>
      <trkpt lat="47.61293" lon="6.5526">
        <ele>292</ele>
        <time>2020-12-10T18:47:27+01:00</time>
      </trkpt>
      <trkpt lat="47.61247" lon="6.55543">
        <ele>296</ele>
        <time>2020-12-10T18:47:32+01:00</time>
      </trkpt>
      <trkpt lat="47.61209" lon="6.55586">
        <ele>294</ele>
        <time>2020-12-10T18:47:37+01:00</time>
      </trkpt>
      <trkpt lat="47.61204" lon="6.55706">
        <ele>313</ele>
        <time>2020-12-10T18:47:42+01:00</time>
      </trkpt>
      <trkpt lat="47.61227" lon="6.55753">
        <ele>322</ele>
        <time>2020-12-10T18:47:47+01:00</time>
      </trkpt>
      <trkpt lat="47.6123" lon="6.5583">
        <ele>328</ele>
        <time>2020-12-10T18:47:52+01:00</time>
      </trkpt>
      <trkpt lat="47.61279" lon="6.55852">
        <ele>333</ele>
        <time>2020-12-10T18:47:57+01:00</time>
      </trkpt>
      <trkpt lat="47.61371" lon="6.55818">
        <ele>340</ele>
        <time>2020-12-10T18:48:03+01:00</time>
      </trkpt>
      <trkpt lat="47.6186" lon="6.55989">
        <ele>357</ele>
        <time>2020-12-10T18:48:08+01:00</time>
      </trkpt>
      <trkpt lat="47.61904" lon="6.558">
        <ele>354</ele>
        <time>2020-12-10T18:48:13+01:00</time>
      </trkpt>
      <trkpt lat="47.61947" lon="6.5571">
        <ele>353</ele>
        <time>2020-12-10T18:48:19+01:00</time>
      </trkpt>
      <trkpt lat="47.61944" lon="6.55646">
        <ele>351</ele>
        <time>2020-12-10T18:48:24+01:00</time>
      </trkpt>
      <trkpt lat="47.61915" lon="6.5544">
        <ele>337</ele>
        <time>2020-12-10T18:48:29+01:00</time>
      </trkpt>
      <trkpt lat="47.61852" lon="6.55401">
        <ele>323</ele>
        <time>2020-12-10T18:48:35+01:00</time>
      </trkpt>
      <trkpt lat="47.61927" lon="6.55054">
        <ele>290</ele>
        <time>2020-12-10T18:48:40+01:00</time>
      </trkpt>
      <trkpt lat="47.61988" lon="6.55131">
        <ele>296</ele>
        <time>2020-12-10T18:48:45+01:00</time>
      </trkpt>
      <trkpt lat="47.62158" lon="6.55208">
        <ele>293</ele>
        <time>2020-12-10T18:48:51+01:00</time>
      </trkpt>
      <trkpt lat="47.62242" lon="6.55367">
        <ele>293</ele>
        <time>2020-12-10T18:48:56+01:00</time>
      </trkpt>
      <trkpt lat="47.62378" lon="6.55504">
        <ele>294</ele>
        <time>2020-12-10T18:49:02+01:00</time>
      </trkpt>
      <trkpt lat="47.62497" lon="6.55564">
        <ele>295</ele>
        <time>2020-12-10T18:49:08+01:00</time>
      </trkpt>
      <trkpt lat="47.62537" lon="6.55629">
        <ele>299</ele>
        <time>2020-12-10T18:49:13+01:00</time>
      </trkpt>
      <trkpt lat="47.62754" lon="6.55586">
        <ele>302</ele>
        <time>2020-12-10T18:49:19+01:00</time>
      </trkpt>
      <trkpt lat="47.62896" lon="6.55607">
        <ele>291</ele>
        <time>2020-12-10T18:49:24+01:00</time>
      </trkpt>
      <trkpt lat="47.62985" lon="6.55513">
        <ele>294</ele>
        <time>2020-12-10T18:49:30+01:00</time>
      </trkpt>
      <trkpt lat="47.62939" lon="6.55376">
        <ele>292</ele>
        <time>2020-12-10T18:49:36+01:00</time>
      </trkpt>
      <trkpt lat="47.62985" lon="6.55255">
        <ele>298</ele>
        <time>2020-12-10T18:49:41+01:00</time>
      </trkpt>
      <trkpt lat="47.62893" lon="6.55075">
        <ele>309</ele>
        <time>2020-12-10T18:49:47+01:00</time>
      </trkpt>
      <trkpt lat="47.62884" lon="6.54938">
        <ele>312</ele>
        <time>2020-12-10T18:49:53+01:00</time>
      </trkpt>
      <trkpt lat="47.62847" lon="6.54637">
        <ele>310</ele>
        <time>2020-12-10T18:49:59+01:00</time>
      </trkpt>
    </trkseg>
  </trk>
  <trk>
    <name><![CDATA[Essai parcours rouge_4]]></name>
    <trkseg>
      <trkpt lat="47.60354" lon="6.63046">
        <ele>343.57973205854</ele>
        <time>2000-01-01T00:00:00Z</time>
      </trkpt>
      <trkpt lat="47.60355" lon="6.63062">
        <ele>343.34</ele>
        <time>2000-01-01T00:00:00Z</time>
      </trkpt>
    </trkseg>
  </trk>
  <trk>
    <name><![CDATA[Essai parcours rouge_5]]></name>
    <trkseg>
      <trkpt lat="47.60376" lon="6.63032">
        <ele>341.87311478391</ele>
        <time>2000-01-01T00:00:00Z</time>
      </trkpt>
      <trkpt lat="47.6037" lon="6.63027">
        <ele>342.24951459736</ele>
        <time>2000-01-01T00:00:00Z</time>
      </trkpt>
      <trkpt lat="47.60358" lon="6.63043">
        <ele>343.13</ele>
        <time>2000-01-01T00:00:00Z</time>
      </trkpt>
      <trkpt lat="47.60331" lon="6.63078">
        <ele>344.59</ele>
        <time>2000-01-01T00:00:00Z</time>
      </trkpt>
      <trkpt lat="47.60313" lon="6.63101">
        <ele>346.38</ele>
        <time>2000-01-01T00:00:00Z</time>
      </trkpt>
      <trkpt lat="47.60295" lon="6.63124">
        <ele>348.8</ele>
        <time>2000-01-01T00:00:00Z</time>
      </trkpt>
      <trkpt lat="47.60276" lon="6.63147">
        <ele>351.55</ele>
        <time>2000-01-01T00:00:00Z</time>
      </trkpt>
      <trkpt lat="47.60251" lon="6.6318">
        <ele>354.96392697751</ele>
        <time>2000-01-01T00:00:00Z</time>
      </trkpt>
      <trkpt lat="47.6025" lon="6.63183">
        <ele>355.2</ele>
        <time>2000-01-01T00:00:00Z</time>
      </trkpt>
      <trkpt lat="47.6025" lon="6.63186">
        <ele>355.528653465</ele>
        <time>2000-01-01T00:00:00Z</time>
      </trkpt>
      <trkpt lat="47.60242" lon="6.63195">
        <ele>357.31868686674</ele>
        <time>2000-01-01T00:00:00Z</time>
      </trkpt>
      <trkpt lat="47.60235" lon="6.6321">
        <ele>359.47</ele>
        <time>2000-01-01T00:00:00Z</time>
      </trkpt>
      <trkpt lat="47.6023" lon="6.63222">
        <ele>360.50250066966</ele>
        <time>2000-01-01T00:00:00Z</time>
      </trkpt>
      <trkpt lat="47.60227" lon="6.63225">
        <ele>360.88619068675</ele>
        <time>2000-01-01T00:00:00Z</time>
      </trkpt>
      <trkpt lat="47.60227" lon="6.63231">
        <ele>361.31520125412</ele>
        <time>2000-01-01T00:00:00Z</time>
      </trkpt>
      <trkpt lat="47.60223" lon="6.63239">
        <ele>362.01</ele>
        <time>2000-01-01T00:00:00Z</time>
      </trkpt>
      <trkpt lat="47.60221" lon="6.63243">
        <ele>362.09624188489</ele>
        <time>2000-01-01T00:00:00Z</time>
      </trkpt>
      <trkpt lat="47.60219" lon="6.63249">
        <ele>362.20677811292</ele>
        <time>2000-01-01T00:00:00Z</time>
      </trkpt>
      <trkpt lat="47.6021" lon="6.6327">
        <ele>362.61771683684</ele>
        <time>2000-01-01T00:00:00Z</time>
      </trkpt>
      <trkpt lat="47.60206" lon="6.63285">
        <ele>362.89</ele>
        <time>2000-01-01T00:00:00Z</time>
      </trkpt>
      <trkpt lat="47.60198" lon="6.63315">
        <ele>363.00226494994</ele>
        <time>2000-01-01T00:00:00Z</time>
      </trkpt>
      <trkpt lat="47.60198" lon="6.63322">
        <ele>363.02689659872</ele>
        <time>2000-01-01T00:00:00Z</time>
      </trkpt>
      <trkpt lat="47.60192" lon="6.63353">
        <ele>363.14</ele>
        <time>2000-01-01T00:00:00Z</time>
      </trkpt>
      <trkpt lat="47.60191" lon="6.63358">
        <ele>363.12351250702</ele>
        <time>2000-01-01T00:00:00Z</time>
      </trkpt>
      <trkpt lat="47.60191" lon="6.63376">
        <ele>363.06777453006</ele>
        <time>2000-01-01T00:00:00Z</time>
      </trkpt>
      <trkpt lat="47.60189" lon="6.63388">
        <ele>363.03</ele>
        <time>2000-01-01T00:00:00Z</time>
      </trkpt>
      <trkpt lat="47.60181" lon="6.63427">
        <ele>363.09449758727</ele>
        <time>2000-01-01T00:00:00Z</time>
      </trkpt>
      <trkpt lat="47.60172" lon="6.63441">
        <ele>363.12499076355</ele>
        <time>2000-01-01T00:00:00Z</time>
      </trkpt>
      <trkpt lat="47.60168" lon="6.63443">
        <ele>363.13485974173</ele>
        <time>2000-01-01T00:00:00Z</time>
      </trkpt>
      <trkpt lat="47.60157" lon="6.63457">
        <ele>363.17</ele>
        <time>2000-01-01T00:00:00Z</time>
      </trkpt>
      <trkpt lat="47.60145" lon="6.63472">
        <ele>363.95473707719</ele>
        <time>2000-01-01T00:00:00Z</time>
      </trkpt>
      <trkpt lat="47.60139" lon="6.63477">
        <ele>364.31102769871</ele>
        <time>2000-01-01T00:00:00Z</time>
      </trkpt>
      <trkpt lat="47.60139" lon="6.6348">
        <ele>364.41</ele>
        <time>2000-01-01T00:00:00Z</time>
      </trkpt>
      <trkpt lat="47.60139" lon="6.63486">
        <ele>364.31455267715</ele>
        <time>2000-01-01T00:00:00Z</time>
      </trkpt>
      <trkpt lat="47.60137" lon="6.63511">
        <ele>363.92476468114</ele>
        <time>2000-01-01T00:00:00Z</time>
      </trkpt>
      <trkpt lat="47.60139" lon="6.63514">
        <ele>363.86</ele>
        <time>2000-01-01T00:00:00Z</time>
      </trkpt>
      <trkpt lat="47.60142" lon="6.6352">
        <ele>363.61158526052</ele>
        <time>2000-01-01T00:00:00Z</time>
      </trkpt>
      <trkpt lat="47.60145" lon="6.6352">
        <ele>363.46379342889</ele>
        <time>2000-01-01T00:00:00Z</time>
      </trkpt>
      <trkpt lat="47.6017" lon="6.63539">
        <ele>362.09</ele>
        <time>2000-01-01T00:00:00Z</time>
      </trkpt>
      <trkpt lat="47.60181" lon="6.63547">
        <ele>362.08306675336</ele>
        <time>2000-01-01T00:00:00Z</time>
      </trkpt>
      <trkpt lat="47.60181" lon="6.63551">
        <ele>362.08156539084</ele>
        <time>2000-01-01T00:00:00Z</time>
      </trkpt>
      <trkpt lat="47.60183" lon="6.6359">
        <ele>362.06688483395</ele>
        <time>2000-01-01T00:00:00Z</time>
      </trkpt>
      <trkpt lat="47.60184" lon="6.63596">
        <ele>362.06456501481</ele>
        <time>2000-01-01T00:00:00Z</time>
      </trkpt>
      <trkpt lat="47.60186" lon="6.63635">
        <ele>362.05</ele>
        <time>2000-01-01T00:00:00Z</time>
      </trkpt>
      <trkpt lat="47.60186" lon="6.63644">
        <ele>362.37242605019</ele>
        <time>2000-01-01T00:00:00Z</time>
      </trkpt>
      <trkpt lat="47.60191" lon="6.63687">
        <ele>363.9</ele>
        <time>2000-01-01T00:00:00Z</time>
      </trkpt>
      <trkpt lat="47.60191" lon="6.63689">
        <ele>363.98694380919</ele>
        <time>2000-01-01T00:00:00Z</time>
      </trkpt>
      <trkpt lat="47.60191" lon="6.63723">
        <ele>365.82</ele>
        <time>2000-01-01T00:00:00Z</time>
      </trkpt>
      <trkpt lat="47.60191" lon="6.63738">
        <ele>365.88794518578</ele>
        <time>2000-01-01T00:00:00Z</time>
      </trkpt>
      <trkpt lat="47.60194" lon="6.63758">
        <ele>365.98</ele>
        <time>2000-01-01T00:00:00Z</time>
      </trkpt>
      <trkpt lat="47.60198" lon="6.63788">
        <ele>364.936737683</ele>
        <time>2000-01-01T00:00:00Z</time>
      </trkpt>
      <trkpt lat="47.60198" lon="6.63793">
        <ele>364.77</ele>
        <time>2000-01-01T00:00:00Z</time>
      </trkpt>
      <trkpt lat="47.60198" lon="6.6384">
        <ele>363.79631954884</ele>
        <time>2000-01-01T00:00:00Z</time>
      </trkpt>
      <trkpt lat="47.60191" lon="6.63855">
        <ele>363.41924579971</ele>
        <time>2000-01-01T00:00:00Z</time>
      </trkpt>
      <trkpt lat="47.60184" lon="6.63862">
        <ele>363.16043063979</ele>
        <time>2000-01-01T00:00:00Z</time>
      </trkpt>
      <trkpt lat="47.60183" lon="6.63865">
        <ele>363.09125538845</ele>
        <time>2000-01-01T00:00:00Z</time>
      </trkpt>
      <trkpt lat="47.60177" lon="6.63903">
        <ele>362.28452612181</ele>
        <time>2000-01-01T00:00:00Z</time>
      </trkpt>
      <trkpt lat="47.60177" lon="6.63907">
        <ele>362.2</ele>
        <time>2000-01-01T00:00:00Z</time>
      </trkpt>
      <trkpt lat="47.60177" lon="6.63943">
        <ele>359.98</ele>
        <time>2000-01-01T00:00:00Z</time>
      </trkpt>
      <trkpt lat="47.60177" lon="6.63955">
        <ele>359.65453156598</ele>
        <time>2000-01-01T00:00:00Z</time>
      </trkpt>
      <trkpt lat="47.60183" lon="6.63973">
        <ele>359.12696905428</ele>
        <time>2000-01-01T00:00:00Z</time>
      </trkpt>
      <trkpt lat="47.60183" lon="6.63979">
        <ele>358.9693260501</ele>
        <time>2000-01-01T00:00:00Z</time>
      </trkpt>
      <trkpt lat="47.60187" lon="6.63993">
        <ele>358.58</ele>
        <time>2000-01-01T00:00:00Z</time>
      </trkpt>
      <trkpt lat="47.60191" lon="6.64011">
        <ele>358.61261630291</ele>
        <time>2000-01-01T00:00:00Z</time>
      </trkpt>
      <trkpt lat="47.60191" lon="6.64027">
        <ele>358.64</ele>
        <time>2000-01-01T00:00:00Z</time>
      </trkpt>
      <trkpt lat="47.60191" lon="6.64063">
        <ele>360.52</ele>
        <time>2000-01-01T00:00:00Z</time>
      </trkpt>
      <trkpt lat="47.60191" lon="6.64074">
        <ele>361.25246896832</ele>
        <time>2000-01-01T00:00:00Z</time>
      </trkpt>
      <trkpt lat="47.60193" lon="6.64098">
        <ele>362.83</ele>
        <time>2000-01-01T00:00:00Z</time>
      </trkpt>
      <trkpt lat="47.60198" lon="6.64146">
        <ele>365.24128948042</ele>
        <time>2000-01-01T00:00:00Z</time>
      </trkpt>
      <trkpt lat="47.60198" lon="6.64151">
        <ele>365.48</ele>
        <time>2000-01-01T00:00:00Z</time>
      </trkpt>
      <trkpt lat="47.602" lon="6.64182">
        <ele>368.47788560066</ele>
        <time>2000-01-01T00:00:00Z</time>
      </trkpt>
      <trkpt lat="47.60201" lon="6.64186">
        <ele>368.88</ele>
        <time>2000-01-01T00:00:00Z</time>
      </trkpt>
      <trkpt lat="47.60206" lon="6.64211">
        <ele>371.28560925467</ele>
        <time>2000-01-01T00:00:00Z</time>
      </trkpt>
      <trkpt lat="47.60206" lon="6.6422">
        <ele>372.15</ele>
        <time>2000-01-01T00:00:00Z</time>
      </trkpt>
      <trkpt lat="47.60206" lon="6.64225">
        <ele>372.45624799668</ele>
        <time>2000-01-01T00:00:00Z</time>
      </trkpt>
      <trkpt lat="47.6021" lon="6.64241">
        <ele>373.5899173165</ele>
        <time>2000-01-01T00:00:00Z</time>
      </trkpt>
      <trkpt lat="47.60212" lon="6.64255">
        <ele>374.51</ele>
        <time>2000-01-01T00:00:00Z</time>
      </trkpt>
      <trkpt lat="47.60212" lon="6.64259">
        <ele>374.70128398229</ele>
        <time>2000-01-01T00:00:00Z</time>
      </trkpt>
      <trkpt lat="47.60216" lon="6.64275">
        <ele>375.44425295688</ele>
        <time>2000-01-01T00:00:00Z</time>
      </trkpt>
      <trkpt lat="47.60219" lon="6.64295">
        <ele>376.33632410127</ele>
        <time>2000-01-01T00:00:00Z</time>
      </trkpt>
      <trkpt lat="47.60222" lon="6.64306">
        <ele>376.83</ele>
        <time>2000-01-01T00:00:00Z</time>
      </trkpt>
      <trkpt lat="47.6023" lon="6.64339">
        <ele>379.4</ele>
        <time>2000-01-01T00:00:00Z</time>
      </trkpt>
      <trkpt lat="47.60235" lon="6.64362">
        <ele>379.94534328986</ele>
        <time>2000-01-01T00:00:00Z</time>
      </trkpt>
      <trkpt lat="47.60235" lon="6.64373">
        <ele>380.2</ele>
        <time>2000-01-01T00:00:00Z</time>
      </trkpt>
      <trkpt lat="47.60235" lon="6.64396">
        <ele>380.10418182425</ele>
        <time>2000-01-01T00:00:00Z</time>
      </trkpt>
      <trkpt lat="47.60229" lon="6.64405">
        <ele>380.05</ele>
        <time>2000-01-01T00:00:00Z</time>
      </trkpt>
      <trkpt lat="47.60225" lon="6.64412">
        <ele>379.97007606787</ele>
        <time>2000-01-01T00:00:00Z</time>
      </trkpt>
      <trkpt lat="47.60212" lon="6.64428">
        <ele>379.74720530444</ele>
        <time>2000-01-01T00:00:00Z</time>
      </trkpt>
      <trkpt lat="47.60209" lon="6.64428">
        <ele>379.70762715292</ele>
        <time>2000-01-01T00:00:00Z</time>
      </trkpt>
      <trkpt lat="47.60204" lon="6.64435">
        <ele>379.6169155962</ele>
        <time>2000-01-01T00:00:00Z</time>
      </trkpt>
      <trkpt lat="47.60198" lon="6.64439">
        <ele>379.53012959438</ele>
        <time>2000-01-01T00:00:00Z</time>
      </trkpt>
      <trkpt lat="47.60198" lon="6.64469">
        <ele>379.26</ele>
        <time>2000-01-01T00:00:00Z</time>
      </trkpt>
      <trkpt lat="47.60198" lon="6.64493">
        <ele>378.74107838509</ele>
        <time>2000-01-01T00:00:00Z</time>
      </trkpt>
      <trkpt lat="47.60203" lon="6.64503">
        <ele>378.48</ele>
        <time>2000-01-01T00:00:00Z</time>
      </trkpt>
      <trkpt lat="47.60203" lon="6.64504">
        <ele>378.47018873726</ele>
        <time>2000-01-01T00:00:00Z</time>
      </trkpt>
      <trkpt lat="47.60212" lon="6.64516">
        <ele>378.3421879173</ele>
        <time>2000-01-01T00:00:00Z</time>
      </trkpt>
      <trkpt lat="47.60213" lon="6.64522">
        <ele>378.29811158399</ele>
        <time>2000-01-01T00:00:00Z</time>
      </trkpt>
      <trkpt lat="47.60218" lon="6.64527">
        <ele>378.23433104168</ele>
        <time>2000-01-01T00:00:00Z</time>
      </trkpt>
      <trkpt lat="47.60222" lon="6.64536">
        <ele>378.15745968703</ele>
        <time>2000-01-01T00:00:00Z</time>
      </trkpt>
      <trkpt lat="47.60225" lon="6.64543">
        <ele>378.1</ele>
        <time>2000-01-01T00:00:00Z</time>
      </trkpt>
      <trkpt lat="47.60232" lon="6.64563">
        <ele>378.01675354687</ele>
        <time>2000-01-01T00:00:00Z</time>
      </trkpt>
      <trkpt lat="47.60234" lon="6.64575">
        <ele>377.97</ele>
        <time>2000-01-01T00:00:00Z</time>
      </trkpt>
      <trkpt lat="47.60235" lon="6.64579">
        <ele>377.98078515726</ele>
        <time>2000-01-01T00:00:00Z</time>
      </trkpt>
      <trkpt lat="47.60236" lon="6.64626">
        <ele>378.11315720394</ele>
        <time>2000-01-01T00:00:00Z</time>
      </trkpt>
      <trkpt lat="47.60239" lon="6.64646">
        <ele>378.17</ele>
        <time>2000-01-01T00:00:00Z</time>
      </trkpt>
      <trkpt lat="47.60241" lon="6.64658">
        <ele>378.13030358868</ele>
        <time>2000-01-01T00:00:00Z</time>
      </trkpt>
      <trkpt lat="47.60241" lon="6.6468">
        <ele>378.06129532439</ele>
        <time>2000-01-01T00:00:00Z</time>
      </trkpt>
      <trkpt lat="47.60235" lon="6.6468">
        <ele>378.03338306563</ele>
        <time>2000-01-01T00:00:00Z</time>
      </trkpt>
      <trkpt lat="47.60233" lon="6.64682">
        <ele>378.02216153901</ele>
        <time>2000-01-01T00:00:00Z</time>
      </trkpt>
      <trkpt lat="47.60219" lon="6.64689">
        <ele>377.95343123036</ele>
        <time>2000-01-01T00:00:00Z</time>
      </trkpt>
      <trkpt lat="47.60212" lon="6.64691">
        <ele>377.92026813832</ele>
        <time>2000-01-01T00:00:00Z</time>
      </trkpt>
      <trkpt lat="47.60209" lon="6.64705">
        <ele>377.87418922589</ele>
        <time>2000-01-01T00:00:00Z</time>
      </trkpt>
      <trkpt lat="47.60209" lon="6.64734">
        <ele>377.78322323017</ele>
        <time>2000-01-01T00:00:00Z</time>
      </trkpt>
      <trkpt lat="47.60213" lon="6.64745">
        <ele>377.88332423529</ele>
        <time>2000-01-01T00:00:00Z</time>
      </trkpt>
      <trkpt lat="47.60219" lon="6.64752">
        <ele>377.98531203172</ele>
        <time>2000-01-01T00:00:00Z</time>
      </trkpt>
      <trkpt lat="47.60224" lon="6.64757">
        <ele>378.06587689839</ele>
        <time>2000-01-01T00:00:00Z</time>
      </trkpt>
      <trkpt lat="47.60227" lon="6.64757">
        <ele>378.1</ele>
        <time>2000-01-01T00:00:00Z</time>
      </trkpt>
      <trkpt lat="47.60229" lon="6.64757">
        <ele>378.17964644925</ele>
        <time>2000-01-01T00:00:00Z</time>
      </trkpt>
      <trkpt lat="47.60238" lon="6.64768">
        <ele>378.55942470456</ele>
        <time>2000-01-01T00:00:00Z</time>
      </trkpt>
      <trkpt lat="47.60242" lon="6.64768">
        <ele>378.68968191208</ele>
        <time>2000-01-01T00:00:00Z</time>
      </trkpt>
      <trkpt lat="47.60244" lon="6.64773">
        <ele>378.81733246697</ele>
        <time>2000-01-01T00:00:00Z</time>
      </trkpt>
      <trkpt lat="47.60248" lon="6.64775">
        <ele>378.95479303063</ele>
        <time>2000-01-01T00:00:00Z</time>
      </trkpt>
      <trkpt lat="47.60255" lon="6.64786">
        <ele>379.27</ele>
        <time>2000-01-01T00:00:00Z</time>
      </trkpt>
      <trkpt lat="47.60265" lon="6.64802">
        <ele>380.07110153345</ele>
        <time>2000-01-01T00:00:00Z</time>
      </trkpt>
      <trkpt lat="47.60265" lon="6.64809">
        <ele>380.31938537326</ele>
        <time>2000-01-01T00:00:00Z</time>
      </trkpt>
      <trkpt lat="47.60267" lon="6.64814">
        <ele>380.53</ele>
        <time>2000-01-01T00:00:00Z</time>
      </trkpt>
      <trkpt lat="47.6027" lon="6.64822">
        <ele>380.88834718574</ele>
        <time>2000-01-01T00:00:00Z</time>
      </trkpt>
      <trkpt lat="47.60275" lon="6.64848">
        <ele>381.94</ele>
        <time>2000-01-01T00:00:00Z</time>
      </trkpt>
      <trkpt lat="47.60279" lon="6.64872">
        <ele>382.54429854684</ele>
        <time>2000-01-01T00:00:00Z</time>
      </trkpt>
      <trkpt lat="47.60279" lon="6.64881">
        <ele>382.75964619894</ele>
        <time>2000-01-01T00:00:00Z</time>
      </trkpt>
      <trkpt lat="47.60286" lon="6.6493">
        <ele>383.64204044477</ele>
        <time>2000-01-01T00:00:00Z</time>
      </trkpt>
      <trkpt lat="47.60286" lon="6.64935">
        <ele>383.72</ele>
        <time>2000-01-01T00:00:00Z</time>
      </trkpt>
      <trkpt lat="47.60291" lon="6.65005">
        <ele>385.04</ele>
        <time>2000-01-01T00:00:00Z</time>
      </trkpt>
      <trkpt lat="47.60293" lon="6.65041">
        <ele>386.3</ele>
        <time>2000-01-01T00:00:00Z</time>
      </trkpt>
      <trkpt lat="47.60297" lon="6.65094">
        <ele>388.43</ele>
        <time>2000-01-01T00:00:00Z</time>
      </trkpt>
      <trkpt lat="47.60299" lon="6.65129">
        <ele>390.63</ele>
        <time>2000-01-01T00:00:00Z</time>
      </trkpt>
      <trkpt lat="47.60301" lon="6.65162">
        <ele>391.2938510476</ele>
        <time>2000-01-01T00:00:00Z</time>
      </trkpt>
      <trkpt lat="47.60302" lon="6.65164">
        <ele>391.34</ele>
        <time>2000-01-01T00:00:00Z</time>
      </trkpt>
      <trkpt lat="47.60308" lon="6.65196">
        <ele>391.44480073002</ele>
        <time>2000-01-01T00:00:00Z</time>
      </trkpt>
      <trkpt lat="47.60309" lon="6.65216">
        <ele>391.50802955215</ele>
        <time>2000-01-01T00:00:00Z</time>
      </trkpt>
      <trkpt lat="47.60309" lon="6.65252">
        <ele>391.62</ele>
        <time>2000-01-01T00:00:00Z</time>
      </trkpt>
      <trkpt lat="47.60309" lon="6.65287">
        <ele>392.56</ele>
        <time>2000-01-01T00:00:00Z</time>
      </trkpt>
      <trkpt lat="47.60309" lon="6.65323">
        <ele>393.17</ele>
        <time>2000-01-01T00:00:00Z</time>
      </trkpt>
      <trkpt lat="47.60309" lon="6.65347">
        <ele>393.40388440722</ele>
        <time>2000-01-01T00:00:00Z</time>
      </trkpt>
      <trkpt lat="47.60306" lon="6.65354">
        <ele>393.48326929189</ele>
        <time>2000-01-01T00:00:00Z</time>
      </trkpt>
      <trkpt lat="47.60305" lon="6.65357">
        <ele>393.51</ele>
        <time>2000-01-01T00:00:00Z</time>
      </trkpt>
      <trkpt lat="47.60295" lon="6.65408">
        <ele>393.78</ele>
        <time>2000-01-01T00:00:00Z</time>
      </trkpt>
      <trkpt lat="47.60292" lon="6.65421">
        <ele>394.14424194706</ele>
        <time>2000-01-01T00:00:00Z</time>
      </trkpt>
      <trkpt lat="47.60286" lon="6.65435">
        <ele>394.57385534621</ele>
        <time>2000-01-01T00:00:00Z</time>
      </trkpt>
      <trkpt lat="47.60285" lon="6.6544">
        <ele>394.7</ele>
        <time>2000-01-01T00:00:00Z</time>
      </trkpt>
      <trkpt lat="47.60279" lon="6.65466">
        <ele>396.41514502672</ele>
        <time>2000-01-01T00:00:00Z</time>
      </trkpt>
      <trkpt lat="47.60276" lon="6.65473">
        <ele>396.89</ele>
        <time>2000-01-01T00:00:00Z</time>
      </trkpt>
      <trkpt lat="47.60273" lon="6.6548">
        <ele>397.10112082504</ele>
        <time>2000-01-01T00:00:00Z</time>
      </trkpt>
      <trkpt lat="47.60257" lon="6.65536">
        <ele>398.54612638007</ele>
        <time>2000-01-01T00:00:00Z</time>
      </trkpt>
      <trkpt lat="47.60252" lon="6.65553">
        <ele>399</ele>
        <time>2000-01-01T00:00:00Z</time>
      </trkpt>
      <trkpt lat="47.60247" lon="6.65568">
        <ele>399.68262592175</ele>
        <time>2000-01-01T00:00:00Z</time>
      </trkpt>
      <trkpt lat="47.6024" lon="6.65585">
        <ele>400.5</ele>
        <time>2000-01-01T00:00:00Z</time>
      </trkpt>
      <trkpt lat="47.60235" lon="6.65597">
        <ele>401.34646275813</ele>
        <time>2000-01-01T00:00:00Z</time>
      </trkpt>
      <trkpt lat="47.60226" lon="6.65613">
        <ele>402.55</ele>
        <time>2000-01-01T00:00:00Z</time>
      </trkpt>
      <trkpt lat="47.60215" lon="6.65635">
        <ele>403.46877061341</ele>
        <time>2000-01-01T00:00:00Z</time>
      </trkpt>
      <trkpt lat="47.60212" lon="6.65644">
        <ele>403.806032055</ele>
        <time>2000-01-01T00:00:00Z</time>
      </trkpt>
      <trkpt lat="47.60204" lon="6.65655">
        <ele>404.34</ele>
        <time>2000-01-01T00:00:00Z</time>
      </trkpt>
      <trkpt lat="47.60203" lon="6.65656">
        <ele>404.43711613427</ele>
        <time>2000-01-01T00:00:00Z</time>
      </trkpt>
      <trkpt lat="47.60189" lon="6.65682">
        <ele>406.02</ele>
        <time>2000-01-01T00:00:00Z</time>
      </trkpt>
      <trkpt lat="47.60187" lon="6.65685">
        <ele>406.07293686697</ele>
        <time>2000-01-01T00:00:00Z</time>
      </trkpt>
      <trkpt lat="47.60184" lon="6.65687">
        <ele>406.13747712199</ele>
        <time>2000-01-01T00:00:00Z</time>
      </trkpt>
      <trkpt lat="47.60183" lon="6.65694">
        <ele>406.23214819286</ele>
        <time>2000-01-01T00:00:00Z</time>
      </trkpt>
      <trkpt lat="47.60175" lon="6.65701">
        <ele>406.41440971996</ele>
        <time>2000-01-01T00:00:00Z</time>
      </trkpt>
      <trkpt lat="47.60174" lon="6.65708">
        <ele>406.50908094671</ele>
        <time>2000-01-01T00:00:00Z</time>
      </trkpt>
      <trkpt lat="47.60169" lon="6.65712">
        <ele>406.62055519076</ele>
        <time>2000-01-01T00:00:00Z</time>
      </trkpt>
      <trkpt lat="47.60168" lon="6.65719">
        <ele>406.71522652142</ele>
        <time>2000-01-01T00:00:00Z</time>
      </trkpt>
      <trkpt lat="47.60163" lon="6.65721">
        <ele>406.81684278898</ele>
        <time>2000-01-01T00:00:00Z</time>
      </trkpt>
      <trkpt lat="47.60158" lon="6.65729">
        <ele>406.96</ele>
        <time>2000-01-01T00:00:00Z</time>
      </trkpt>
      <trkpt lat="47.60146" lon="6.6575">
        <ele>407.24495880159</ele>
        <time>2000-01-01T00:00:00Z</time>
      </trkpt>
      <trkpt lat="47.6014" lon="6.65755">
        <ele>407.35031355044</ele>
        <time>2000-01-01T00:00:00Z</time>
      </trkpt>
      <trkpt lat="47.60132" lon="6.65765">
        <ele>407.51</ele>
        <time>2000-01-01T00:00:00Z</time>
      </trkpt>
      <trkpt lat="47.60131" lon="6.65766">
        <ele>407.51308342337</ele>
        <time>2000-01-01T00:00:00Z</time>
      </trkpt>
      <trkpt lat="47.60127" lon="6.65777">
        <ele>407.53419255928</ele>
        <time>2000-01-01T00:00:00Z</time>
      </trkpt>
      <trkpt lat="47.60127" lon="6.65798">
        <ele>407.57</ele>
        <time>2000-01-01T00:00:00Z</time>
      </trkpt>
      <trkpt lat="47.60127" lon="6.65834">
        <ele>407.15</ele>
        <time>2000-01-01T00:00:00Z</time>
      </trkpt>
      <trkpt lat="47.60127" lon="6.65843">
        <ele>407.24088528625</ele>
        <time>2000-01-01T00:00:00Z</time>
      </trkpt>
      <trkpt lat="47.60131" lon="6.65861">
        <ele>407.4265516128</ele>
        <time>2000-01-01T00:00:00Z</time>
      </trkpt>
      <trkpt lat="47.60137" lon="6.65877">
        <ele>407.60590476686</ele>
        <time>2000-01-01T00:00:00Z</time>
      </trkpt>
      <trkpt lat="47.60142" lon="6.65906">
        <ele>407.89914272922</ele>
        <time>2000-01-01T00:00:00Z</time>
      </trkpt>
      <trkpt lat="47.60142" lon="6.65919">
        <ele>408.02</ele>
        <time>2000-01-01T00:00:00Z</time>
      </trkpt>
      <trkpt lat="47.60146" lon="6.66025">
        <ele>410.73</ele>
        <time>2000-01-01T00:00:00Z</time>
      </trkpt>
      <trkpt lat="47.60148" lon="6.66078">
        <ele>414.05</ele>
        <time>2000-01-01T00:00:00Z</time>
      </trkpt>
      <trkpt lat="47.60149" lon="6.66114">
        <ele>417.62</ele>
        <time>2000-01-01T00:00:00Z</time>
      </trkpt>
      <trkpt lat="47.6015" lon="6.66149">
        <ele>421.66</ele>
        <time>2000-01-01T00:00:00Z</time>
      </trkpt>
      <trkpt lat="47.60151" lon="6.66185">
        <ele>425.67</ele>
        <time>2000-01-01T00:00:00Z</time>
      </trkpt>
      <trkpt lat="47.60153" lon="6.66238">
        <ele>429.37</ele>
        <time>2000-01-01T00:00:00Z</time>
      </trkpt>
      <trkpt lat="47.60154" lon="6.66273">
        <ele>433</ele>
        <time>2000-01-01T00:00:00Z</time>
      </trkpt>
      <trkpt lat="47.60156" lon="6.66309">
        <ele>436.86</ele>
        <time>2000-01-01T00:00:00Z</time>
      </trkpt>
      <trkpt lat="47.60157" lon="6.66344">
        <ele>441.04</ele>
        <time>2000-01-01T00:00:00Z</time>
      </trkpt>
      <trkpt lat="47.60157" lon="6.66354">
        <ele>441.59953736639</ele>
        <time>2000-01-01T00:00:00Z</time>
      </trkpt>
      <trkpt lat="47.60159" lon="6.66397">
        <ele>444.04</ele>
        <time>2000-01-01T00:00:00Z</time>
      </trkpt>
      <trkpt lat="47.60159" lon="6.664">
        <ele>444.26365355331</ele>
        <time>2000-01-01T00:00:00Z</time>
      </trkpt>
      <trkpt lat="47.60155" lon="6.66432">
        <ele>446.93</ele>
        <time>2000-01-01T00:00:00Z</time>
      </trkpt>
      <trkpt lat="47.60151" lon="6.66467">
        <ele>451.18</ele>
        <time>2000-01-01T00:00:00Z</time>
      </trkpt>
      <trkpt lat="47.6015" lon="6.6648">
        <ele>452.62229581188</ele>
        <time>2000-01-01T00:00:00Z</time>
      </trkpt>
      <trkpt lat="47.60153" lon="6.66502">
        <ele>455.18</ele>
        <time>2000-01-01T00:00:00Z</time>
      </trkpt>
      <trkpt lat="47.60154" lon="6.66515">
        <ele>456.06295628923</ele>
        <time>2000-01-01T00:00:00Z</time>
      </trkpt>
      <trkpt lat="47.60169" lon="6.66549">
        <ele>458.86</ele>
        <time>2000-01-01T00:00:00Z</time>
      </trkpt>
      <trkpt lat="47.6017" lon="6.66552">
        <ele>459.20044280506</ele>
        <time>2000-01-01T00:00:00Z</time>
      </trkpt>
      <trkpt lat="47.60168" lon="6.66584">
        <ele>462.36</ele>
        <time>2000-01-01T00:00:00Z</time>
      </trkpt>
      <trkpt lat="47.60167" lon="6.66596">
        <ele>463.44823630893</ele>
        <time>2000-01-01T00:00:00Z</time>
      </trkpt>
      <trkpt lat="47.60163" lon="6.66619">
        <ele>465.54</ele>
        <time>2000-01-01T00:00:00Z</time>
      </trkpt>
      <trkpt lat="47.60156" lon="6.66653">
        <ele>469.47</ele>
        <time>2000-01-01T00:00:00Z</time>
      </trkpt>
      <trkpt lat="47.60149" lon="6.66692">
        <ele>473.03401676451</ele>
        <time>2000-01-01T00:00:00Z</time>
      </trkpt>
      <trkpt lat="47.60145" lon="6.66703">
        <ele>474.13</ele>
        <time>2000-01-01T00:00:00Z</time>
      </trkpt>
      <trkpt lat="47.60134" lon="6.66735">
        <ele>478.5</ele>
        <time>2000-01-01T00:00:00Z</time>
      </trkpt>
      <trkpt lat="47.60133" lon="6.66737">
        <ele>478.77527023028</ele>
        <time>2000-01-01T00:00:00Z</time>
      </trkpt>
      <trkpt lat="47.60113" lon="6.66751">
        <ele>481.97</ele>
        <time>2000-01-01T00:00:00Z</time>
      </trkpt>
      <trkpt lat="47.60091" lon="6.66767">
        <ele>484.65312876475</ele>
        <time>2000-01-01T00:00:00Z</time>
      </trkpt>
      <trkpt lat="47.60075" lon="6.66778">
        <ele>485.89497289098</ele>
        <time>2000-01-01T00:00:00Z</time>
      </trkpt>
      <trkpt lat="47.60069" lon="6.66783">
        <ele>486.37960631398</ele>
        <time>2000-01-01T00:00:00Z</time>
      </trkpt>
      <trkpt lat="47.60062" lon="6.66795">
        <ele>487.14</ele>
        <time>2000-01-01T00:00:00Z</time>
      </trkpt>
      <trkpt lat="47.60061" lon="6.66796">
        <ele>487.21409388136</ele>
        <time>2000-01-01T00:00:00Z</time>
      </trkpt>
      <trkpt lat="47.60049" lon="6.66825">
        <ele>488.8</ele>
        <time>2000-01-01T00:00:00Z</time>
      </trkpt>
      <trkpt lat="47.60037" lon="6.66856">
        <ele>488.49</ele>
        <time>2000-01-01T00:00:00Z</time>
      </trkpt>
      <trkpt lat="47.60036" lon="6.66859">
        <ele>488.36017745109</ele>
        <time>2000-01-01T00:00:00Z</time>
      </trkpt>
      <trkpt lat="47.60044" lon="6.66885">
        <ele>487.34109823824</ele>
        <time>2000-01-01T00:00:00Z</time>
      </trkpt>
      <trkpt lat="47.60048" lon="6.66905">
        <ele>486.59</ele>
        <time>2000-01-01T00:00:00Z</time>
      </trkpt>
      <trkpt lat="47.60051" lon="6.66922">
        <ele>485.67585838689</ele>
        <time>2000-01-01T00:00:00Z</time>
      </trkpt>
      <trkpt lat="47.60045" lon="6.66938">
        <ele>484.72</ele>
        <time>2000-01-01T00:00:00Z</time>
      </trkpt>
      <trkpt lat="47.60041" lon="6.66951">
        <ele>483.93682560803</ele>
        <time>2000-01-01T00:00:00Z</time>
      </trkpt>
      <trkpt lat="47.6004" lon="6.66972">
        <ele>482.79</ele>
        <time>2000-01-01T00:00:00Z</time>
      </trkpt>
      <trkpt lat="47.60038" lon="6.66995">
        <ele>481.3192744213</ele>
        <time>2000-01-01T00:00:00Z</time>
      </trkpt>
      <trkpt lat="47.60035" lon="6.67006">
        <ele>480.53</ele>
        <time>2000-01-01T00:00:00Z</time>
      </trkpt>
      <trkpt lat="47.60032" lon="6.67016">
        <ele>480.2645081264</ele>
        <time>2000-01-01T00:00:00Z</time>
      </trkpt>
      <trkpt lat="47.60015" lon="6.67051">
        <ele>479.17</ele>
        <time>2000-01-01T00:00:00Z</time>
      </trkpt>
      <trkpt lat="47.60003" lon="6.67074">
        <ele>478.41878333937</ele>
        <time>2000-01-01T00:00:00Z</time>
      </trkpt>
      <trkpt lat="47.59997" lon="6.67115">
        <ele>477.35</ele>
        <time>2000-01-01T00:00:00Z</time>
      </trkpt>
      <trkpt lat="47.59993" lon="6.67137">
        <ele>475.88009482869</ele>
        <time>2000-01-01T00:00:00Z</time>
      </trkpt>
      <trkpt lat="47.59992" lon="6.6715">
        <ele>475.07174279306</ele>
        <time>2000-01-01T00:00:00Z</time>
      </trkpt>
      <trkpt lat="47.59988" lon="6.67156">
        <ele>474.94822970453</ele>
        <time>2000-01-01T00:00:00Z</time>
      </trkpt>
      <trkpt lat="47.59978" lon="6.67156">
        <ele>474.73113435865</ele>
        <time>2000-01-01T00:00:00Z</time>
      </trkpt>
      <trkpt lat="47.59975" lon="6.67148">
        <ele>474.5971317946</ele>
        <time>2000-01-01T00:00:00Z</time>
      </trkpt>
      <trkpt lat="47.59962" lon="6.67142">
        <ele>474.3</ele>
        <time>2000-01-01T00:00:00Z</time>
      </trkpt>
      <trkpt lat="47.59955" lon="6.67138">
        <ele>474.39912159765</ele>
        <time>2000-01-01T00:00:00Z</time>
      </trkpt>
      <trkpt lat="47.59939" lon="6.67142">
        <ele>474.62</ele>
        <time>2000-01-01T00:00:00Z</time>
      </trkpt>
      <trkpt lat="47.59919" lon="6.67146">
        <ele>475.69005881995</ele>
        <time>2000-01-01T00:00:00Z</time>
      </trkpt>
      <trkpt lat="47.59915" lon="6.67147">
        <ele>475.91</ele>
        <time>2000-01-01T00:00:00Z</time>
      </trkpt>
      <trkpt lat="47.59901" lon="6.67152">
        <ele>476.2398549346</ele>
        <time>2000-01-01T00:00:00Z</time>
      </trkpt>
      <trkpt lat="47.59894" lon="6.67162">
        <ele>476.46</ele>
        <time>2000-01-01T00:00:00Z</time>
      </trkpt>
      <trkpt lat="47.59889" lon="6.67168">
        <ele>476.48916722757</ele>
        <time>2000-01-01T00:00:00Z</time>
      </trkpt>
      <trkpt lat="47.59872" lon="6.67203">
        <ele>476.62</ele>
        <time>2000-01-01T00:00:00Z</time>
      </trkpt>
      <trkpt lat="47.59858" lon="6.67231">
        <ele>477.22080210718</ele>
        <time>2000-01-01T00:00:00Z</time>
      </trkpt>
      <trkpt lat="47.59842" lon="6.67256">
        <ele>478.4799698438</ele>
        <time>2000-01-01T00:00:00Z</time>
      </trkpt>
      <trkpt lat="47.59841" lon="6.67256">
        <ele>478.56</ele>
        <time>2000-01-01T00:00:00Z</time>
      </trkpt>
      <trkpt lat="47.59817" lon="6.67264">
        <ele>480.43</ele>
        <time>2000-01-01T00:00:00Z</time>
      </trkpt>
      <trkpt lat="47.59813" lon="6.67265">
        <ele>480.65334251065</ele>
        <time>2000-01-01T00:00:00Z</time>
      </trkpt>
      <trkpt lat="47.59781" lon="6.67264">
        <ele>482.33</ele>
        <time>2000-01-01T00:00:00Z</time>
      </trkpt>
      <trkpt lat="47.59761" lon="6.67263">
        <ele>483.55112940558</ele>
        <time>2000-01-01T00:00:00Z</time>
      </trkpt>
      <trkpt lat="47.59757" lon="6.67264">
        <ele>483.77</ele>
        <time>2000-01-01T00:00:00Z</time>
      </trkpt>
      <trkpt lat="47.5971" lon="6.6727">
        <ele>483.64088975451</ele>
        <time>2000-01-01T00:00:00Z</time>
      </trkpt>
      <trkpt lat="47.59678" lon="6.67294">
        <ele>482.62</ele>
        <time>2000-01-01T00:00:00Z</time>
      </trkpt>
      <trkpt lat="47.59662" lon="6.67305">
        <ele>482.28906586149</ele>
        <time>2000-01-01T00:00:00Z</time>
      </trkpt>
      <trkpt lat="47.59644" lon="6.67342">
        <ele>481.7</ele>
        <time>2000-01-01T00:00:00Z</time>
      </trkpt>
      <trkpt lat="47.59638" lon="6.67353">
        <ele>481.2741712561</ele>
        <time>2000-01-01T00:00:00Z</time>
      </trkpt>
      <trkpt lat="47.59634" lon="6.67373">
        <ele>480.64</ele>
        <time>2000-01-01T00:00:00Z</time>
      </trkpt>
      <trkpt lat="47.59623" lon="6.67424">
        <ele>479.78</ele>
        <time>2000-01-01T00:00:00Z</time>
      </trkpt>
      <trkpt lat="47.59621" lon="6.67432">
        <ele>479.60510187129</ele>
        <time>2000-01-01T00:00:00Z</time>
      </trkpt>
      <trkpt lat="47.59617" lon="6.67459">
        <ele>479.04</ele>
        <time>2000-01-01T00:00:00Z</time>
      </trkpt>
      <trkpt lat="47.59612" lon="6.67493">
        <ele>478.45</ele>
        <time>2000-01-01T00:00:00Z</time>
      </trkpt>
      <trkpt lat="47.59607" lon="6.67528">
        <ele>477.74</ele>
        <time>2000-01-01T00:00:00Z</time>
      </trkpt>
      <trkpt lat="47.59605" lon="6.67544">
        <ele>477.50104433194</ele>
        <time>2000-01-01T00:00:00Z</time>
      </trkpt>
      <trkpt lat="47.59605" lon="6.67581">
        <ele>476.96</ele>
        <time>2000-01-01T00:00:00Z</time>
      </trkpt>
      <trkpt lat="47.59606" lon="6.67617">
        <ele>476.17</ele>
        <time>2000-01-01T00:00:00Z</time>
      </trkpt>
      <trkpt lat="47.59606" lon="6.67656">
        <ele>475.90844156634</ele>
        <time>2000-01-01T00:00:00Z</time>
      </trkpt>
      <trkpt lat="47.59602" lon="6.67687">
        <ele>475.7</ele>
        <time>2000-01-01T00:00:00Z</time>
      </trkpt>
      <trkpt lat="47.59595" lon="6.67739">
        <ele>474.94</ele>
        <time>2000-01-01T00:00:00Z</time>
      </trkpt>
      <trkpt lat="47.5959" lon="6.67774">
        <ele>473.29</ele>
        <time>2000-01-01T00:00:00Z</time>
      </trkpt>
      <trkpt lat="47.59586" lon="6.67806">
        <ele>471.36256999878</ele>
        <time>2000-01-01T00:00:00Z</time>
      </trkpt>
      <trkpt lat="47.59586" lon="6.67809">
        <ele>471.19</ele>
        <time>2000-01-01T00:00:00Z</time>
      </trkpt>
      <trkpt lat="47.59584" lon="6.67862">
        <ele>468.86</ele>
        <time>2000-01-01T00:00:00Z</time>
      </trkpt>
      <trkpt lat="47.59583" lon="6.67898">
        <ele>466.83</ele>
        <time>2000-01-01T00:00:00Z</time>
      </trkpt>
      <trkpt lat="47.59583" lon="6.67905">
        <ele>466.58888426869</ele>
        <time>2000-01-01T00:00:00Z</time>
      </trkpt>
      <trkpt lat="47.59586" lon="6.67933">
        <ele>465.67</ele>
        <time>2000-01-01T00:00:00Z</time>
      </trkpt>
      <trkpt lat="47.59591" lon="6.67974">
        <ele>465.47193315877</ele>
        <time>2000-01-01T00:00:00Z</time>
      </trkpt>
      <trkpt lat="47.596" lon="6.68019">
        <ele>465.25</ele>
        <time>2000-01-01T00:00:00Z</time>
      </trkpt>
      <trkpt lat="47.59615" lon="6.68087">
        <ele>465.28</ele>
        <time>2000-01-01T00:00:00Z</time>
      </trkpt>
      <trkpt lat="47.59622" lon="6.68121">
        <ele>465.6</ele>
        <time>2000-01-01T00:00:00Z</time>
      </trkpt>
      <trkpt lat="47.59639" lon="6.68206">
        <ele>465.87</ele>
        <time>2000-01-01T00:00:00Z</time>
      </trkpt>
      <trkpt lat="47.59642" lon="6.68219">
        <ele>465.84613503491</ele>
        <time>2000-01-01T00:00:00Z</time>
      </trkpt>
      <trkpt lat="47.59646" lon="6.6824">
        <ele>465.81</ele>
        <time>2000-01-01T00:00:00Z</time>
      </trkpt>
      <trkpt lat="47.5965" lon="6.68266">
        <ele>465.53551391939</ele>
        <time>2000-01-01T00:00:00Z</time>
      </trkpt>
      <trkpt lat="47.59652" lon="6.68274">
        <ele>465.45</ele>
        <time>2000-01-01T00:00:00Z</time>
      </trkpt>
      <trkpt lat="47.59653" lon="6.68277">
        <ele>465.38694226255</ele>
        <time>2000-01-01T00:00:00Z</time>
      </trkpt>
      <trkpt lat="47.59684" lon="6.68297">
        <ele>464.47</ele>
        <time>2000-01-01T00:00:00Z</time>
      </trkpt>
      <trkpt lat="47.59706" lon="6.68312">
        <ele>462.73389971509</ele>
        <time>2000-01-01T00:00:00Z</time>
      </trkpt>
      <trkpt lat="47.59726" lon="6.6833">
        <ele>460.84</ele>
        <time>2000-01-01T00:00:00Z</time>
      </trkpt>
      <trkpt lat="47.59738" lon="6.68341">
        <ele>459.61861185749</ele>
        <time>2000-01-01T00:00:00Z</time>
      </trkpt>
      <trkpt lat="47.59746" lon="6.68349">
        <ele>458.75</ele>
        <time>2000-01-01T00:00:00Z</time>
      </trkpt>
      <trkpt lat="47.59776" lon="6.6838">
        <ele>456.83</ele>
        <time>2000-01-01T00:00:00Z</time>
      </trkpt>
      <trkpt lat="47.59778" lon="6.68382">
        <ele>456.62857164427</ele>
        <time>2000-01-01T00:00:00Z</time>
      </trkpt>
      <trkpt lat="47.59792" lon="6.68406">
        <ele>455.06027949681</ele>
        <time>2000-01-01T00:00:00Z</time>
      </trkpt>
      <trkpt lat="47.59805" lon="6.68437">
        <ele>453.77451599658</ele>
        <time>2000-01-01T00:00:00Z</time>
      </trkpt>
      <trkpt lat="47.59808" lon="6.68471">
        <ele>452.27</ele>
        <time>2000-01-01T00:00:00Z</time>
      </trkpt>
      <trkpt lat="47.59814" lon="6.68524">
        <ele>450.04</ele>
        <time>2000-01-01T00:00:00Z</time>
      </trkpt>
      <trkpt lat="47.59815" lon="6.68537">
        <ele>448.97149534876</ele>
        <time>2000-01-01T00:00:00Z</time>
      </trkpt>
      <trkpt lat="47.59819" lon="6.68558">
        <ele>447.24</ele>
        <time>2000-01-01T00:00:00Z</time>
      </trkpt>
      <trkpt lat="47.59821" lon="6.68569">
        <ele>446.1000016285</ele>
        <time>2000-01-01T00:00:00Z</time>
      </trkpt>
      <trkpt lat="47.59814" lon="6.68591">
        <ele>443.64</ele>
        <time>2000-01-01T00:00:00Z</time>
      </trkpt>
      <trkpt lat="47.59804" lon="6.68623">
        <ele>440.19</ele>
        <time>2000-01-01T00:00:00Z</time>
      </trkpt>
      <trkpt lat="47.59789" lon="6.68672">
        <ele>437.05</ele>
        <time>2000-01-01T00:00:00Z</time>
      </trkpt>
      <trkpt lat="47.59779" lon="6.68704">
        <ele>433.95</ele>
        <time>2000-01-01T00:00:00Z</time>
      </trkpt>
      <trkpt lat="47.59769" lon="6.68736">
        <ele>430.92</ele>
        <time>2000-01-01T00:00:00Z</time>
      </trkpt>
      <trkpt lat="47.59764" lon="6.6875">
        <ele>429.75687354993</ele>
        <time>2000-01-01T00:00:00Z</time>
      </trkpt>
      <trkpt lat="47.59751" lon="6.68753">
        <ele>428.28</ele>
        <time>2000-01-01T00:00:00Z</time>
      </trkpt>
      <trkpt lat="47.59692" lon="6.68767">
        <ele>426.01</ele>
        <time>2000-01-01T00:00:00Z</time>
      </trkpt>
      <trkpt lat="47.59668" lon="6.68772">
        <ele>423.05</ele>
        <time>2000-01-01T00:00:00Z</time>
      </trkpt>
      <trkpt lat="47.59644" lon="6.68778">
        <ele>419.8</ele>
        <time>2000-01-01T00:00:00Z</time>
      </trkpt>
      <trkpt lat="47.59609" lon="6.68786">
        <ele>416.22</ele>
        <time>2000-01-01T00:00:00Z</time>
      </trkpt>
      <trkpt lat="47.59585" lon="6.68791">
        <ele>413.04</ele>
        <time>2000-01-01T00:00:00Z</time>
      </trkpt>
      <trkpt lat="47.59574" lon="6.68794">
        <ele>412.7079130921</ele>
        <time>2000-01-01T00:00:00Z</time>
      </trkpt>
      <trkpt lat="47.59525" lon="6.68794">
        <ele>411.27</ele>
        <time>2000-01-01T00:00:00Z</time>
      </trkpt>
      <trkpt lat="47.59479" lon="6.68794">
        <ele>410.10887143339</ele>
        <time>2000-01-01T00:00:00Z</time>
      </trkpt>
      <trkpt lat="47.59478" lon="6.68793">
        <ele>410.07</ele>
        <time>2000-01-01T00:00:00Z</time>
      </trkpt>
      <trkpt lat="47.5947" lon="6.68789">
        <ele>409.92868650528</ele>
        <time>2000-01-01T00:00:00Z</time>
      </trkpt>
      <trkpt lat="47.59464" lon="6.68789">
        <ele>409.82347876074</ele>
        <time>2000-01-01T00:00:00Z</time>
      </trkpt>
      <trkpt lat="47.5946" lon="6.68786">
        <ele>409.74487943907</ele>
        <time>2000-01-01T00:00:00Z</time>
      </trkpt>
      <trkpt lat="47.59455" lon="6.68786">
        <ele>409.65720631862</ele>
        <time>2000-01-01T00:00:00Z</time>
      </trkpt>
      <trkpt lat="47.59447" lon="6.6878">
        <ele>409.70713995887</ele>
        <time>2000-01-01T00:00:00Z</time>
      </trkpt>
      <trkpt lat="47.59438" lon="6.6878">
        <ele>409.76725867004</ele>
        <time>2000-01-01T00:00:00Z</time>
      </trkpt>
      <trkpt lat="47.59434" lon="6.68775">
        <ele>409.8022049482</ele>
        <time>2000-01-01T00:00:00Z</time>
      </trkpt>
      <trkpt lat="47.59431" lon="6.68775">
        <ele>409.82224451859</ele>
        <time>2000-01-01T00:00:00Z</time>
      </trkpt>
      <trkpt lat="47.59421" lon="6.6877">
        <ele>409.89</ele>
        <time>2000-01-01T00:00:00Z</time>
      </trkpt>
      <trkpt lat="47.59414" lon="6.68767">
        <ele>409.78081045674</ele>
        <time>2000-01-01T00:00:00Z</time>
      </trkpt>
      <trkpt lat="47.59403" lon="6.68767">
        <ele>409.62466880413</ele>
        <time>2000-01-01T00:00:00Z</time>
      </trkpt>
      <trkpt lat="47.59399" lon="6.68763">
        <ele>409.55</ele>
        <time>2000-01-01T00:00:00Z</time>
      </trkpt>
      <trkpt lat="47.59394" lon="6.68758">
        <ele>409.41802417696</ele>
        <time>2000-01-01T00:00:00Z</time>
      </trkpt>
      <trkpt lat="47.59369" lon="6.68747">
        <ele>408.80290457131</ele>
        <time>2000-01-01T00:00:00Z</time>
      </trkpt>
      <trkpt lat="47.59358" lon="6.68739">
        <ele>408.51390589365</ele>
        <time>2000-01-01T00:00:00Z</time>
      </trkpt>
      <trkpt lat="47.59354" lon="6.68739">
        <ele>408.42</ele>
        <time>2000-01-01T00:00:00Z</time>
      </trkpt>
      <trkpt lat="47.59343" lon="6.68739">
        <ele>407.92623290697</ele>
        <time>2000-01-01T00:00:00Z</time>
      </trkpt>
      <trkpt lat="47.5934" lon="6.68736">
        <ele>407.76408758855</ele>
        <time>2000-01-01T00:00:00Z</time>
      </trkpt>
      <trkpt lat="47.59319" lon="6.68736">
        <ele>406.81</ele>
        <time>2000-01-01T00:00:00Z</time>
      </trkpt>
      <trkpt lat="47.59295" lon="6.68736">
        <ele>403.79</ele>
        <time>2000-01-01T00:00:00Z</time>
      </trkpt>
      <trkpt lat="47.59271" lon="6.68736">
        <ele>399.97</ele>
        <time>2000-01-01T00:00:00Z</time>
      </trkpt>
      <trkpt lat="47.59247" lon="6.68736">
        <ele>396.48</ele>
        <time>2000-01-01T00:00:00Z</time>
      </trkpt>
      <trkpt lat="47.59211" lon="6.68736">
        <ele>393.57</ele>
        <time>2000-01-01T00:00:00Z</time>
      </trkpt>
      <trkpt lat="47.59187" lon="6.68736">
        <ele>390.7</ele>
        <time>2000-01-01T00:00:00Z</time>
      </trkpt>
      <trkpt lat="47.59163" lon="6.68736">
        <ele>387.99</ele>
        <time>2000-01-01T00:00:00Z</time>
      </trkpt>
      <trkpt lat="47.59139" lon="6.68736">
        <ele>385.32</ele>
        <time>2000-01-01T00:00:00Z</time>
      </trkpt>
      <trkpt lat="47.59103" lon="6.68736">
        <ele>382.16</ele>
        <time>2000-01-01T00:00:00Z</time>
      </trkpt>
      <trkpt lat="47.59096" lon="6.68736">
        <ele>381.25742319347</ele>
        <time>2000-01-01T00:00:00Z</time>
      </trkpt>
      <trkpt lat="47.59089" lon="6.68714">
        <ele>379.13</ele>
        <time>2000-01-01T00:00:00Z</time>
      </trkpt>
      <trkpt lat="47.59078" lon="6.68682">
        <ele>377.96</ele>
        <time>2000-01-01T00:00:00Z</time>
      </trkpt>
      <trkpt lat="47.59067" lon="6.6865">
        <ele>377.8</ele>
        <time>2000-01-01T00:00:00Z</time>
      </trkpt>
      <trkpt lat="47.59059" lon="6.68626">
        <ele>377.91636958448</ele>
        <time>2000-01-01T00:00:00Z</time>
      </trkpt>
      <trkpt lat="47.59054" lon="6.68604">
        <ele>378.01659927951</ele>
        <time>2000-01-01T00:00:00Z</time>
      </trkpt>
      <trkpt lat="47.59054" lon="6.68601">
        <ele>378.03</ele>
        <time>2000-01-01T00:00:00Z</time>
      </trkpt>
      <trkpt lat="47.59054" lon="6.68593">
        <ele>377.9299529768</ele>
        <time>2000-01-01T00:00:00Z</time>
      </trkpt>
      <trkpt lat="47.59046" lon="6.68568">
        <ele>377.57718217588</ele>
        <time>2000-01-01T00:00:00Z</time>
      </trkpt>
      <trkpt lat="47.59039" lon="6.68534">
        <ele>375.65</ele>
        <time>2000-01-01T00:00:00Z</time>
      </trkpt>
      <trkpt lat="47.59031" lon="6.685">
        <ele>373.33</ele>
        <time>2000-01-01T00:00:00Z</time>
      </trkpt>
      <trkpt lat="47.5903" lon="6.68494">
        <ele>373.0002475542</ele>
        <time>2000-01-01T00:00:00Z</time>
      </trkpt>
      <trkpt lat="47.59026" lon="6.68486">
        <ele>372.51234220864</ele>
        <time>2000-01-01T00:00:00Z</time>
      </trkpt>
      <trkpt lat="47.59024" lon="6.68458">
        <ele>371.13287231604</ele>
        <time>2000-01-01T00:00:00Z</time>
      </trkpt>
      <trkpt lat="47.59022" lon="6.68455">
        <ele>370.92620610377</ele>
        <time>2000-01-01T00:00:00Z</time>
      </trkpt>
      <trkpt lat="47.5902" lon="6.68455">
        <ele>370.78091921845</ele>
        <time>2000-01-01T00:00:00Z</time>
      </trkpt>
      <trkpt lat="47.5902" lon="6.68453">
        <ele>370.64757135437</ele>
        <time>2000-01-01T00:00:00Z</time>
      </trkpt>
      <trkpt lat="47.59017" lon="6.68453">
        <ele>370.22173048358</ele>
        <time>2000-01-01T00:00:00Z</time>
      </trkpt>
      <trkpt lat="47.59017" lon="6.68455">
        <ele>370.0302641749</ele>
        <time>2000-01-01T00:00:00Z</time>
      </trkpt>
      <trkpt lat="47.58999" lon="6.68446">
        <ele>367.32</ele>
        <time>2000-01-01T00:00:00Z</time>
      </trkpt>
      <trkpt lat="47.58976" lon="6.68436">
        <ele>364.14</ele>
        <time>2000-01-01T00:00:00Z</time>
      </trkpt>
      <trkpt lat="47.58953" lon="6.68425">
        <ele>361.7</ele>
        <time>2000-01-01T00:00:00Z</time>
      </trkpt>
      <trkpt lat="47.58931" lon="6.68414">
        <ele>361.01148222608</ele>
        <time>2000-01-01T00:00:00Z</time>
      </trkpt>
      <trkpt lat="47.58927" lon="6.68409">
        <ele>360.85712995215</ele>
        <time>2000-01-01T00:00:00Z</time>
      </trkpt>
      <trkpt lat="47.5892" lon="6.68404">
        <ele>360.64</ele>
        <time>2000-01-01T00:00:00Z</time>
      </trkpt>
      <trkpt lat="47.58914" lon="6.684">
        <ele>360.6370827307</ele>
        <time>2000-01-01T00:00:00Z</time>
      </trkpt>
      <trkpt lat="47.58907" lon="6.68392">
        <ele>360.63339290622</ele>
        <time>2000-01-01T00:00:00Z</time>
      </trkpt>
      <trkpt lat="47.589" lon="6.68392">
        <ele>360.63047046888</ele>
        <time>2000-01-01T00:00:00Z</time>
      </trkpt>
      <trkpt lat="47.58899" lon="6.68391">
        <ele>360.63</ele>
        <time>2000-01-01T00:00:00Z</time>
      </trkpt>
      <trkpt lat="47.5889" lon="6.68384">
        <ele>360.75392792885</ele>
        <time>2000-01-01T00:00:00Z</time>
      </trkpt>
      <trkpt lat="47.58887" lon="6.68378">
        <ele>360.81491714608</ele>
        <time>2000-01-01T00:00:00Z</time>
      </trkpt>
      <trkpt lat="47.58883" lon="6.68378">
        <ele>360.86334610785</ele>
        <time>2000-01-01T00:00:00Z</time>
      </trkpt>
      <trkpt lat="47.58881" lon="6.68373">
        <ele>360.91081506189</ele>
        <time>2000-01-01T00:00:00Z</time>
      </trkpt>
      <trkpt lat="47.58875" lon="6.6837">
        <ele>360.96467496177</ele>
        <time>2000-01-01T00:00:00Z</time>
      </trkpt>
      <trkpt lat="47.58872" lon="6.68364">
        <ele>361.00505410441</ele>
        <time>2000-01-01T00:00:00Z</time>
      </trkpt>
      <trkpt lat="47.58868" lon="6.68364">
        <ele>361.03711741703</ele>
        <time>2000-01-01T00:00:00Z</time>
      </trkpt>
      <trkpt lat="47.58866" lon="6.68359">
        <ele>361.06854520496</ele>
        <time>2000-01-01T00:00:00Z</time>
      </trkpt>
      <trkpt lat="47.58856" lon="6.68365">
        <ele>361.15501802601</ele>
        <time>2000-01-01T00:00:00Z</time>
      </trkpt>
      <trkpt lat="47.58862" lon="6.68385">
        <ele>361.27335750116</ele>
        <time>2000-01-01T00:00:00Z</time>
      </trkpt>
      <trkpt lat="47.58874" lon="6.68372">
        <ele>361.39248759462</ele>
        <time>2000-01-01T00:00:00Z</time>
      </trkpt>
      <trkpt lat="47.58875" lon="6.68371">
        <ele>361.4</ele>
        <time>2000-01-01T00:00:00Z</time>
      </trkpt>
      <trkpt lat="47.58889" lon="6.68359">
        <ele>362.12055630309</ele>
        <time>2000-01-01T00:00:00Z</time>
      </trkpt>
      <trkpt lat="47.58892" lon="6.68352">
        <ele>362.36576280025</ele>
        <time>2000-01-01T00:00:00Z</time>
      </trkpt>
      <trkpt lat="47.58892" lon="6.68349">
        <ele>362.45</ele>
        <time>2000-01-01T00:00:00Z</time>
      </trkpt>
      <trkpt lat="47.58893" lon="6.68342">
        <ele>362.57265628342</ele>
        <time>2000-01-01T00:00:00Z</time>
      </trkpt>
      <trkpt lat="47.58889" lon="6.68314">
        <ele>363.05</ele>
        <time>2000-01-01T00:00:00Z</time>
      </trkpt>
      <trkpt lat="47.58886" lon="6.68289">
        <ele>363.17762112333</ele>
        <time>2000-01-01T00:00:00Z</time>
      </trkpt>
      <trkpt lat="47.5888" lon="6.68263">
        <ele>363.3138037126</ele>
        <time>2000-01-01T00:00:00Z</time>
      </trkpt>
      <trkpt lat="47.58872" lon="6.6823">
        <ele>363.49</ele>
        <time>2000-01-01T00:00:00Z</time>
      </trkpt>
      <trkpt lat="47.58864" lon="6.68196">
        <ele>364.49</ele>
        <time>2000-01-01T00:00:00Z</time>
      </trkpt>
      <trkpt lat="47.58857" lon="6.68167">
        <ele>365.83462534573</ele>
        <time>2000-01-01T00:00:00Z</time>
      </trkpt>
      <trkpt lat="47.58856" lon="6.68162">
        <ele>366.04</ele>
        <time>2000-01-01T00:00:00Z</time>
      </trkpt>
      <trkpt lat="47.58854" lon="6.68148">
        <ele>366.61540662918</ele>
        <time>2000-01-01T00:00:00Z</time>
      </trkpt>
      <trkpt lat="47.58879" lon="6.68135">
        <ele>368.11</ele>
        <time>2000-01-01T00:00:00Z</time>
      </trkpt>
      <trkpt lat="47.58901" lon="6.68124">
        <ele>370.54</ele>
        <time>2000-01-01T00:00:00Z</time>
      </trkpt>
      <trkpt lat="47.58904" lon="6.68122">
        <ele>370.79040006074</ele>
        <time>2000-01-01T00:00:00Z</time>
      </trkpt>
      <trkpt lat="47.58899" lon="6.68092">
        <ele>372.48</ele>
        <time>2000-01-01T00:00:00Z</time>
      </trkpt>
      <trkpt lat="47.58894" lon="6.68057">
        <ele>373.6</ele>
        <time>2000-01-01T00:00:00Z</time>
      </trkpt>
      <trkpt lat="47.58891" lon="6.68038">
        <ele>373.94457701416</ele>
        <time>2000-01-01T00:00:00Z</time>
      </trkpt>
      <trkpt lat="47.58884" lon="6.68006">
        <ele>374.53</ele>
        <time>2000-01-01T00:00:00Z</time>
      </trkpt>
      <trkpt lat="47.58879" lon="6.67981">
        <ele>374.55948488093</ele>
        <time>2000-01-01T00:00:00Z</time>
      </trkpt>
      <trkpt lat="47.58874" lon="6.67942">
        <ele>374.60419724693</ele>
        <time>2000-01-01T00:00:00Z</time>
      </trkpt>
      <trkpt lat="47.58874" lon="6.67937">
        <ele>374.61</ele>
        <time>2000-01-01T00:00:00Z</time>
      </trkpt>
      <trkpt lat="47.58874" lon="6.67932">
        <ele>374.60126355407</ele>
        <time>2000-01-01T00:00:00Z</time>
      </trkpt>
      <trkpt lat="47.58868" lon="6.67849">
        <ele>374.45</ele>
        <time>2000-01-01T00:00:00Z</time>
      </trkpt>
      <trkpt lat="47.58865" lon="6.67815">
        <ele>374.48809218712</ele>
        <time>2000-01-01T00:00:00Z</time>
      </trkpt>
      <trkpt lat="47.58865" lon="6.67813">
        <ele>374.49</ele>
        <time>2000-01-01T00:00:00Z</time>
      </trkpt>
      <trkpt lat="47.5886" lon="6.67779">
        <ele>374.7</ele>
        <time>2000-01-01T00:00:00Z</time>
      </trkpt>
      <trkpt lat="47.58857" lon="6.67756">
        <ele>374.97814415765</ele>
        <time>2000-01-01T00:00:00Z</time>
      </trkpt>
      <trkpt lat="47.58855" lon="6.67744">
        <ele>375.13</ele>
        <time>2000-01-01T00:00:00Z</time>
      </trkpt>
      <trkpt lat="47.58847" lon="6.67699">
        <ele>375.74781645336</ele>
        <time>2000-01-01T00:00:00Z</time>
      </trkpt>
      <trkpt lat="47.58846" lon="6.67692">
        <ele>375.84</ele>
        <time>2000-01-01T00:00:00Z</time>
      </trkpt>
      <trkpt lat="47.58842" lon="6.67657">
        <ele>376.92</ele>
        <time>2000-01-01T00:00:00Z</time>
      </trkpt>
      <trkpt lat="47.58841" lon="6.67646">
        <ele>377.46460625965</ele>
        <time>2000-01-01T00:00:00Z</time>
      </trkpt>
      <trkpt lat="47.58835" lon="6.67646">
        <ele>377.89295207669</ele>
        <time>2000-01-01T00:00:00Z</time>
      </trkpt>
      <trkpt lat="47.58845" lon="6.67642">
        <ele>378.63</ele>
        <time>2000-01-01T00:00:00Z</time>
      </trkpt>
      <trkpt lat="47.58852" lon="6.67639">
        <ele>379.67200642198</ele>
        <time>2000-01-01T00:00:00Z</time>
      </trkpt>
      <trkpt lat="47.58865" lon="6.67637">
        <ele>381.53268050222</ele>
        <time>2000-01-01T00:00:00Z</time>
      </trkpt>
      <trkpt lat="47.58868" lon="6.67635">
        <ele>382.04</ele>
        <time>2000-01-01T00:00:00Z</time>
      </trkpt>
      <trkpt lat="47.5889" lon="6.67623">
        <ele>384.40572260007</ele>
        <time>2000-01-01T00:00:00Z</time>
      </trkpt>
      <trkpt lat="47.58902" lon="6.67618">
        <ele>385.71</ele>
        <time>2000-01-01T00:00:00Z</time>
      </trkpt>
      <trkpt lat="47.58916" lon="6.67612">
        <ele>387.8486289169</ele>
        <time>2000-01-01T00:00:00Z</time>
      </trkpt>
      <trkpt lat="47.58926" lon="6.67609">
        <ele>389.3</ele>
        <time>2000-01-01T00:00:00Z</time>
      </trkpt>
      <trkpt lat="47.58949" lon="6.67602">
        <ele>393.09</ele>
        <time>2000-01-01T00:00:00Z</time>
      </trkpt>
      <trkpt lat="47.58969" lon="6.67596">
        <ele>395.94175416095</ele>
        <time>2000-01-01T00:00:00Z</time>
      </trkpt>
      <trkpt lat="47.58972" lon="6.67593">
        <ele>396.43</ele>
        <time>2000-01-01T00:00:00Z</time>
      </trkpt>
      <trkpt lat="47.58992" lon="6.67574">
        <ele>398.29016862354</ele>
        <time>2000-01-01T00:00:00Z</time>
      </trkpt>
      <trkpt lat="47.58999" lon="6.6756">
        <ele>399.23</ele>
        <time>2000-01-01T00:00:00Z</time>
      </trkpt>
      <trkpt lat="47.59001" lon="6.67556">
        <ele>399.48868988468</ele>
        <time>2000-01-01T00:00:00Z</time>
      </trkpt>
      <trkpt lat="47.59011" lon="6.67535">
        <ele>400.95806170474</ele>
        <time>2000-01-01T00:00:00Z</time>
      </trkpt>
      <trkpt lat="47.59012" lon="6.6753">
        <ele>401.26</ele>
        <time>2000-01-01T00:00:00Z</time>
      </trkpt>
      <trkpt lat="47.59022" lon="6.67497">
        <ele>403.01</ele>
        <time>2000-01-01T00:00:00Z</time>
      </trkpt>
      <trkpt lat="47.59031" lon="6.67465">
        <ele>405.38</ele>
        <time>2000-01-01T00:00:00Z</time>
      </trkpt>
      <trkpt lat="47.59037" lon="6.67444">
        <ele>406.85926502818</ele>
        <time>2000-01-01T00:00:00Z</time>
      </trkpt>
      <trkpt lat="47.59045" lon="6.67416">
        <ele>408.88</ele>
        <time>2000-01-01T00:00:00Z</time>
      </trkpt>
      <trkpt lat="47.59055" lon="6.67383">
        <ele>413.09</ele>
        <time>2000-01-01T00:00:00Z</time>
      </trkpt>
      <trkpt lat="47.59059" lon="6.67369">
        <ele>414.81104682058</ele>
        <time>2000-01-01T00:00:00Z</time>
      </trkpt>
      <trkpt lat="47.59063" lon="6.6735">
        <ele>417.03</ele>
        <time>2000-01-01T00:00:00Z</time>
      </trkpt>
      <trkpt lat="47.59074" lon="6.67299">
        <ele>420.41</ele>
        <time>2000-01-01T00:00:00Z</time>
      </trkpt>
      <trkpt lat="47.59082" lon="6.67266">
        <ele>423.56</ele>
        <time>2000-01-01T00:00:00Z</time>
      </trkpt>
      <trkpt lat="47.59085" lon="6.6725">
        <ele>425.17066848964</ele>
        <time>2000-01-01T00:00:00Z</time>
      </trkpt>
      <trkpt lat="47.59089" lon="6.67232">
        <ele>427.07</ele>
        <time>2000-01-01T00:00:00Z</time>
      </trkpt>
      <trkpt lat="47.59097" lon="6.67198">
        <ele>430.14</ele>
        <time>2000-01-01T00:00:00Z</time>
      </trkpt>
      <trkpt lat="47.59108" lon="6.67147">
        <ele>432.6</ele>
        <time>2000-01-01T00:00:00Z</time>
      </trkpt>
      <trkpt lat="47.59112" lon="6.67128">
        <ele>433.93209749578</ele>
        <time>2000-01-01T00:00:00Z</time>
      </trkpt>
      <trkpt lat="47.59115" lon="6.67113">
        <ele>434.92</ele>
        <time>2000-01-01T00:00:00Z</time>
      </trkpt>
      <trkpt lat="47.59121" lon="6.67079">
        <ele>437.35</ele>
        <time>2000-01-01T00:00:00Z</time>
      </trkpt>
      <trkpt lat="47.59127" lon="6.67047">
        <ele>440.14897259512</ele>
        <time>2000-01-01T00:00:00Z</time>
      </trkpt>
      <trkpt lat="47.59128" lon="6.67045">
        <ele>440.33</ele>
        <time>2000-01-01T00:00:00Z</time>
      </trkpt>
      <trkpt lat="47.59133" lon="6.67031">
        <ele>441.39705447485</ele>
        <time>2000-01-01T00:00:00Z</time>
      </trkpt>
      <trkpt lat="47.59136" lon="6.67025">
        <ele>441.89056144715</ele>
        <time>2000-01-01T00:00:00Z</time>
      </trkpt>
      <trkpt lat="47.59145" lon="6.67003">
        <ele>443.59069186146</ele>
        <time>2000-01-01T00:00:00Z</time>
      </trkpt>
      <trkpt lat="47.59147" lon="6.67">
        <ele>443.85</ele>
        <time>2000-01-01T00:00:00Z</time>
      </trkpt>
      <trkpt lat="47.59163" lon="6.66974">
        <ele>447.09</ele>
        <time>2000-01-01T00:00:00Z</time>
      </trkpt>
      <trkpt lat="47.59179" lon="6.66947">
        <ele>449.31</ele>
        <time>2000-01-01T00:00:00Z</time>
      </trkpt>
      <trkpt lat="47.59182" lon="6.66941">
        <ele>449.40348852625</ele>
        <time>2000-01-01T00:00:00Z</time>
      </trkpt>
      <trkpt lat="47.59191" lon="6.66929">
        <ele>449.61774016584</ele>
        <time>2000-01-01T00:00:00Z</time>
      </trkpt>
      <trkpt lat="47.59216" lon="6.66893">
        <ele>450.23462310388</ele>
        <time>2000-01-01T00:00:00Z</time>
      </trkpt>
      <trkpt lat="47.59219" lon="6.66883">
        <ele>450.37</ele>
        <time>2000-01-01T00:00:00Z</time>
      </trkpt>
      <trkpt lat="47.5923" lon="6.66851">
        <ele>450.91</ele>
        <time>2000-01-01T00:00:00Z</time>
      </trkpt>
      <trkpt lat="47.59232" lon="6.66843">
        <ele>451.04022184674</ele>
        <time>2000-01-01T00:00:00Z</time>
      </trkpt>
      <trkpt lat="47.59232" lon="6.66839">
        <ele>451.10160117112</ele>
        <time>2000-01-01T00:00:00Z</time>
      </trkpt>
      <trkpt lat="47.59229" lon="6.66781">
        <ele>452</ele>
        <time>2000-01-01T00:00:00Z</time>
      </trkpt>
      <trkpt lat="47.59226" lon="6.66728">
        <ele>454.73</ele>
        <time>2000-01-01T00:00:00Z</time>
      </trkpt>
      <trkpt lat="47.59224" lon="6.66692">
        <ele>457.97</ele>
        <time>2000-01-01T00:00:00Z</time>
      </trkpt>
      <trkpt lat="47.59224" lon="6.66688">
        <ele>458.34405946216</ele>
        <time>2000-01-01T00:00:00Z</time>
      </trkpt>
      <trkpt lat="47.59233" lon="6.6666">
        <ele>461.19</ele>
        <time>2000-01-01T00:00:00Z</time>
      </trkpt>
      <trkpt lat="47.59234" lon="6.66658">
        <ele>461.4001718225</ele>
        <time>2000-01-01T00:00:00Z</time>
      </trkpt>
      <trkpt lat="47.59246" lon="6.66629">
        <ele>464.79</ele>
        <time>2000-01-01T00:00:00Z</time>
      </trkpt>
      <trkpt lat="47.59246" lon="6.66628">
        <ele>464.88141169951</ele>
        <time>2000-01-01T00:00:00Z</time>
      </trkpt>
      <trkpt lat="47.59255" lon="6.6661">
        <ele>466.30723389255</ele>
        <time>2000-01-01T00:00:00Z</time>
      </trkpt>
      <trkpt lat="47.59269" lon="6.66589">
        <ele>468.18</ele>
        <time>2000-01-01T00:00:00Z</time>
      </trkpt>
      <trkpt lat="47.59279" lon="6.66572">
        <ele>470.04692101076</ele>
        <time>2000-01-01T00:00:00Z</time>
      </trkpt>
      <trkpt lat="47.59284" lon="6.66562">
        <ele>471.11</ele>
        <time>2000-01-01T00:00:00Z</time>
      </trkpt>
      <trkpt lat="47.59289" lon="6.66551">
        <ele>471.95107694937</ele>
        <time>2000-01-01T00:00:00Z</time>
      </trkpt>
      <trkpt lat="47.59297" lon="6.66531">
        <ele>473.44</ele>
        <time>2000-01-01T00:00:00Z</time>
      </trkpt>
      <trkpt lat="47.59307" lon="6.66504">
        <ele>474.87008479273</ele>
        <time>2000-01-01T00:00:00Z</time>
      </trkpt>
      <trkpt lat="47.59308" lon="6.665">
        <ele>475.06</ele>
        <time>2000-01-01T00:00:00Z</time>
      </trkpt>
      <trkpt lat="47.59323" lon="6.66452">
        <ele>476.5</ele>
        <time>2000-01-01T00:00:00Z</time>
      </trkpt>
      <trkpt lat="47.59334" lon="6.6642">
        <ele>477.54</ele>
        <time>2000-01-01T00:00:00Z</time>
      </trkpt>
      <trkpt lat="47.59336" lon="6.66412">
        <ele>477.79655264084</ele>
        <time>2000-01-01T00:00:00Z</time>
      </trkpt>
      <trkpt lat="47.59348" lon="6.66392">
        <ele>478.6</ele>
        <time>2000-01-01T00:00:00Z</time>
      </trkpt>
      <trkpt lat="47.59363" lon="6.66365">
        <ele>479.75</ele>
        <time>2000-01-01T00:00:00Z</time>
      </trkpt>
      <trkpt lat="47.59369" lon="6.66355">
        <ele>479.99760445048</ele>
        <time>2000-01-01T00:00:00Z</time>
      </trkpt>
      <trkpt lat="47.59386" lon="6.66323">
        <ele>480.79</ele>
        <time>2000-01-01T00:00:00Z</time>
      </trkpt>
      <trkpt lat="47.59389" lon="6.66316">
        <ele>481.12829967401</ele>
        <time>2000-01-01T00:00:00Z</time>
      </trkpt>
      <trkpt lat="47.59403" lon="6.66298">
        <ele>482.22</ele>
        <time>2000-01-01T00:00:00Z</time>
      </trkpt>
      <trkpt lat="47.59405" lon="6.66295">
        <ele>482.46955980089</ele>
        <time>2000-01-01T00:00:00Z</time>
      </trkpt>
      <trkpt lat="47.59411" lon="6.66285">
        <ele>483.20064979619</ele>
        <time>2000-01-01T00:00:00Z</time>
      </trkpt>
      <trkpt lat="47.59415" lon="6.66281">
        <ele>483.59140827332</ele>
        <time>2000-01-01T00:00:00Z</time>
      </trkpt>
      <trkpt lat="47.59419" lon="6.66273">
        <ele>484.16</ele>
        <time>2000-01-01T00:00:00Z</time>
      </trkpt>
      <trkpt lat="47.59426" lon="6.66259">
        <ele>485.13987731001</ele>
        <time>2000-01-01T00:00:00Z</time>
      </trkpt>
      <trkpt lat="47.59435" lon="6.66246">
        <ele>486.21</ele>
        <time>2000-01-01T00:00:00Z</time>
      </trkpt>
      <trkpt lat="47.5944" lon="6.66238">
        <ele>486.49462204166</ele>
        <time>2000-01-01T00:00:00Z</time>
      </trkpt>
      <trkpt lat="47.59441" lon="6.66196">
        <ele>487.59</ele>
        <time>2000-01-01T00:00:00Z</time>
      </trkpt>
      <trkpt lat="47.59441" lon="6.6616">
        <ele>487.93</ele>
        <time>2000-01-01T00:00:00Z</time>
      </trkpt>
      <trkpt lat="47.59441" lon="6.66125">
        <ele>487.75</ele>
        <time>2000-01-01T00:00:00Z</time>
      </trkpt>
      <trkpt lat="47.59442" lon="6.6608">
        <ele>487.66609527149</ele>
        <time>2000-01-01T00:00:00Z</time>
      </trkpt>
      <trkpt lat="47.59442" lon="6.66071">
        <ele>487.65</ele>
        <time>2000-01-01T00:00:00Z</time>
      </trkpt>
      <trkpt lat="47.59445" lon="6.66001">
        <ele>487.69</ele>
        <time>2000-01-01T00:00:00Z</time>
      </trkpt>
      <trkpt lat="47.59446" lon="6.65979">
        <ele>487.88669265498</ele>
        <time>2000-01-01T00:00:00Z</time>
      </trkpt>
      <trkpt lat="47.59448" lon="6.65934">
        <ele>488.2980757247</ele>
        <time>2000-01-01T00:00:00Z</time>
      </trkpt>
      <trkpt lat="47.59451" lon="6.65912">
        <ele>488.5</ele>
        <time>2000-01-01T00:00:00Z</time>
      </trkpt>
      <trkpt lat="47.59455" lon="6.65877">
        <ele>490.13</ele>
        <time>2000-01-01T00:00:00Z</time>
      </trkpt>
      <trkpt lat="47.59456" lon="6.65871">
        <ele>490.40433675041</ele>
        <time>2000-01-01T00:00:00Z</time>
      </trkpt>
      <trkpt lat="47.59456" lon="6.65853">
        <ele>491.16957465266</ele>
        <time>2000-01-01T00:00:00Z</time>
      </trkpt>
      <trkpt lat="47.59458" lon="6.65842">
        <ele>491.64</ele>
        <time>2000-01-01T00:00:00Z</time>
      </trkpt>
      <trkpt lat="47.59459" lon="6.65834">
        <ele>492.20373109128</ele>
        <time>2000-01-01T00:00:00Z</time>
      </trkpt>
      <trkpt lat="47.5946" lon="6.65807">
        <ele>494.01</ele>
        <time>2000-01-01T00:00:00Z</time>
      </trkpt>
      <trkpt lat="47.5946" lon="6.65788">
        <ele>494.5927323802</ele>
        <time>2000-01-01T00:00:00Z</time>
      </trkpt>
      <trkpt lat="47.59463" lon="6.65764">
        <ele>495.34317203041</ele>
        <time>2000-01-01T00:00:00Z</time>
      </trkpt>
      <trkpt lat="47.59463" lon="6.65744">
        <ele>495.95806435669</ele>
        <time>2000-01-01T00:00:00Z</time>
      </trkpt>
      <trkpt lat="47.59474" lon="6.65737">
        <ele>496.50378288545</ele>
        <time>2000-01-01T00:00:00Z</time>
      </trkpt>
      <trkpt lat="47.59472" lon="6.6573">
        <ele>496.74</ele>
        <time>2000-01-01T00:00:00Z</time>
      </trkpt>
      <trkpt lat="47.59469" lon="6.65721">
        <ele>496.86327452584</ele>
        <time>2000-01-01T00:00:00Z</time>
      </trkpt>
      <trkpt lat="47.59467" lon="6.65696">
        <ele>497.18</ele>
        <time>2000-01-01T00:00:00Z</time>
      </trkpt>
      <trkpt lat="47.59466" lon="6.65677">
        <ele>496.90685554441</ele>
        <time>2000-01-01T00:00:00Z</time>
      </trkpt>
      <trkpt lat="47.59466" lon="6.6566">
        <ele>496.66</ele>
        <time>2000-01-01T00:00:00Z</time>
      </trkpt>
      <trkpt lat="47.59467" lon="6.65618">
        <ele>496.54922159584</ele>
        <time>2000-01-01T00:00:00Z</time>
      </trkpt>
      <trkpt lat="47.59464" lon="6.65608">
        <ele>496.52</ele>
        <time>2000-01-01T00:00:00Z</time>
      </trkpt>
      <trkpt lat="47.59463" lon="6.65604">
        <ele>496.47170422764</ele>
        <time>2000-01-01T00:00:00Z</time>
      </trkpt>
      <trkpt lat="47.59443" lon="6.65595">
        <ele>496.1</ele>
        <time>2000-01-01T00:00:00Z</time>
      </trkpt>
      <trkpt lat="47.59431" lon="6.6559">
        <ele>495.57686837784</ele>
        <time>2000-01-01T00:00:00Z</time>
      </trkpt>
      <trkpt lat="47.5942" lon="6.65582">
        <ele>495.07</ele>
        <time>2000-01-01T00:00:00Z</time>
      </trkpt>
      <trkpt lat="47.59413" lon="6.65577">
        <ele>494.6712239406</ele>
        <time>2000-01-01T00:00:00Z</time>
      </trkpt>
      <trkpt lat="47.59402" lon="6.65561">
        <ele>493.91</ele>
        <time>2000-01-01T00:00:00Z</time>
      </trkpt>
      <trkpt lat="47.59376" lon="6.65523">
        <ele>492.25</ele>
        <time>2000-01-01T00:00:00Z</time>
      </trkpt>
      <trkpt lat="47.59369" lon="6.65513">
        <ele>491.24512672565</ele>
        <time>2000-01-01T00:00:00Z</time>
      </trkpt>
      <trkpt lat="47.59362" lon="6.65495">
        <ele>489.84</ele>
        <time>2000-01-01T00:00:00Z</time>
      </trkpt>
      <trkpt lat="47.59351" lon="6.65464">
        <ele>487.71</ele>
        <time>2000-01-01T00:00:00Z</time>
      </trkpt>
      <trkpt lat="47.59348" lon="6.65456">
        <ele>487.32676877095</ele>
        <time>2000-01-01T00:00:00Z</time>
      </trkpt>
      <trkpt lat="47.59344" lon="6.6543">
        <ele>486.15</ele>
        <time>2000-01-01T00:00:00Z</time>
      </trkpt>
      <trkpt lat="47.59337" lon="6.65387">
        <ele>485.04056682791</ele>
        <time>2000-01-01T00:00:00Z</time>
      </trkpt>
      <trkpt lat="47.59333" lon="6.6538">
        <ele>484.81</ele>
        <time>2000-01-01T00:00:00Z</time>
      </trkpt>
      <trkpt lat="47.59318" lon="6.65353">
        <ele>483.94</ele>
        <time>2000-01-01T00:00:00Z</time>
      </trkpt>
      <trkpt lat="47.59315" lon="6.65348">
        <ele>483.75094171812</ele>
        <time>2000-01-01T00:00:00Z</time>
      </trkpt>
      <trkpt lat="47.59304" lon="6.65323">
        <ele>482.85</ele>
        <time>2000-01-01T00:00:00Z</time>
      </trkpt>
      <trkpt lat="47.59299" lon="6.65311">
        <ele>481.98698408158</ele>
        <time>2000-01-01T00:00:00Z</time>
      </trkpt>
      <trkpt lat="47.59294" lon="6.65292">
        <ele>480.75</ele>
        <time>2000-01-01T00:00:00Z</time>
      </trkpt>
      <trkpt lat="47.59286" lon="6.65264">
        <ele>479.51057928879</ele>
        <time>2000-01-01T00:00:00Z</time>
      </trkpt>
      <trkpt lat="47.59278" lon="6.65244">
        <ele>478.54</ele>
        <time>2000-01-01T00:00:00Z</time>
      </trkpt>
      <trkpt lat="47.59272" lon="6.65228">
        <ele>477.609473695</ele>
        <time>2000-01-01T00:00:00Z</time>
      </trkpt>
      <trkpt lat="47.59269" lon="6.65211">
        <ele>476.72</ele>
        <time>2000-01-01T00:00:00Z</time>
      </trkpt>
      <trkpt lat="47.59265" lon="6.65187">
        <ele>475.82837110524</ele>
        <time>2000-01-01T00:00:00Z</time>
      </trkpt>
      <trkpt lat="47.59264" lon="6.65177">
        <ele>475.45</ele>
        <time>2000-01-01T00:00:00Z</time>
      </trkpt>
      <trkpt lat="47.59261" lon="6.65141">
        <ele>474.09</ele>
        <time>2000-01-01T00:00:00Z</time>
      </trkpt>
      <trkpt lat="47.5926" lon="6.65135">
        <ele>473.89456128873</ele>
        <time>2000-01-01T00:00:00Z</time>
      </trkpt>
      <trkpt lat="47.59262" lon="6.65088">
        <ele>472.47</ele>
        <time>2000-01-01T00:00:00Z</time>
      </trkpt>
      <trkpt lat="47.59263" lon="6.65055">
        <ele>471.15836680208</ele>
        <time>2000-01-01T00:00:00Z</time>
      </trkpt>
      <trkpt lat="47.59263" lon="6.65053">
        <ele>471.07</ele>
        <time>2000-01-01T00:00:00Z</time>
      </trkpt>
      <trkpt lat="47.59259" lon="6.65023">
        <ele>469.46597925006</ele>
        <time>2000-01-01T00:00:00Z</time>
      </trkpt>
      <trkpt lat="47.59257" lon="6.65019">
        <ele>469.19</ele>
        <time>2000-01-01T00:00:00Z</time>
      </trkpt>
      <trkpt lat="47.59245" lon="6.64996">
        <ele>466.56684141892</ele>
        <time>2000-01-01T00:00:00Z</time>
      </trkpt>
      <trkpt lat="47.59241" lon="6.64992">
        <ele>465.96</ele>
        <time>2000-01-01T00:00:00Z</time>
      </trkpt>
      <trkpt lat="47.59218" lon="6.64965">
        <ele>463.55873033411</ele>
        <time>2000-01-01T00:00:00Z</time>
      </trkpt>
      <trkpt lat="47.59213" lon="6.64959">
        <ele>463.05</ele>
        <time>2000-01-01T00:00:00Z</time>
      </trkpt>
      <trkpt lat="47.59195" lon="6.64935">
        <ele>460.88</ele>
        <time>2000-01-01T00:00:00Z</time>
      </trkpt>
      <trkpt lat="47.59184" lon="6.6492">
        <ele>459.43897937575</ele>
        <time>2000-01-01T00:00:00Z</time>
      </trkpt>
      <trkpt lat="47.59177" lon="6.64913">
        <ele>458.63</ele>
        <time>2000-01-01T00:00:00Z</time>
      </trkpt>
      <trkpt lat="47.59147" lon="6.64884">
        <ele>456.98</ele>
        <time>2000-01-01T00:00:00Z</time>
      </trkpt>
      <trkpt lat="47.59135" lon="6.64873">
        <ele>456.7088709272</ele>
        <time>2000-01-01T00:00:00Z</time>
      </trkpt>
      <trkpt lat="47.59113" lon="6.64843">
        <ele>456.1223865797</ele>
        <time>2000-01-01T00:00:00Z</time>
      </trkpt>
      <trkpt lat="47.59111" lon="6.64837">
        <ele>456.04</ele>
        <time>2000-01-01T00:00:00Z</time>
      </trkpt>
      <trkpt lat="47.59102" lon="6.64808">
        <ele>455.94880669626</ele>
        <time>2000-01-01T00:00:00Z</time>
      </trkpt>
      <trkpt lat="47.59101" lon="6.64805">
        <ele>455.94</ele>
        <time>2000-01-01T00:00:00Z</time>
      </trkpt>
      <trkpt lat="47.59083" lon="6.64759">
        <ele>456.65</ele>
        <time>2000-01-01T00:00:00Z</time>
      </trkpt>
      <trkpt lat="47.59073" lon="6.64734">
        <ele>457.18412716465</ele>
        <time>2000-01-01T00:00:00Z</time>
      </trkpt>
      <trkpt lat="47.59071" lon="6.64728">
        <ele>457.3</ele>
        <time>2000-01-01T00:00:00Z</time>
      </trkpt>
      <trkpt lat="47.59062" lon="6.64695">
        <ele>458.18</ele>
        <time>2000-01-01T00:00:00Z</time>
      </trkpt>
      <trkpt lat="47.59053" lon="6.64663">
        <ele>459.79</ele>
        <time>2000-01-01T00:00:00Z</time>
      </trkpt>
      <trkpt lat="47.59048" lon="6.64645">
        <ele>460.39427510039</ele>
        <time>2000-01-01T00:00:00Z</time>
      </trkpt>
      <trkpt lat="47.59037" lon="6.64615">
        <ele>461.48</ele>
        <time>2000-01-01T00:00:00Z</time>
      </trkpt>
      <trkpt lat="47.59026" lon="6.64583">
        <ele>463.25</ele>
        <time>2000-01-01T00:00:00Z</time>
      </trkpt>
      <trkpt lat="47.59015" lon="6.64552">
        <ele>465.32</ele>
        <time>2000-01-01T00:00:00Z</time>
      </trkpt>
      <trkpt lat="47.59004" lon="6.64521">
        <ele>467.16</ele>
        <time>2000-01-01T00:00:00Z</time>
      </trkpt>
      <trkpt lat="47.59" lon="6.64511">
        <ele>467.41914673817</ele>
        <time>2000-01-01T00:00:00Z</time>
      </trkpt>
      <trkpt lat="47.58986" lon="6.64474">
        <ele>468.42</ele>
        <time>2000-01-01T00:00:00Z</time>
      </trkpt>
      <trkpt lat="47.58976" lon="6.64447">
        <ele>469.11630673102</ele>
        <time>2000-01-01T00:00:00Z</time>
      </trkpt>
      <trkpt lat="47.58974" lon="6.64443">
        <ele>469.22</ele>
        <time>2000-01-01T00:00:00Z</time>
      </trkpt>
      <trkpt lat="47.58961" lon="6.64413">
        <ele>469.78</ele>
        <time>2000-01-01T00:00:00Z</time>
      </trkpt>
      <trkpt lat="47.58949" lon="6.64383">
        <ele>470.53</ele>
        <time>2000-01-01T00:00:00Z</time>
      </trkpt>
      <trkpt lat="47.58941" lon="6.64366">
        <ele>471.04728491292</ele>
        <time>2000-01-01T00:00:00Z</time>
      </trkpt>
      <trkpt lat="47.5893" lon="6.64338">
        <ele>471.87</ele>
        <time>2000-01-01T00:00:00Z</time>
      </trkpt>
      <trkpt lat="47.58918" lon="6.64307">
        <ele>473.3</ele>
        <time>2000-01-01T00:00:00Z</time>
      </trkpt>
      <trkpt lat="47.58916" lon="6.64301">
        <ele>473.48968336595</ele>
        <time>2000-01-01T00:00:00Z</time>
      </trkpt>
      <trkpt lat="47.58904" lon="6.64279">
        <ele>474.32</ele>
        <time>2000-01-01T00:00:00Z</time>
      </trkpt>
      <trkpt lat="47.58893" lon="6.6426">
        <ele>474.35025285009</ele>
        <time>2000-01-01T00:00:00Z</time>
      </trkpt>
      <trkpt lat="47.58868" lon="6.64207">
        <ele>474.43</ele>
        <time>2000-01-01T00:00:00Z</time>
      </trkpt>
      <trkpt lat="47.58855" lon="6.64178">
        <ele>473.83</ele>
        <time>2000-01-01T00:00:00Z</time>
      </trkpt>
      <trkpt lat="47.58846" lon="6.64159">
        <ele>473.43151075133</ele>
        <time>2000-01-01T00:00:00Z</time>
      </trkpt>
      <trkpt lat="47.58841" lon="6.64149">
        <ele>473.21</ele>
        <time>2000-01-01T00:00:00Z</time>
      </trkpt>
      <trkpt lat="47.58827" lon="6.6412">
        <ele>472.6</ele>
        <time>2000-01-01T00:00:00Z</time>
      </trkpt>
      <trkpt lat="47.58775" lon="6.63984">
        <ele>466.2</ele>
      </trkpt>
      <trkpt lat="47.58775" lon="6.63984">
        <ele>466.2</ele>
      </trkpt>
      <trkpt lat="47.58727" lon="6.638">
        <ele>456.5</ele>
      </trkpt>
      <trkpt lat="47.58727" lon="6.638">
        <ele>456.5</ele>
      </trkpt>
      <trkpt lat="47.58667" lon="6.63704">
        <ele>454.4</ele>
      </trkpt>
      <trkpt lat="47.58667" lon="6.63704">
        <ele>454.4</ele>
      </trkpt>
      <trkpt lat="47.58586" lon="6.63704">
        <ele>453.6</ele>
      </trkpt>
      <trkpt lat="47.58586" lon="6.63704">
        <ele>453.6</ele>
      </trkpt>
      <trkpt lat="47.585" lon="6.63576">
        <ele>461.1</ele>
      </trkpt>
      <trkpt lat="47.585" lon="6.63576">
        <ele>461.1</ele>
      </trkpt>
      <trkpt lat="47.58402" lon="6.6356">
        <ele>460.4</ele>
      </trkpt>
      <trkpt lat="47.58402" lon="6.6356">
        <ele>460.4</ele>
      </trkpt>
      <trkpt lat="47.58365" lon="6.6344">
        <ele>452.9</ele>
      </trkpt>
      <trkpt lat="47.58365" lon="6.6344">
        <ele>452.9</ele>
      </trkpt>
      <trkpt lat="47.5844" lon="6.6332">
        <ele>448.8</ele>
      </trkpt>
      <trkpt lat="47.5844" lon="6.6332">
        <ele>448.8</ele>
      </trkpt>
      <trkpt lat="47.58435" lon="6.63167">
        <ele>439.6</ele>
      </trkpt>
      <trkpt lat="47.58435" lon="6.63167">
        <ele>439.6</ele>
      </trkpt>
      <trkpt lat="47.58521" lon="6.63095">
        <ele>439.3</ele>
      </trkpt>
      <trkpt lat="47.58521" lon="6.63095">
        <ele>439.3</ele>
      </trkpt>
      <trkpt lat="47.5857" lon="6.63079">
        <ele>433.4</ele>
      </trkpt>
      <trkpt lat="47.5857" lon="6.63079">
        <ele>433.4</ele>
      </trkpt>
      <trkpt lat="47.58629" lon="6.62919">
        <ele>431.4</ele>
      </trkpt>
      <trkpt lat="47.58629" lon="6.62919">
        <ele>431.4</ele>
      </trkpt>
      <trkpt lat="47.58743" lon="6.62775">
        <ele>419.6</ele>
      </trkpt>
      <trkpt lat="47.58743" lon="6.62775">
        <ele>419.6</ele>
      </trkpt>
      <trkpt lat="47.58905" lon="6.62391">
        <ele>438.4</ele>
      </trkpt>
      <trkpt lat="47.58905" lon="6.62391">
        <ele>438.4</ele>
      </trkpt>
    </trkseg>
  </trk>
</gpx>